<?xml version="1.0" encoding="UTF-8" standalone="no" ?>
<gpx xmlns="http://www.topografix.com/GPX/1/1" xmlns:xsi="http://www.w3.org/2001/XMLSchema-instance" xsi:schemaLocation="http://www.topografix.com/GPX/1/1 http://www.topografix.com/GPX/1/1/gpx.xsd" version="1.1" creator="VisuGPX - https://www.visugpx.com">
  <metadata>
    <name>Tulle - 10 Km</name>
  </metadata>
  <trk>
    <name><![CDATA[Tulle - 10 Km_1]]></name>
    <trkseg>
      <trkpt lat="45.26828" lon="1.77196">
        <ele>214</ele>
        <time>2020-09-12T19:01:21.000Z</time>
      </trkpt>
      <trkpt lat="45.26828" lon="1.77196">
        <ele>214</ele>
        <time>2020-09-12T19:01:22.000Z</time>
      </trkpt>
      <trkpt lat="45.26826" lon="1.77195">
        <ele>212</ele>
        <time>2020-09-12T19:01:23.000Z</time>
      </trkpt>
      <trkpt lat="45.26823" lon="1.77195">
        <ele>212</ele>
        <time>2020-09-12T19:01:24.000Z</time>
      </trkpt>
      <trkpt lat="45.26819" lon="1.77194">
        <ele>211</ele>
        <time>2020-09-12T19:01:25.000Z</time>
      </trkpt>
      <trkpt lat="45.26814" lon="1.77193">
        <ele>212</ele>
        <time>2020-09-12T19:01:26.000Z</time>
      </trkpt>
      <trkpt lat="45.2681" lon="1.77192">
        <ele>213</ele>
        <time>2020-09-12T19:01:27.000Z</time>
      </trkpt>
      <trkpt lat="45.26806" lon="1.77191">
        <ele>214</ele>
        <time>2020-09-12T19:01:28.000Z</time>
      </trkpt>
      <trkpt lat="45.26802" lon="1.77189">
        <ele>215</ele>
        <time>2020-09-12T19:01:29.000Z</time>
      </trkpt>
      <trkpt lat="45.26797" lon="1.77187">
        <ele>216</ele>
        <time>2020-09-12T19:01:30.000Z</time>
      </trkpt>
      <trkpt lat="45.26792" lon="1.77186">
        <ele>215</ele>
        <time>2020-09-12T19:01:31.000Z</time>
      </trkpt>
      <trkpt lat="45.26787" lon="1.77185">
        <ele>215</ele>
        <time>2020-09-12T19:01:32.000Z</time>
      </trkpt>
      <trkpt lat="45.26782" lon="1.77183">
        <ele>214</ele>
        <time>2020-09-12T19:01:33.000Z</time>
      </trkpt>
      <trkpt lat="45.26777" lon="1.77182">
        <ele>214</ele>
        <time>2020-09-12T19:01:34.000Z</time>
      </trkpt>
      <trkpt lat="45.26772" lon="1.77179">
        <ele>214</ele>
        <time>2020-09-12T19:01:35.000Z</time>
      </trkpt>
      <trkpt lat="45.26768" lon="1.77176">
        <ele>214</ele>
        <time>2020-09-12T19:01:36.000Z</time>
      </trkpt>
      <trkpt lat="45.26763" lon="1.77173">
        <ele>214</ele>
        <time>2020-09-12T19:01:37.000Z</time>
      </trkpt>
      <trkpt lat="45.26759" lon="1.7717">
        <ele>213</ele>
        <time>2020-09-12T19:01:38.000Z</time>
      </trkpt>
      <trkpt lat="45.26754" lon="1.77167">
        <ele>212</ele>
        <time>2020-09-12T19:01:39.000Z</time>
      </trkpt>
      <trkpt lat="45.26749" lon="1.77164">
        <ele>212</ele>
        <time>2020-09-12T19:01:40.000Z</time>
      </trkpt>
      <trkpt lat="45.26744" lon="1.77161">
        <ele>211</ele>
        <time>2020-09-12T19:01:41.000Z</time>
      </trkpt>
      <trkpt lat="45.26739" lon="1.77158">
        <ele>212</ele>
        <time>2020-09-12T19:01:42.000Z</time>
      </trkpt>
      <trkpt lat="45.26735" lon="1.77155">
        <ele>212</ele>
        <time>2020-09-12T19:01:43.000Z</time>
      </trkpt>
      <trkpt lat="45.2673" lon="1.77152">
        <ele>213</ele>
        <time>2020-09-12T19:01:44.000Z</time>
      </trkpt>
      <trkpt lat="45.26725" lon="1.7715">
        <ele>213</ele>
        <time>2020-09-12T19:01:45.000Z</time>
      </trkpt>
      <trkpt lat="45.2672" lon="1.77148">
        <ele>213</ele>
        <time>2020-09-12T19:01:46.000Z</time>
      </trkpt>
      <trkpt lat="45.26715" lon="1.77147">
        <ele>213</ele>
        <time>2020-09-12T19:01:47.000Z</time>
      </trkpt>
      <trkpt lat="45.2671" lon="1.77145">
        <ele>214</ele>
        <time>2020-09-12T19:01:48.000Z</time>
      </trkpt>
      <trkpt lat="45.26705" lon="1.77142">
        <ele>214</ele>
        <time>2020-09-12T19:01:49.000Z</time>
      </trkpt>
      <trkpt lat="45.267" lon="1.77141">
        <ele>214</ele>
        <time>2020-09-12T19:01:50.000Z</time>
      </trkpt>
      <trkpt lat="45.26695" lon="1.7714">
        <ele>214</ele>
        <time>2020-09-12T19:01:51.000Z</time>
      </trkpt>
      <trkpt lat="45.26689" lon="1.77139">
        <ele>214</ele>
        <time>2020-09-12T19:01:52.000Z</time>
      </trkpt>
      <trkpt lat="45.26684" lon="1.77138">
        <ele>214</ele>
        <time>2020-09-12T19:01:53.000Z</time>
      </trkpt>
      <trkpt lat="45.26678" lon="1.77137">
        <ele>214</ele>
        <time>2020-09-12T19:01:54.000Z</time>
      </trkpt>
      <trkpt lat="45.26673" lon="1.77135">
        <ele>214</ele>
        <time>2020-09-12T19:01:55.000Z</time>
      </trkpt>
      <trkpt lat="45.26668" lon="1.77134">
        <ele>215</ele>
        <time>2020-09-12T19:01:56.000Z</time>
      </trkpt>
      <trkpt lat="45.26663" lon="1.77131">
        <ele>215</ele>
        <time>2020-09-12T19:01:57.000Z</time>
      </trkpt>
      <trkpt lat="45.26659" lon="1.77128">
        <ele>216</ele>
        <time>2020-09-12T19:01:58.000Z</time>
      </trkpt>
      <trkpt lat="45.26655" lon="1.77124">
        <ele>216</ele>
        <time>2020-09-12T19:01:59.000Z</time>
      </trkpt>
      <trkpt lat="45.26652" lon="1.7712">
        <ele>217</ele>
        <time>2020-09-12T19:02:00.000Z</time>
      </trkpt>
      <trkpt lat="45.26648" lon="1.77116">
        <ele>217</ele>
        <time>2020-09-12T19:02:01.000Z</time>
      </trkpt>
      <trkpt lat="45.26645" lon="1.77111">
        <ele>218</ele>
        <time>2020-09-12T19:02:02.000Z</time>
      </trkpt>
      <trkpt lat="45.2664" lon="1.77108">
        <ele>218</ele>
        <time>2020-09-12T19:02:03.000Z</time>
      </trkpt>
      <trkpt lat="45.26636" lon="1.77104">
        <ele>219</ele>
        <time>2020-09-12T19:02:04.000Z</time>
      </trkpt>
      <trkpt lat="45.26632" lon="1.771">
        <ele>219</ele>
        <time>2020-09-12T19:02:05.000Z</time>
      </trkpt>
      <trkpt lat="45.26629" lon="1.77095">
        <ele>219</ele>
        <time>2020-09-12T19:02:06.000Z</time>
      </trkpt>
      <trkpt lat="45.26626" lon="1.7709">
        <ele>219</ele>
        <time>2020-09-12T19:02:07.000Z</time>
      </trkpt>
      <trkpt lat="45.26622" lon="1.77086">
        <ele>220</ele>
        <time>2020-09-12T19:02:08.000Z</time>
      </trkpt>
      <trkpt lat="45.26618" lon="1.77082">
        <ele>220</ele>
        <time>2020-09-12T19:02:09.000Z</time>
      </trkpt>
      <trkpt lat="45.26615" lon="1.77078">
        <ele>220</ele>
        <time>2020-09-12T19:02:10.000Z</time>
      </trkpt>
      <trkpt lat="45.26611" lon="1.77074">
        <ele>220</ele>
        <time>2020-09-12T19:02:11.000Z</time>
      </trkpt>
      <trkpt lat="45.26607" lon="1.7707">
        <ele>220</ele>
        <time>2020-09-12T19:02:12.000Z</time>
      </trkpt>
      <trkpt lat="45.26603" lon="1.77066">
        <ele>220</ele>
        <time>2020-09-12T19:02:13.000Z</time>
      </trkpt>
      <trkpt lat="45.266" lon="1.77062">
        <ele>220</ele>
        <time>2020-09-12T19:02:14.000Z</time>
      </trkpt>
      <trkpt lat="45.26596" lon="1.77059">
        <ele>220</ele>
        <time>2020-09-12T19:02:15.000Z</time>
      </trkpt>
      <trkpt lat="45.26596" lon="1.77059">
        <ele>220</ele>
        <time>2020-09-12T19:02:17.000Z</time>
      </trkpt>
      <trkpt lat="45.26596" lon="1.77059">
        <ele>220</ele>
        <time>2020-09-12T19:02:18.000Z</time>
      </trkpt>
      <trkpt lat="45.26587" lon="1.77053">
        <ele>221</ele>
        <time>2020-09-12T19:02:19.000Z</time>
      </trkpt>
      <trkpt lat="45.26579" lon="1.77049">
        <ele>221</ele>
        <time>2020-09-12T19:02:20.000Z</time>
      </trkpt>
      <trkpt lat="45.2657" lon="1.77045">
        <ele>221</ele>
        <time>2020-09-12T19:02:21.000Z</time>
      </trkpt>
      <trkpt lat="45.26565" lon="1.77044">
        <ele>221</ele>
        <time>2020-09-12T19:02:22.000Z</time>
      </trkpt>
      <trkpt lat="45.26562" lon="1.77041">
        <ele>222</ele>
        <time>2020-09-12T19:02:23.000Z</time>
      </trkpt>
      <trkpt lat="45.26559" lon="1.77038">
        <ele>222</ele>
        <time>2020-09-12T19:02:24.000Z</time>
      </trkpt>
      <trkpt lat="45.26556" lon="1.77034">
        <ele>223</ele>
        <time>2020-09-12T19:02:25.000Z</time>
      </trkpt>
      <trkpt lat="45.26553" lon="1.77029">
        <ele>223</ele>
        <time>2020-09-12T19:02:26.000Z</time>
      </trkpt>
      <trkpt lat="45.2655" lon="1.77025">
        <ele>223</ele>
        <time>2020-09-12T19:02:27.000Z</time>
      </trkpt>
      <trkpt lat="45.26548" lon="1.7702">
        <ele>223</ele>
        <time>2020-09-12T19:02:28.000Z</time>
      </trkpt>
      <trkpt lat="45.26545" lon="1.77017">
        <ele>223</ele>
        <time>2020-09-12T19:02:29.000Z</time>
      </trkpt>
      <trkpt lat="45.26542" lon="1.77015">
        <ele>224</ele>
        <time>2020-09-12T19:02:30.000Z</time>
      </trkpt>
      <trkpt lat="45.26539" lon="1.77013">
        <ele>224</ele>
        <time>2020-09-12T19:02:31.000Z</time>
      </trkpt>
      <trkpt lat="45.26536" lon="1.77011">
        <ele>225</ele>
        <time>2020-09-12T19:02:32.000Z</time>
      </trkpt>
      <trkpt lat="45.26533" lon="1.77009">
        <ele>225</ele>
        <time>2020-09-12T19:02:33.000Z</time>
      </trkpt>
      <trkpt lat="45.2653" lon="1.77008">
        <ele>226</ele>
        <time>2020-09-12T19:02:34.000Z</time>
      </trkpt>
      <trkpt lat="45.26526" lon="1.77007">
        <ele>227</ele>
        <time>2020-09-12T19:02:35.000Z</time>
      </trkpt>
      <trkpt lat="45.26521" lon="1.77005">
        <ele>229</ele>
        <time>2020-09-12T19:02:36.000Z</time>
      </trkpt>
      <trkpt lat="45.26516" lon="1.77004">
        <ele>230</ele>
        <time>2020-09-12T19:02:37.000Z</time>
      </trkpt>
      <trkpt lat="45.26512" lon="1.77003">
        <ele>231</ele>
        <time>2020-09-12T19:02:38.000Z</time>
      </trkpt>
      <trkpt lat="45.26507" lon="1.77002">
        <ele>232</ele>
        <time>2020-09-12T19:02:39.000Z</time>
      </trkpt>
      <trkpt lat="45.26502" lon="1.77002">
        <ele>233</ele>
        <time>2020-09-12T19:02:40.000Z</time>
      </trkpt>
      <trkpt lat="45.26497" lon="1.77">
        <ele>234</ele>
        <time>2020-09-12T19:02:41.000Z</time>
      </trkpt>
      <trkpt lat="45.26491" lon="1.76998">
        <ele>235</ele>
        <time>2020-09-12T19:02:42.000Z</time>
      </trkpt>
      <trkpt lat="45.26487" lon="1.76996">
        <ele>236</ele>
        <time>2020-09-12T19:02:43.000Z</time>
      </trkpt>
      <trkpt lat="45.26482" lon="1.76994">
        <ele>237</ele>
        <time>2020-09-12T19:02:44.000Z</time>
      </trkpt>
      <trkpt lat="45.26477" lon="1.76991">
        <ele>239</ele>
        <time>2020-09-12T19:02:45.000Z</time>
      </trkpt>
      <trkpt lat="45.26474" lon="1.76987">
        <ele>239</ele>
        <time>2020-09-12T19:02:46.000Z</time>
      </trkpt>
      <trkpt lat="45.26471" lon="1.76983">
        <ele>239</ele>
        <time>2020-09-12T19:02:47.000Z</time>
      </trkpt>
      <trkpt lat="45.26469" lon="1.7698">
        <ele>239</ele>
        <time>2020-09-12T19:02:48.000Z</time>
      </trkpt>
      <trkpt lat="45.26466" lon="1.76975">
        <ele>239</ele>
        <time>2020-09-12T19:02:49.000Z</time>
      </trkpt>
      <trkpt lat="45.26463" lon="1.76971">
        <ele>239</ele>
        <time>2020-09-12T19:02:50.000Z</time>
      </trkpt>
      <trkpt lat="45.26461" lon="1.76967">
        <ele>239</ele>
        <time>2020-09-12T19:02:51.000Z</time>
      </trkpt>
      <trkpt lat="45.26458" lon="1.76963">
        <ele>239</ele>
        <time>2020-09-12T19:02:52.000Z</time>
      </trkpt>
      <trkpt lat="45.26455" lon="1.76959">
        <ele>239</ele>
        <time>2020-09-12T19:02:53.000Z</time>
      </trkpt>
      <trkpt lat="45.26452" lon="1.76953">
        <ele>239</ele>
        <time>2020-09-12T19:02:54.000Z</time>
      </trkpt>
      <trkpt lat="45.26448" lon="1.76947">
        <ele>239</ele>
        <time>2020-09-12T19:02:55.000Z</time>
      </trkpt>
      <trkpt lat="45.26445" lon="1.76938">
        <ele>240</ele>
        <time>2020-09-12T19:02:56.000Z</time>
      </trkpt>
      <trkpt lat="45.26441" lon="1.7693">
        <ele>238</ele>
        <time>2020-09-12T19:02:57.000Z</time>
      </trkpt>
      <trkpt lat="45.26438" lon="1.76921">
        <ele>238</ele>
        <time>2020-09-12T19:02:58.000Z</time>
      </trkpt>
      <trkpt lat="45.26434" lon="1.76913">
        <ele>238</ele>
        <time>2020-09-12T19:02:59.000Z</time>
      </trkpt>
      <trkpt lat="45.26431" lon="1.76905">
        <ele>237</ele>
        <time>2020-09-12T19:03:00.000Z</time>
      </trkpt>
      <trkpt lat="45.26429" lon="1.76897">
        <ele>236</ele>
        <time>2020-09-12T19:03:01.000Z</time>
      </trkpt>
      <trkpt lat="45.26426" lon="1.76889">
        <ele>235</ele>
        <time>2020-09-12T19:03:02.000Z</time>
      </trkpt>
      <trkpt lat="45.26424" lon="1.7688">
        <ele>234</ele>
        <time>2020-09-12T19:03:03.000Z</time>
      </trkpt>
      <trkpt lat="45.26422" lon="1.76872">
        <ele>232</ele>
        <time>2020-09-12T19:03:04.000Z</time>
      </trkpt>
      <trkpt lat="45.26422" lon="1.76863">
        <ele>231</ele>
        <time>2020-09-12T19:03:05.000Z</time>
      </trkpt>
      <trkpt lat="45.26421" lon="1.76856">
        <ele>230</ele>
        <time>2020-09-12T19:03:06.000Z</time>
      </trkpt>
      <trkpt lat="45.26419" lon="1.76849">
        <ele>229</ele>
        <time>2020-09-12T19:03:07.000Z</time>
      </trkpt>
      <trkpt lat="45.26418" lon="1.76841">
        <ele>229</ele>
        <time>2020-09-12T19:03:08.000Z</time>
      </trkpt>
      <trkpt lat="45.26417" lon="1.76834">
        <ele>227</ele>
        <time>2020-09-12T19:03:09.000Z</time>
      </trkpt>
      <trkpt lat="45.26416" lon="1.76827">
        <ele>227</ele>
        <time>2020-09-12T19:03:10.000Z</time>
      </trkpt>
      <trkpt lat="45.26415" lon="1.7682">
        <ele>226</ele>
        <time>2020-09-12T19:03:11.000Z</time>
      </trkpt>
      <trkpt lat="45.26414" lon="1.76813">
        <ele>226</ele>
        <time>2020-09-12T19:03:12.000Z</time>
      </trkpt>
      <trkpt lat="45.26412" lon="1.76806">
        <ele>226</ele>
        <time>2020-09-12T19:03:13.000Z</time>
      </trkpt>
      <trkpt lat="45.26411" lon="1.76799">
        <ele>226</ele>
        <time>2020-09-12T19:03:14.000Z</time>
      </trkpt>
      <trkpt lat="45.2641" lon="1.76792">
        <ele>225</ele>
        <time>2020-09-12T19:03:15.000Z</time>
      </trkpt>
      <trkpt lat="45.26408" lon="1.76786">
        <ele>224</ele>
        <time>2020-09-12T19:03:16.000Z</time>
      </trkpt>
      <trkpt lat="45.26407" lon="1.7678">
        <ele>224</ele>
        <time>2020-09-12T19:03:17.000Z</time>
      </trkpt>
      <trkpt lat="45.26406" lon="1.76773">
        <ele>223</ele>
        <time>2020-09-12T19:03:18.000Z</time>
      </trkpt>
      <trkpt lat="45.26405" lon="1.76767">
        <ele>223</ele>
        <time>2020-09-12T19:03:19.000Z</time>
      </trkpt>
      <trkpt lat="45.26403" lon="1.76761">
        <ele>223</ele>
        <time>2020-09-12T19:03:20.000Z</time>
      </trkpt>
      <trkpt lat="45.26402" lon="1.76754">
        <ele>223</ele>
        <time>2020-09-12T19:03:21.000Z</time>
      </trkpt>
      <trkpt lat="45.264" lon="1.76748">
        <ele>223</ele>
        <time>2020-09-12T19:03:22.000Z</time>
      </trkpt>
      <trkpt lat="45.26398" lon="1.76741">
        <ele>223</ele>
        <time>2020-09-12T19:03:23.000Z</time>
      </trkpt>
      <trkpt lat="45.26397" lon="1.76734">
        <ele>224</ele>
        <time>2020-09-12T19:03:24.000Z</time>
      </trkpt>
      <trkpt lat="45.26396" lon="1.76727">
        <ele>224</ele>
        <time>2020-09-12T19:03:25.000Z</time>
      </trkpt>
      <trkpt lat="45.26395" lon="1.7672">
        <ele>223</ele>
        <time>2020-09-12T19:03:26.000Z</time>
      </trkpt>
      <trkpt lat="45.26395" lon="1.76713">
        <ele>224</ele>
        <time>2020-09-12T19:03:27.000Z</time>
      </trkpt>
      <trkpt lat="45.26396" lon="1.76706">
        <ele>224</ele>
        <time>2020-09-12T19:03:28.000Z</time>
      </trkpt>
      <trkpt lat="45.26397" lon="1.76699">
        <ele>224</ele>
        <time>2020-09-12T19:03:29.000Z</time>
      </trkpt>
      <trkpt lat="45.26398" lon="1.76692">
        <ele>224</ele>
        <time>2020-09-12T19:03:30.000Z</time>
      </trkpt>
      <trkpt lat="45.26399" lon="1.76686">
        <ele>223</ele>
        <time>2020-09-12T19:03:31.000Z</time>
      </trkpt>
      <trkpt lat="45.26401" lon="1.76679">
        <ele>224</ele>
        <time>2020-09-12T19:03:32.000Z</time>
      </trkpt>
      <trkpt lat="45.26402" lon="1.76673">
        <ele>223</ele>
        <time>2020-09-12T19:03:33.000Z</time>
      </trkpt>
      <trkpt lat="45.26403" lon="1.76666">
        <ele>223</ele>
        <time>2020-09-12T19:03:34.000Z</time>
      </trkpt>
      <trkpt lat="45.26405" lon="1.7666">
        <ele>223</ele>
        <time>2020-09-12T19:03:35.000Z</time>
      </trkpt>
      <trkpt lat="45.26406" lon="1.76653">
        <ele>223</ele>
        <time>2020-09-12T19:03:36.000Z</time>
      </trkpt>
      <trkpt lat="45.26408" lon="1.76647">
        <ele>223</ele>
        <time>2020-09-12T19:03:37.000Z</time>
      </trkpt>
      <trkpt lat="45.26409" lon="1.7664">
        <ele>224</ele>
        <time>2020-09-12T19:03:38.000Z</time>
      </trkpt>
      <trkpt lat="45.26411" lon="1.76634">
        <ele>226</ele>
        <time>2020-09-12T19:03:39.000Z</time>
      </trkpt>
      <trkpt lat="45.26412" lon="1.76627">
        <ele>226</ele>
        <time>2020-09-12T19:03:40.000Z</time>
      </trkpt>
      <trkpt lat="45.26414" lon="1.76619">
        <ele>228</ele>
        <time>2020-09-12T19:03:41.000Z</time>
      </trkpt>
      <trkpt lat="45.26415" lon="1.76612">
        <ele>230</ele>
        <time>2020-09-12T19:03:42.000Z</time>
      </trkpt>
      <trkpt lat="45.26417" lon="1.76604">
        <ele>230</ele>
        <time>2020-09-12T19:03:43.000Z</time>
      </trkpt>
      <trkpt lat="45.26419" lon="1.76598">
        <ele>229</ele>
        <time>2020-09-12T19:03:44.000Z</time>
      </trkpt>
      <trkpt lat="45.26421" lon="1.76592">
        <ele>228</ele>
        <time>2020-09-12T19:03:45.000Z</time>
      </trkpt>
      <trkpt lat="45.26423" lon="1.76586">
        <ele>228</ele>
        <time>2020-09-12T19:03:46.000Z</time>
      </trkpt>
      <trkpt lat="45.26424" lon="1.76579">
        <ele>228</ele>
        <time>2020-09-12T19:03:47.000Z</time>
      </trkpt>
      <trkpt lat="45.26426" lon="1.76573">
        <ele>228</ele>
        <time>2020-09-12T19:03:48.000Z</time>
      </trkpt>
      <trkpt lat="45.26427" lon="1.76566">
        <ele>228</ele>
        <time>2020-09-12T19:03:49.000Z</time>
      </trkpt>
      <trkpt lat="45.26428" lon="1.76559">
        <ele>228</ele>
        <time>2020-09-12T19:03:50.000Z</time>
      </trkpt>
      <trkpt lat="45.26429" lon="1.76553">
        <ele>228</ele>
        <time>2020-09-12T19:03:51.000Z</time>
      </trkpt>
      <trkpt lat="45.2643" lon="1.76547">
        <ele>227</ele>
        <time>2020-09-12T19:03:52.000Z</time>
      </trkpt>
      <trkpt lat="45.26431" lon="1.76541">
        <ele>227</ele>
        <time>2020-09-12T19:03:53.000Z</time>
      </trkpt>
      <trkpt lat="45.26431" lon="1.76534">
        <ele>227</ele>
        <time>2020-09-12T19:03:54.000Z</time>
      </trkpt>
      <trkpt lat="45.26432" lon="1.76527">
        <ele>226</ele>
        <time>2020-09-12T19:03:55.000Z</time>
      </trkpt>
      <trkpt lat="45.26432" lon="1.76521">
        <ele>226</ele>
        <time>2020-09-12T19:03:56.000Z</time>
      </trkpt>
      <trkpt lat="45.26432" lon="1.76514">
        <ele>226</ele>
        <time>2020-09-12T19:03:57.000Z</time>
      </trkpt>
      <trkpt lat="45.26432" lon="1.76507">
        <ele>226</ele>
        <time>2020-09-12T19:03:58.000Z</time>
      </trkpt>
      <trkpt lat="45.26432" lon="1.76501">
        <ele>226</ele>
        <time>2020-09-12T19:03:59.000Z</time>
      </trkpt>
      <trkpt lat="45.26432" lon="1.76494">
        <ele>226</ele>
        <time>2020-09-12T19:04:00.000Z</time>
      </trkpt>
      <trkpt lat="45.26432" lon="1.76488">
        <ele>226</ele>
        <time>2020-09-12T19:04:01.000Z</time>
      </trkpt>
      <trkpt lat="45.26432" lon="1.76481">
        <ele>226</ele>
        <time>2020-09-12T19:04:02.000Z</time>
      </trkpt>
      <trkpt lat="45.26432" lon="1.76475">
        <ele>226</ele>
        <time>2020-09-12T19:04:03.000Z</time>
      </trkpt>
      <trkpt lat="45.26432" lon="1.76468">
        <ele>226</ele>
        <time>2020-09-12T19:04:04.000Z</time>
      </trkpt>
      <trkpt lat="45.26432" lon="1.76462">
        <ele>226</ele>
        <time>2020-09-12T19:04:05.000Z</time>
      </trkpt>
      <trkpt lat="45.26432" lon="1.76456">
        <ele>226</ele>
        <time>2020-09-12T19:04:06.000Z</time>
      </trkpt>
      <trkpt lat="45.26432" lon="1.7645">
        <ele>226</ele>
        <time>2020-09-12T19:04:07.000Z</time>
      </trkpt>
      <trkpt lat="45.26431" lon="1.76444">
        <ele>226</ele>
        <time>2020-09-12T19:04:08.000Z</time>
      </trkpt>
      <trkpt lat="45.26431" lon="1.76437">
        <ele>226</ele>
        <time>2020-09-12T19:04:09.000Z</time>
      </trkpt>
      <trkpt lat="45.26431" lon="1.76431">
        <ele>226</ele>
        <time>2020-09-12T19:04:10.000Z</time>
      </trkpt>
      <trkpt lat="45.26431" lon="1.76424">
        <ele>226</ele>
        <time>2020-09-12T19:04:11.000Z</time>
      </trkpt>
      <trkpt lat="45.2643" lon="1.76418">
        <ele>226</ele>
        <time>2020-09-12T19:04:12.000Z</time>
      </trkpt>
      <trkpt lat="45.2643" lon="1.76412">
        <ele>226</ele>
        <time>2020-09-12T19:04:13.000Z</time>
      </trkpt>
      <trkpt lat="45.26429" lon="1.76406">
        <ele>226</ele>
        <time>2020-09-12T19:04:14.000Z</time>
      </trkpt>
      <trkpt lat="45.26429" lon="1.76399">
        <ele>226</ele>
        <time>2020-09-12T19:04:15.000Z</time>
      </trkpt>
      <trkpt lat="45.26428" lon="1.76393">
        <ele>227</ele>
        <time>2020-09-12T19:04:16.000Z</time>
      </trkpt>
      <trkpt lat="45.26428" lon="1.76386">
        <ele>227</ele>
        <time>2020-09-12T19:04:17.000Z</time>
      </trkpt>
      <trkpt lat="45.26427" lon="1.7638">
        <ele>227</ele>
        <time>2020-09-12T19:04:18.000Z</time>
      </trkpt>
      <trkpt lat="45.26427" lon="1.76374">
        <ele>226</ele>
        <time>2020-09-12T19:04:19.000Z</time>
      </trkpt>
      <trkpt lat="45.26427" lon="1.76368">
        <ele>227</ele>
        <time>2020-09-12T19:04:20.000Z</time>
      </trkpt>
      <trkpt lat="45.26427" lon="1.76361">
        <ele>226</ele>
        <time>2020-09-12T19:04:21.000Z</time>
      </trkpt>
      <trkpt lat="45.26427" lon="1.76355">
        <ele>226</ele>
        <time>2020-09-12T19:04:22.000Z</time>
      </trkpt>
      <trkpt lat="45.26426" lon="1.76349">
        <ele>226</ele>
        <time>2020-09-12T19:04:23.000Z</time>
      </trkpt>
      <trkpt lat="45.26425" lon="1.76343">
        <ele>226</ele>
        <time>2020-09-12T19:04:24.000Z</time>
      </trkpt>
      <trkpt lat="45.26424" lon="1.76337">
        <ele>226</ele>
        <time>2020-09-12T19:04:25.000Z</time>
      </trkpt>
      <trkpt lat="45.26423" lon="1.7633">
        <ele>225</ele>
        <time>2020-09-12T19:04:26.000Z</time>
      </trkpt>
      <trkpt lat="45.26422" lon="1.76324">
        <ele>225</ele>
        <time>2020-09-12T19:04:27.000Z</time>
      </trkpt>
      <trkpt lat="45.2642" lon="1.76318">
        <ele>225</ele>
        <time>2020-09-12T19:04:28.000Z</time>
      </trkpt>
      <trkpt lat="45.26419" lon="1.76312">
        <ele>225</ele>
        <time>2020-09-12T19:04:29.000Z</time>
      </trkpt>
      <trkpt lat="45.26418" lon="1.76306">
        <ele>224</ele>
        <time>2020-09-12T19:04:30.000Z</time>
      </trkpt>
      <trkpt lat="45.26416" lon="1.763">
        <ele>225</ele>
        <time>2020-09-12T19:04:31.000Z</time>
      </trkpt>
      <trkpt lat="45.26415" lon="1.76294">
        <ele>225</ele>
        <time>2020-09-12T19:04:32.000Z</time>
      </trkpt>
      <trkpt lat="45.26413" lon="1.76289">
        <ele>225</ele>
        <time>2020-09-12T19:04:33.000Z</time>
      </trkpt>
      <trkpt lat="45.26411" lon="1.76283">
        <ele>225</ele>
        <time>2020-09-12T19:04:34.000Z</time>
      </trkpt>
      <trkpt lat="45.2641" lon="1.76277">
        <ele>225</ele>
        <time>2020-09-12T19:04:35.000Z</time>
      </trkpt>
      <trkpt lat="45.26408" lon="1.76271">
        <ele>225</ele>
        <time>2020-09-12T19:04:36.000Z</time>
      </trkpt>
      <trkpt lat="45.26406" lon="1.76265">
        <ele>225</ele>
        <time>2020-09-12T19:04:37.000Z</time>
      </trkpt>
      <trkpt lat="45.26405" lon="1.7626">
        <ele>225</ele>
        <time>2020-09-12T19:04:38.000Z</time>
      </trkpt>
      <trkpt lat="45.26403" lon="1.76254">
        <ele>225</ele>
        <time>2020-09-12T19:04:39.000Z</time>
      </trkpt>
      <trkpt lat="45.26402" lon="1.76249">
        <ele>224</ele>
        <time>2020-09-12T19:04:40.000Z</time>
      </trkpt>
      <trkpt lat="45.26401" lon="1.76242">
        <ele>224</ele>
        <time>2020-09-12T19:04:41.000Z</time>
      </trkpt>
      <trkpt lat="45.264" lon="1.76236">
        <ele>224</ele>
        <time>2020-09-12T19:04:42.000Z</time>
      </trkpt>
      <trkpt lat="45.26398" lon="1.7623">
        <ele>225</ele>
        <time>2020-09-12T19:04:43.000Z</time>
      </trkpt>
      <trkpt lat="45.26396" lon="1.76224">
        <ele>225</ele>
        <time>2020-09-12T19:04:44.000Z</time>
      </trkpt>
      <trkpt lat="45.26394" lon="1.76218">
        <ele>225</ele>
        <time>2020-09-12T19:04:45.000Z</time>
      </trkpt>
      <trkpt lat="45.26392" lon="1.76212">
        <ele>225</ele>
        <time>2020-09-12T19:04:46.000Z</time>
      </trkpt>
      <trkpt lat="45.2639" lon="1.76206">
        <ele>225</ele>
        <time>2020-09-12T19:04:47.000Z</time>
      </trkpt>
      <trkpt lat="45.26388" lon="1.762">
        <ele>226</ele>
        <time>2020-09-12T19:04:48.000Z</time>
      </trkpt>
      <trkpt lat="45.26386" lon="1.76194">
        <ele>226</ele>
        <time>2020-09-12T19:04:49.000Z</time>
      </trkpt>
      <trkpt lat="45.26384" lon="1.76188">
        <ele>227</ele>
        <time>2020-09-12T19:04:50.000Z</time>
      </trkpt>
      <trkpt lat="45.26383" lon="1.76183">
        <ele>227</ele>
        <time>2020-09-12T19:04:51.000Z</time>
      </trkpt>
      <trkpt lat="45.26381" lon="1.76177">
        <ele>228</ele>
        <time>2020-09-12T19:04:52.000Z</time>
      </trkpt>
      <trkpt lat="45.2638" lon="1.76171">
        <ele>229</ele>
        <time>2020-09-12T19:04:53.000Z</time>
      </trkpt>
      <trkpt lat="45.26379" lon="1.76165">
        <ele>229</ele>
        <time>2020-09-12T19:04:54.000Z</time>
      </trkpt>
      <trkpt lat="45.26377" lon="1.7616">
        <ele>230</ele>
        <time>2020-09-12T19:04:55.000Z</time>
      </trkpt>
      <trkpt lat="45.26375" lon="1.76154">
        <ele>230</ele>
        <time>2020-09-12T19:04:56.000Z</time>
      </trkpt>
      <trkpt lat="45.26373" lon="1.76147">
        <ele>232</ele>
        <time>2020-09-12T19:04:57.000Z</time>
      </trkpt>
      <trkpt lat="45.26372" lon="1.76141">
        <ele>230</ele>
        <time>2020-09-12T19:04:58.000Z</time>
      </trkpt>
      <trkpt lat="45.2637" lon="1.76136">
        <ele>231</ele>
        <time>2020-09-12T19:04:59.000Z</time>
      </trkpt>
      <trkpt lat="45.26368" lon="1.7613">
        <ele>231</ele>
        <time>2020-09-12T19:05:00.000Z</time>
      </trkpt>
      <trkpt lat="45.26366" lon="1.76125">
        <ele>231</ele>
        <time>2020-09-12T19:05:01.000Z</time>
      </trkpt>
      <trkpt lat="45.26364" lon="1.76119">
        <ele>231</ele>
        <time>2020-09-12T19:05:02.000Z</time>
      </trkpt>
      <trkpt lat="45.26361" lon="1.76114">
        <ele>231</ele>
        <time>2020-09-12T19:05:03.000Z</time>
      </trkpt>
      <trkpt lat="45.26359" lon="1.76108">
        <ele>231</ele>
        <time>2020-09-12T19:05:04.000Z</time>
      </trkpt>
      <trkpt lat="45.26356" lon="1.76103">
        <ele>231</ele>
        <time>2020-09-12T19:05:05.000Z</time>
      </trkpt>
      <trkpt lat="45.26354" lon="1.76097">
        <ele>231</ele>
        <time>2020-09-12T19:05:06.000Z</time>
      </trkpt>
      <trkpt lat="45.26352" lon="1.76092">
        <ele>231</ele>
        <time>2020-09-12T19:05:07.000Z</time>
      </trkpt>
      <trkpt lat="45.2635" lon="1.76087">
        <ele>231</ele>
        <time>2020-09-12T19:05:08.000Z</time>
      </trkpt>
      <trkpt lat="45.26348" lon="1.76081">
        <ele>230</ele>
        <time>2020-09-12T19:05:09.000Z</time>
      </trkpt>
      <trkpt lat="45.26346" lon="1.76076">
        <ele>230</ele>
        <time>2020-09-12T19:05:10.000Z</time>
      </trkpt>
      <trkpt lat="45.26344" lon="1.7607">
        <ele>230</ele>
        <time>2020-09-12T19:05:11.000Z</time>
      </trkpt>
      <trkpt lat="45.26342" lon="1.76065">
        <ele>229</ele>
        <time>2020-09-12T19:05:12.000Z</time>
      </trkpt>
      <trkpt lat="45.2634" lon="1.76059">
        <ele>228</ele>
        <time>2020-09-12T19:05:13.000Z</time>
      </trkpt>
      <trkpt lat="45.26339" lon="1.76054">
        <ele>228</ele>
        <time>2020-09-12T19:05:14.000Z</time>
      </trkpt>
      <trkpt lat="45.26337" lon="1.76049">
        <ele>229</ele>
        <time>2020-09-12T19:05:15.000Z</time>
      </trkpt>
      <trkpt lat="45.26334" lon="1.76044">
        <ele>229</ele>
        <time>2020-09-12T19:05:16.000Z</time>
      </trkpt>
      <trkpt lat="45.26332" lon="1.76039">
        <ele>229</ele>
        <time>2020-09-12T19:05:17.000Z</time>
      </trkpt>
      <trkpt lat="45.26329" lon="1.76034">
        <ele>227</ele>
        <time>2020-09-12T19:05:18.000Z</time>
      </trkpt>
      <trkpt lat="45.26326" lon="1.76031">
        <ele>225</ele>
        <time>2020-09-12T19:05:19.000Z</time>
      </trkpt>
      <trkpt lat="45.26322" lon="1.76027">
        <ele>224</ele>
        <time>2020-09-12T19:05:20.000Z</time>
      </trkpt>
      <trkpt lat="45.26319" lon="1.76023">
        <ele>223</ele>
        <time>2020-09-12T19:05:21.000Z</time>
      </trkpt>
      <trkpt lat="45.26316" lon="1.76018">
        <ele>224</ele>
        <time>2020-09-12T19:05:22.000Z</time>
      </trkpt>
      <trkpt lat="45.26316" lon="1.76018">
        <ele>219</ele>
        <time>2020-09-12T19:05:24.000Z</time>
      </trkpt>
      <trkpt lat="45.26316" lon="1.76018">
        <ele>219</ele>
        <time>2020-09-12T19:05:25.000Z</time>
      </trkpt>
      <trkpt lat="45.2631" lon="1.7601">
        <ele>219</ele>
        <time>2020-09-12T19:05:26.000Z</time>
      </trkpt>
      <trkpt lat="45.26303" lon="1.76001">
        <ele>218</ele>
        <time>2020-09-12T19:05:27.000Z</time>
      </trkpt>
      <trkpt lat="45.26296" lon="1.75992">
        <ele>215</ele>
        <time>2020-09-12T19:05:28.000Z</time>
      </trkpt>
      <trkpt lat="45.26292" lon="1.7599">
        <ele>213</ele>
        <time>2020-09-12T19:05:29.000Z</time>
      </trkpt>
      <trkpt lat="45.26288" lon="1.75987">
        <ele>212</ele>
        <time>2020-09-12T19:05:30.000Z</time>
      </trkpt>
      <trkpt lat="45.26284" lon="1.75985">
        <ele>213</ele>
        <time>2020-09-12T19:05:31.000Z</time>
      </trkpt>
      <trkpt lat="45.26279" lon="1.75983">
        <ele>211</ele>
        <time>2020-09-12T19:05:32.000Z</time>
      </trkpt>
      <trkpt lat="45.26274" lon="1.75981">
        <ele>211</ele>
        <time>2020-09-12T19:05:33.000Z</time>
      </trkpt>
      <trkpt lat="45.26269" lon="1.7598">
        <ele>210</ele>
        <time>2020-09-12T19:05:34.000Z</time>
      </trkpt>
      <trkpt lat="45.26264" lon="1.75978">
        <ele>208</ele>
        <time>2020-09-12T19:05:35.000Z</time>
      </trkpt>
      <trkpt lat="45.2626" lon="1.75976">
        <ele>207</ele>
        <time>2020-09-12T19:05:36.000Z</time>
      </trkpt>
      <trkpt lat="45.26256" lon="1.75973">
        <ele>208</ele>
        <time>2020-09-12T19:05:37.000Z</time>
      </trkpt>
      <trkpt lat="45.26252" lon="1.75971">
        <ele>207</ele>
        <time>2020-09-12T19:05:38.000Z</time>
      </trkpt>
      <trkpt lat="45.26247" lon="1.75969">
        <ele>207</ele>
        <time>2020-09-12T19:05:39.000Z</time>
      </trkpt>
      <trkpt lat="45.26243" lon="1.75966">
        <ele>208</ele>
        <time>2020-09-12T19:05:40.000Z</time>
      </trkpt>
      <trkpt lat="45.26239" lon="1.75962">
        <ele>209</ele>
        <time>2020-09-12T19:05:41.000Z</time>
      </trkpt>
      <trkpt lat="45.26235" lon="1.7596">
        <ele>210</ele>
        <time>2020-09-12T19:05:42.000Z</time>
      </trkpt>
      <trkpt lat="45.26231" lon="1.75958">
        <ele>210</ele>
        <time>2020-09-12T19:05:43.000Z</time>
      </trkpt>
      <trkpt lat="45.26227" lon="1.75955">
        <ele>211</ele>
        <time>2020-09-12T19:05:44.000Z</time>
      </trkpt>
      <trkpt lat="45.26223" lon="1.75951">
        <ele>211</ele>
        <time>2020-09-12T19:05:45.000Z</time>
      </trkpt>
      <trkpt lat="45.26219" lon="1.75947">
        <ele>211</ele>
        <time>2020-09-12T19:05:46.000Z</time>
      </trkpt>
      <trkpt lat="45.26215" lon="1.75944">
        <ele>212</ele>
        <time>2020-09-12T19:05:47.000Z</time>
      </trkpt>
      <trkpt lat="45.26211" lon="1.75941">
        <ele>213</ele>
        <time>2020-09-12T19:05:48.000Z</time>
      </trkpt>
      <trkpt lat="45.26207" lon="1.75937">
        <ele>214</ele>
        <time>2020-09-12T19:05:49.000Z</time>
      </trkpt>
      <trkpt lat="45.26203" lon="1.75933">
        <ele>215</ele>
        <time>2020-09-12T19:05:50.000Z</time>
      </trkpt>
      <trkpt lat="45.262" lon="1.75928">
        <ele>215</ele>
        <time>2020-09-12T19:05:51.000Z</time>
      </trkpt>
      <trkpt lat="45.26197" lon="1.75924">
        <ele>215</ele>
        <time>2020-09-12T19:05:52.000Z</time>
      </trkpt>
      <trkpt lat="45.26194" lon="1.7592">
        <ele>214</ele>
        <time>2020-09-12T19:05:53.000Z</time>
      </trkpt>
      <trkpt lat="45.2619" lon="1.75917">
        <ele>214</ele>
        <time>2020-09-12T19:05:54.000Z</time>
      </trkpt>
      <trkpt lat="45.26187" lon="1.75914">
        <ele>213</ele>
        <time>2020-09-12T19:05:55.000Z</time>
      </trkpt>
      <trkpt lat="45.26184" lon="1.7591">
        <ele>213</ele>
        <time>2020-09-12T19:05:56.000Z</time>
      </trkpt>
      <trkpt lat="45.26181" lon="1.75906">
        <ele>213</ele>
        <time>2020-09-12T19:05:57.000Z</time>
      </trkpt>
      <trkpt lat="45.26178" lon="1.75901">
        <ele>212</ele>
        <time>2020-09-12T19:05:58.000Z</time>
      </trkpt>
      <trkpt lat="45.26176" lon="1.75896">
        <ele>214</ele>
        <time>2020-09-12T19:05:59.000Z</time>
      </trkpt>
      <trkpt lat="45.26173" lon="1.75891">
        <ele>215</ele>
        <time>2020-09-12T19:06:00.000Z</time>
      </trkpt>
      <trkpt lat="45.2617" lon="1.75887">
        <ele>215</ele>
        <time>2020-09-12T19:06:01.000Z</time>
      </trkpt>
      <trkpt lat="45.26167" lon="1.75882">
        <ele>216</ele>
        <time>2020-09-12T19:06:02.000Z</time>
      </trkpt>
      <trkpt lat="45.26164" lon="1.75878">
        <ele>215</ele>
        <time>2020-09-12T19:06:03.000Z</time>
      </trkpt>
      <trkpt lat="45.26162" lon="1.75873">
        <ele>214</ele>
        <time>2020-09-12T19:06:04.000Z</time>
      </trkpt>
      <trkpt lat="45.26159" lon="1.75868">
        <ele>215</ele>
        <time>2020-09-12T19:06:05.000Z</time>
      </trkpt>
      <trkpt lat="45.26156" lon="1.75864">
        <ele>216</ele>
        <time>2020-09-12T19:06:06.000Z</time>
      </trkpt>
      <trkpt lat="45.26154" lon="1.7586">
        <ele>218</ele>
        <time>2020-09-12T19:06:07.000Z</time>
      </trkpt>
      <trkpt lat="45.26152" lon="1.75855">
        <ele>219</ele>
        <time>2020-09-12T19:06:08.000Z</time>
      </trkpt>
      <trkpt lat="45.26149" lon="1.7585">
        <ele>219</ele>
        <time>2020-09-12T19:06:09.000Z</time>
      </trkpt>
      <trkpt lat="45.26146" lon="1.75844">
        <ele>219</ele>
        <time>2020-09-12T19:06:10.000Z</time>
      </trkpt>
      <trkpt lat="45.26144" lon="1.75839">
        <ele>218</ele>
        <time>2020-09-12T19:06:11.000Z</time>
      </trkpt>
      <trkpt lat="45.26142" lon="1.75834">
        <ele>220</ele>
        <time>2020-09-12T19:06:12.000Z</time>
      </trkpt>
      <trkpt lat="45.26141" lon="1.75829">
        <ele>222</ele>
        <time>2020-09-12T19:06:13.000Z</time>
      </trkpt>
      <trkpt lat="45.26139" lon="1.75825">
        <ele>223</ele>
        <time>2020-09-12T19:06:14.000Z</time>
      </trkpt>
      <trkpt lat="45.26138" lon="1.7582">
        <ele>224</ele>
        <time>2020-09-12T19:06:15.000Z</time>
      </trkpt>
      <trkpt lat="45.26136" lon="1.75816">
        <ele>223</ele>
        <time>2020-09-12T19:06:16.000Z</time>
      </trkpt>
      <trkpt lat="45.26133" lon="1.75811">
        <ele>222</ele>
        <time>2020-09-12T19:06:17.000Z</time>
      </trkpt>
      <trkpt lat="45.2613" lon="1.75807">
        <ele>224</ele>
        <time>2020-09-12T19:06:18.000Z</time>
      </trkpt>
      <trkpt lat="45.26128" lon="1.75802">
        <ele>225</ele>
        <time>2020-09-12T19:06:19.000Z</time>
      </trkpt>
      <trkpt lat="45.26125" lon="1.75798">
        <ele>224</ele>
        <time>2020-09-12T19:06:20.000Z</time>
      </trkpt>
      <trkpt lat="45.26122" lon="1.75795">
        <ele>221</ele>
        <time>2020-09-12T19:06:21.000Z</time>
      </trkpt>
      <trkpt lat="45.26118" lon="1.75792">
        <ele>221</ele>
        <time>2020-09-12T19:06:22.000Z</time>
      </trkpt>
      <trkpt lat="45.26112" lon="1.75791">
        <ele>220</ele>
        <time>2020-09-12T19:06:23.000Z</time>
      </trkpt>
      <trkpt lat="45.26107" lon="1.7579">
        <ele>220</ele>
        <time>2020-09-12T19:06:24.000Z</time>
      </trkpt>
      <trkpt lat="45.26102" lon="1.7579">
        <ele>219</ele>
        <time>2020-09-12T19:06:25.000Z</time>
      </trkpt>
      <trkpt lat="45.26098" lon="1.7579">
        <ele>219</ele>
        <time>2020-09-12T19:06:26.000Z</time>
      </trkpt>
      <trkpt lat="45.26093" lon="1.75789">
        <ele>220</ele>
        <time>2020-09-12T19:06:27.000Z</time>
      </trkpt>
      <trkpt lat="45.26089" lon="1.75789">
        <ele>219</ele>
        <time>2020-09-12T19:06:28.000Z</time>
      </trkpt>
      <trkpt lat="45.26086" lon="1.75788">
        <ele>219</ele>
        <time>2020-09-12T19:06:29.000Z</time>
      </trkpt>
      <trkpt lat="45.26082" lon="1.75789">
        <ele>220</ele>
        <time>2020-09-12T19:06:30.000Z</time>
      </trkpt>
      <trkpt lat="45.26078" lon="1.7579">
        <ele>220</ele>
        <time>2020-09-12T19:06:31.000Z</time>
      </trkpt>
      <trkpt lat="45.26074" lon="1.75791">
        <ele>221</ele>
        <time>2020-09-12T19:06:32.000Z</time>
      </trkpt>
      <trkpt lat="45.2607" lon="1.75794">
        <ele>219</ele>
        <time>2020-09-12T19:06:33.000Z</time>
      </trkpt>
      <trkpt lat="45.26068" lon="1.758">
        <ele>216</ele>
        <time>2020-09-12T19:06:34.000Z</time>
      </trkpt>
      <trkpt lat="45.26067" lon="1.75807">
        <ele>213</ele>
        <time>2020-09-12T19:06:35.000Z</time>
      </trkpt>
      <trkpt lat="45.26067" lon="1.75815">
        <ele>209</ele>
        <time>2020-09-12T19:06:36.000Z</time>
      </trkpt>
      <trkpt lat="45.26068" lon="1.75824">
        <ele>207</ele>
        <time>2020-09-12T19:06:37.000Z</time>
      </trkpt>
      <trkpt lat="45.26069" lon="1.75832">
        <ele>205</ele>
        <time>2020-09-12T19:06:38.000Z</time>
      </trkpt>
      <trkpt lat="45.2607" lon="1.75839">
        <ele>204</ele>
        <time>2020-09-12T19:06:39.000Z</time>
      </trkpt>
      <trkpt lat="45.2607" lon="1.75845">
        <ele>203</ele>
        <time>2020-09-12T19:06:40.000Z</time>
      </trkpt>
      <trkpt lat="45.26071" lon="1.75851">
        <ele>203</ele>
        <time>2020-09-12T19:06:41.000Z</time>
      </trkpt>
      <trkpt lat="45.26071" lon="1.75857">
        <ele>202</ele>
        <time>2020-09-12T19:06:42.000Z</time>
      </trkpt>
      <trkpt lat="45.26071" lon="1.75864">
        <ele>201</ele>
        <time>2020-09-12T19:06:43.000Z</time>
      </trkpt>
      <trkpt lat="45.26071" lon="1.75869">
        <ele>199</ele>
        <time>2020-09-12T19:06:44.000Z</time>
      </trkpt>
      <trkpt lat="45.26072" lon="1.75875">
        <ele>197</ele>
        <time>2020-09-12T19:06:45.000Z</time>
      </trkpt>
      <trkpt lat="45.26074" lon="1.75881">
        <ele>195</ele>
        <time>2020-09-12T19:06:46.000Z</time>
      </trkpt>
      <trkpt lat="45.26076" lon="1.75886">
        <ele>193</ele>
        <time>2020-09-12T19:06:47.000Z</time>
      </trkpt>
      <trkpt lat="45.26078" lon="1.75892">
        <ele>190</ele>
        <time>2020-09-12T19:06:48.000Z</time>
      </trkpt>
      <trkpt lat="45.2608" lon="1.75898">
        <ele>188</ele>
        <time>2020-09-12T19:06:49.000Z</time>
      </trkpt>
      <trkpt lat="45.26083" lon="1.75904">
        <ele>186</ele>
        <time>2020-09-12T19:06:50.000Z</time>
      </trkpt>
      <trkpt lat="45.26086" lon="1.75909">
        <ele>186</ele>
        <time>2020-09-12T19:06:51.000Z</time>
      </trkpt>
      <trkpt lat="45.26088" lon="1.75914">
        <ele>185</ele>
        <time>2020-09-12T19:06:52.000Z</time>
      </trkpt>
      <trkpt lat="45.2609" lon="1.75919">
        <ele>183</ele>
        <time>2020-09-12T19:06:53.000Z</time>
      </trkpt>
      <trkpt lat="45.26092" lon="1.75925">
        <ele>182</ele>
        <time>2020-09-12T19:06:54.000Z</time>
      </trkpt>
      <trkpt lat="45.26093" lon="1.7593">
        <ele>181</ele>
        <time>2020-09-12T19:06:55.000Z</time>
      </trkpt>
      <trkpt lat="45.26096" lon="1.75935">
        <ele>181</ele>
        <time>2020-09-12T19:06:56.000Z</time>
      </trkpt>
      <trkpt lat="45.26098" lon="1.7594">
        <ele>181</ele>
        <time>2020-09-12T19:06:57.000Z</time>
      </trkpt>
      <trkpt lat="45.26101" lon="1.75945">
        <ele>178</ele>
        <time>2020-09-12T19:06:58.000Z</time>
      </trkpt>
      <trkpt lat="45.26104" lon="1.75949">
        <ele>180</ele>
        <time>2020-09-12T19:06:59.000Z</time>
      </trkpt>
      <trkpt lat="45.26107" lon="1.75954">
        <ele>181</ele>
        <time>2020-09-12T19:07:00.000Z</time>
      </trkpt>
      <trkpt lat="45.2611" lon="1.7596">
        <ele>182</ele>
        <time>2020-09-12T19:07:01.000Z</time>
      </trkpt>
      <trkpt lat="45.26113" lon="1.75965">
        <ele>181</ele>
        <time>2020-09-12T19:07:02.000Z</time>
      </trkpt>
      <trkpt lat="45.26116" lon="1.75969">
        <ele>181</ele>
        <time>2020-09-12T19:07:03.000Z</time>
      </trkpt>
      <trkpt lat="45.2612" lon="1.75973">
        <ele>183</ele>
        <time>2020-09-12T19:07:04.000Z</time>
      </trkpt>
      <trkpt lat="45.26122" lon="1.75977">
        <ele>185</ele>
        <time>2020-09-12T19:07:05.000Z</time>
      </trkpt>
      <trkpt lat="45.26125" lon="1.75981">
        <ele>185</ele>
        <time>2020-09-12T19:07:06.000Z</time>
      </trkpt>
      <trkpt lat="45.26128" lon="1.75986">
        <ele>186</ele>
        <time>2020-09-12T19:07:07.000Z</time>
      </trkpt>
      <trkpt lat="45.26131" lon="1.75991">
        <ele>186</ele>
        <time>2020-09-12T19:07:08.000Z</time>
      </trkpt>
      <trkpt lat="45.26134" lon="1.75995">
        <ele>188</ele>
        <time>2020-09-12T19:07:09.000Z</time>
      </trkpt>
      <trkpt lat="45.26137" lon="1.76">
        <ele>190</ele>
        <time>2020-09-12T19:07:10.000Z</time>
      </trkpt>
      <trkpt lat="45.26141" lon="1.76004">
        <ele>190</ele>
        <time>2020-09-12T19:07:11.000Z</time>
      </trkpt>
      <trkpt lat="45.26144" lon="1.76008">
        <ele>191</ele>
        <time>2020-09-12T19:07:12.000Z</time>
      </trkpt>
      <trkpt lat="45.26147" lon="1.76011">
        <ele>192</ele>
        <time>2020-09-12T19:07:13.000Z</time>
      </trkpt>
      <trkpt lat="45.26151" lon="1.76015">
        <ele>193</ele>
        <time>2020-09-12T19:07:14.000Z</time>
      </trkpt>
      <trkpt lat="45.26154" lon="1.76018">
        <ele>194</ele>
        <time>2020-09-12T19:07:15.000Z</time>
      </trkpt>
      <trkpt lat="45.26158" lon="1.76021">
        <ele>194</ele>
        <time>2020-09-12T19:07:16.000Z</time>
      </trkpt>
      <trkpt lat="45.26162" lon="1.76025">
        <ele>194</ele>
        <time>2020-09-12T19:07:17.000Z</time>
      </trkpt>
      <trkpt lat="45.26166" lon="1.76029">
        <ele>193</ele>
        <time>2020-09-12T19:07:18.000Z</time>
      </trkpt>
      <trkpt lat="45.2617" lon="1.76032">
        <ele>194</ele>
        <time>2020-09-12T19:07:19.000Z</time>
      </trkpt>
      <trkpt lat="45.26174" lon="1.76036">
        <ele>193</ele>
        <time>2020-09-12T19:07:20.000Z</time>
      </trkpt>
      <trkpt lat="45.26177" lon="1.76039">
        <ele>193</ele>
        <time>2020-09-12T19:07:21.000Z</time>
      </trkpt>
      <trkpt lat="45.2618" lon="1.76042">
        <ele>194</ele>
        <time>2020-09-12T19:07:22.000Z</time>
      </trkpt>
      <trkpt lat="45.26184" lon="1.76046">
        <ele>195</ele>
        <time>2020-09-12T19:07:23.000Z</time>
      </trkpt>
      <trkpt lat="45.26187" lon="1.76049">
        <ele>195</ele>
        <time>2020-09-12T19:07:24.000Z</time>
      </trkpt>
      <trkpt lat="45.26191" lon="1.76053">
        <ele>196</ele>
        <time>2020-09-12T19:07:25.000Z</time>
      </trkpt>
      <trkpt lat="45.26195" lon="1.76056">
        <ele>196</ele>
        <time>2020-09-12T19:07:26.000Z</time>
      </trkpt>
      <trkpt lat="45.26198" lon="1.76059">
        <ele>197</ele>
        <time>2020-09-12T19:07:27.000Z</time>
      </trkpt>
      <trkpt lat="45.26202" lon="1.76063">
        <ele>198</ele>
        <time>2020-09-12T19:07:28.000Z</time>
      </trkpt>
      <trkpt lat="45.26205" lon="1.76066">
        <ele>199</ele>
        <time>2020-09-12T19:07:29.000Z</time>
      </trkpt>
      <trkpt lat="45.26208" lon="1.7607">
        <ele>199</ele>
        <time>2020-09-12T19:07:30.000Z</time>
      </trkpt>
      <trkpt lat="45.26211" lon="1.76074">
        <ele>199</ele>
        <time>2020-09-12T19:07:31.000Z</time>
      </trkpt>
      <trkpt lat="45.26214" lon="1.76078">
        <ele>198</ele>
        <time>2020-09-12T19:07:32.000Z</time>
      </trkpt>
      <trkpt lat="45.26217" lon="1.76082">
        <ele>197</ele>
        <time>2020-09-12T19:07:33.000Z</time>
      </trkpt>
      <trkpt lat="45.2622" lon="1.76086">
        <ele>196</ele>
        <time>2020-09-12T19:07:34.000Z</time>
      </trkpt>
      <trkpt lat="45.26223" lon="1.76091">
        <ele>195</ele>
        <time>2020-09-12T19:07:35.000Z</time>
      </trkpt>
      <trkpt lat="45.26226" lon="1.76095">
        <ele>193</ele>
        <time>2020-09-12T19:07:36.000Z</time>
      </trkpt>
      <trkpt lat="45.26229" lon="1.761">
        <ele>191</ele>
        <time>2020-09-12T19:07:37.000Z</time>
      </trkpt>
      <trkpt lat="45.26232" lon="1.76105">
        <ele>190</ele>
        <time>2020-09-12T19:07:38.000Z</time>
      </trkpt>
      <trkpt lat="45.26235" lon="1.7611">
        <ele>188</ele>
        <time>2020-09-12T19:07:39.000Z</time>
      </trkpt>
      <trkpt lat="45.26238" lon="1.76115">
        <ele>186</ele>
        <time>2020-09-12T19:07:40.000Z</time>
      </trkpt>
      <trkpt lat="45.2624" lon="1.7612">
        <ele>184</ele>
        <time>2020-09-12T19:07:41.000Z</time>
      </trkpt>
      <trkpt lat="45.26243" lon="1.76126">
        <ele>182</ele>
        <time>2020-09-12T19:07:42.000Z</time>
      </trkpt>
      <trkpt lat="45.26245" lon="1.76132">
        <ele>182</ele>
        <time>2020-09-12T19:07:43.000Z</time>
      </trkpt>
      <trkpt lat="45.26248" lon="1.76137">
        <ele>183</ele>
        <time>2020-09-12T19:07:44.000Z</time>
      </trkpt>
      <trkpt lat="45.26251" lon="1.76143">
        <ele>184</ele>
        <time>2020-09-12T19:07:45.000Z</time>
      </trkpt>
      <trkpt lat="45.26254" lon="1.76148">
        <ele>185</ele>
        <time>2020-09-12T19:07:46.000Z</time>
      </trkpt>
      <trkpt lat="45.26257" lon="1.76154">
        <ele>186</ele>
        <time>2020-09-12T19:07:47.000Z</time>
      </trkpt>
      <trkpt lat="45.2626" lon="1.76159">
        <ele>187</ele>
        <time>2020-09-12T19:07:48.000Z</time>
      </trkpt>
      <trkpt lat="45.26263" lon="1.76164">
        <ele>186</ele>
        <time>2020-09-12T19:07:49.000Z</time>
      </trkpt>
      <trkpt lat="45.26265" lon="1.76169">
        <ele>186</ele>
        <time>2020-09-12T19:07:50.000Z</time>
      </trkpt>
      <trkpt lat="45.26267" lon="1.76175">
        <ele>185</ele>
        <time>2020-09-12T19:07:51.000Z</time>
      </trkpt>
      <trkpt lat="45.26268" lon="1.76181">
        <ele>186</ele>
        <time>2020-09-12T19:07:52.000Z</time>
      </trkpt>
      <trkpt lat="45.2627" lon="1.76188">
        <ele>186</ele>
        <time>2020-09-12T19:07:53.000Z</time>
      </trkpt>
      <trkpt lat="45.26272" lon="1.76193">
        <ele>186</ele>
        <time>2020-09-12T19:07:54.000Z</time>
      </trkpt>
      <trkpt lat="45.26275" lon="1.76199">
        <ele>187</ele>
        <time>2020-09-12T19:07:55.000Z</time>
      </trkpt>
      <trkpt lat="45.26277" lon="1.76204">
        <ele>187</ele>
        <time>2020-09-12T19:07:56.000Z</time>
      </trkpt>
      <trkpt lat="45.26279" lon="1.76209">
        <ele>186</ele>
        <time>2020-09-12T19:07:57.000Z</time>
      </trkpt>
      <trkpt lat="45.26281" lon="1.76214">
        <ele>183</ele>
        <time>2020-09-12T19:07:58.000Z</time>
      </trkpt>
      <trkpt lat="45.26283" lon="1.76219">
        <ele>183</ele>
        <time>2020-09-12T19:07:59.000Z</time>
      </trkpt>
      <trkpt lat="45.26284" lon="1.76224">
        <ele>181</ele>
        <time>2020-09-12T19:08:00.000Z</time>
      </trkpt>
      <trkpt lat="45.26286" lon="1.7623">
        <ele>182</ele>
        <time>2020-09-12T19:08:01.000Z</time>
      </trkpt>
      <trkpt lat="45.26288" lon="1.76236">
        <ele>181</ele>
        <time>2020-09-12T19:08:02.000Z</time>
      </trkpt>
      <trkpt lat="45.2629" lon="1.76241">
        <ele>182</ele>
        <time>2020-09-12T19:08:03.000Z</time>
      </trkpt>
      <trkpt lat="45.26293" lon="1.76247">
        <ele>181</ele>
        <time>2020-09-12T19:08:04.000Z</time>
      </trkpt>
      <trkpt lat="45.26295" lon="1.76253">
        <ele>181</ele>
        <time>2020-09-12T19:08:05.000Z</time>
      </trkpt>
      <trkpt lat="45.26298" lon="1.76258">
        <ele>181</ele>
        <time>2020-09-12T19:08:06.000Z</time>
      </trkpt>
      <trkpt lat="45.263" lon="1.76264">
        <ele>182</ele>
        <time>2020-09-12T19:08:07.000Z</time>
      </trkpt>
      <trkpt lat="45.26303" lon="1.7627">
        <ele>184</ele>
        <time>2020-09-12T19:08:08.000Z</time>
      </trkpt>
      <trkpt lat="45.26304" lon="1.76276">
        <ele>184</ele>
        <time>2020-09-12T19:08:09.000Z</time>
      </trkpt>
      <trkpt lat="45.26306" lon="1.76282">
        <ele>184</ele>
        <time>2020-09-12T19:08:10.000Z</time>
      </trkpt>
      <trkpt lat="45.26308" lon="1.76288">
        <ele>184</ele>
        <time>2020-09-12T19:08:11.000Z</time>
      </trkpt>
      <trkpt lat="45.2631" lon="1.76294">
        <ele>186</ele>
        <time>2020-09-12T19:08:12.000Z</time>
      </trkpt>
      <trkpt lat="45.26312" lon="1.763">
        <ele>186</ele>
        <time>2020-09-12T19:08:13.000Z</time>
      </trkpt>
      <trkpt lat="45.26315" lon="1.76305">
        <ele>187</ele>
        <time>2020-09-12T19:08:14.000Z</time>
      </trkpt>
      <trkpt lat="45.26318" lon="1.76311">
        <ele>187</ele>
        <time>2020-09-12T19:08:15.000Z</time>
      </trkpt>
      <trkpt lat="45.26321" lon="1.76317">
        <ele>188</ele>
        <time>2020-09-12T19:08:16.000Z</time>
      </trkpt>
      <trkpt lat="45.26323" lon="1.76323">
        <ele>188</ele>
        <time>2020-09-12T19:08:17.000Z</time>
      </trkpt>
      <trkpt lat="45.26325" lon="1.7633">
        <ele>189</ele>
        <time>2020-09-12T19:08:18.000Z</time>
      </trkpt>
      <trkpt lat="45.26326" lon="1.76336">
        <ele>187</ele>
        <time>2020-09-12T19:08:19.000Z</time>
      </trkpt>
      <trkpt lat="45.26326" lon="1.76342">
        <ele>185</ele>
        <time>2020-09-12T19:08:20.000Z</time>
      </trkpt>
      <trkpt lat="45.26327" lon="1.76348">
        <ele>185</ele>
        <time>2020-09-12T19:08:21.000Z</time>
      </trkpt>
      <trkpt lat="45.26328" lon="1.76354">
        <ele>185</ele>
        <time>2020-09-12T19:08:22.000Z</time>
      </trkpt>
      <trkpt lat="45.2633" lon="1.7636">
        <ele>186</ele>
        <time>2020-09-12T19:08:23.000Z</time>
      </trkpt>
      <trkpt lat="45.26333" lon="1.76366">
        <ele>188</ele>
        <time>2020-09-12T19:08:24.000Z</time>
      </trkpt>
      <trkpt lat="45.26335" lon="1.76372">
        <ele>190</ele>
        <time>2020-09-12T19:08:25.000Z</time>
      </trkpt>
      <trkpt lat="45.26337" lon="1.76378">
        <ele>191</ele>
        <time>2020-09-12T19:08:26.000Z</time>
      </trkpt>
      <trkpt lat="45.26339" lon="1.76384">
        <ele>192</ele>
        <time>2020-09-12T19:08:27.000Z</time>
      </trkpt>
      <trkpt lat="45.2634" lon="1.7639">
        <ele>192</ele>
        <time>2020-09-12T19:08:28.000Z</time>
      </trkpt>
      <trkpt lat="45.26342" lon="1.76396">
        <ele>194</ele>
        <time>2020-09-12T19:08:29.000Z</time>
      </trkpt>
      <trkpt lat="45.26344" lon="1.76402">
        <ele>194</ele>
        <time>2020-09-12T19:08:30.000Z</time>
      </trkpt>
      <trkpt lat="45.26345" lon="1.76408">
        <ele>196</ele>
        <time>2020-09-12T19:08:31.000Z</time>
      </trkpt>
      <trkpt lat="45.26347" lon="1.76414">
        <ele>197</ele>
        <time>2020-09-12T19:08:32.000Z</time>
      </trkpt>
      <trkpt lat="45.26348" lon="1.7642">
        <ele>197</ele>
        <time>2020-09-12T19:08:33.000Z</time>
      </trkpt>
      <trkpt lat="45.2635" lon="1.76426">
        <ele>198</ele>
        <time>2020-09-12T19:08:34.000Z</time>
      </trkpt>
      <trkpt lat="45.26352" lon="1.76432">
        <ele>198</ele>
        <time>2020-09-12T19:08:35.000Z</time>
      </trkpt>
      <trkpt lat="45.26353" lon="1.76438">
        <ele>199</ele>
        <time>2020-09-12T19:08:36.000Z</time>
      </trkpt>
      <trkpt lat="45.26354" lon="1.76444">
        <ele>200</ele>
        <time>2020-09-12T19:08:37.000Z</time>
      </trkpt>
      <trkpt lat="45.26356" lon="1.7645">
        <ele>201</ele>
        <time>2020-09-12T19:08:38.000Z</time>
      </trkpt>
      <trkpt lat="45.26357" lon="1.76456">
        <ele>202</ele>
        <time>2020-09-12T19:08:39.000Z</time>
      </trkpt>
      <trkpt lat="45.26358" lon="1.76462">
        <ele>202</ele>
        <time>2020-09-12T19:08:40.000Z</time>
      </trkpt>
      <trkpt lat="45.26359" lon="1.76468">
        <ele>203</ele>
        <time>2020-09-12T19:08:41.000Z</time>
      </trkpt>
      <trkpt lat="45.26361" lon="1.76473">
        <ele>204</ele>
        <time>2020-09-12T19:08:42.000Z</time>
      </trkpt>
      <trkpt lat="45.26362" lon="1.7648">
        <ele>204</ele>
        <time>2020-09-12T19:08:43.000Z</time>
      </trkpt>
      <trkpt lat="45.26364" lon="1.76486">
        <ele>203</ele>
        <time>2020-09-12T19:08:44.000Z</time>
      </trkpt>
      <trkpt lat="45.26366" lon="1.76492">
        <ele>203</ele>
        <time>2020-09-12T19:08:45.000Z</time>
      </trkpt>
      <trkpt lat="45.26368" lon="1.76498">
        <ele>203</ele>
        <time>2020-09-12T19:08:46.000Z</time>
      </trkpt>
      <trkpt lat="45.2637" lon="1.76504">
        <ele>203</ele>
        <time>2020-09-12T19:08:47.000Z</time>
      </trkpt>
      <trkpt lat="45.26372" lon="1.7651">
        <ele>202</ele>
        <time>2020-09-12T19:08:48.000Z</time>
      </trkpt>
      <trkpt lat="45.26374" lon="1.76516">
        <ele>202</ele>
        <time>2020-09-12T19:08:49.000Z</time>
      </trkpt>
      <trkpt lat="45.26377" lon="1.76522">
        <ele>203</ele>
        <time>2020-09-12T19:08:50.000Z</time>
      </trkpt>
      <trkpt lat="45.26379" lon="1.76528">
        <ele>202</ele>
        <time>2020-09-12T19:08:51.000Z</time>
      </trkpt>
      <trkpt lat="45.26381" lon="1.76534">
        <ele>202</ele>
        <time>2020-09-12T19:08:52.000Z</time>
      </trkpt>
      <trkpt lat="45.26384" lon="1.76539">
        <ele>202</ele>
        <time>2020-09-12T19:08:53.000Z</time>
      </trkpt>
      <trkpt lat="45.26385" lon="1.76545">
        <ele>201</ele>
        <time>2020-09-12T19:08:54.000Z</time>
      </trkpt>
      <trkpt lat="45.26386" lon="1.76551">
        <ele>201</ele>
        <time>2020-09-12T19:08:55.000Z</time>
      </trkpt>
      <trkpt lat="45.26388" lon="1.76558">
        <ele>201</ele>
        <time>2020-09-12T19:08:56.000Z</time>
      </trkpt>
      <trkpt lat="45.26389" lon="1.76564">
        <ele>200</ele>
        <time>2020-09-12T19:08:57.000Z</time>
      </trkpt>
      <trkpt lat="45.2639" lon="1.7657">
        <ele>199</ele>
        <time>2020-09-12T19:08:58.000Z</time>
      </trkpt>
      <trkpt lat="45.26391" lon="1.76576">
        <ele>199</ele>
        <time>2020-09-12T19:08:59.000Z</time>
      </trkpt>
      <trkpt lat="45.26392" lon="1.76582">
        <ele>200</ele>
        <time>2020-09-12T19:09:00.000Z</time>
      </trkpt>
      <trkpt lat="45.26392" lon="1.76588">
        <ele>199</ele>
        <time>2020-09-12T19:09:01.000Z</time>
      </trkpt>
      <trkpt lat="45.26393" lon="1.76594">
        <ele>200</ele>
        <time>2020-09-12T19:09:02.000Z</time>
      </trkpt>
      <trkpt lat="45.26393" lon="1.766">
        <ele>202</ele>
        <time>2020-09-12T19:09:03.000Z</time>
      </trkpt>
      <trkpt lat="45.26392" lon="1.76606">
        <ele>202</ele>
        <time>2020-09-12T19:09:04.000Z</time>
      </trkpt>
      <trkpt lat="45.26392" lon="1.76612">
        <ele>202</ele>
        <time>2020-09-12T19:09:05.000Z</time>
      </trkpt>
      <trkpt lat="45.26391" lon="1.76617">
        <ele>203</ele>
        <time>2020-09-12T19:09:06.000Z</time>
      </trkpt>
      <trkpt lat="45.2639" lon="1.76623">
        <ele>204</ele>
        <time>2020-09-12T19:09:07.000Z</time>
      </trkpt>
      <trkpt lat="45.26389" lon="1.76629">
        <ele>205</ele>
        <time>2020-09-12T19:09:08.000Z</time>
      </trkpt>
      <trkpt lat="45.26386" lon="1.76635">
        <ele>206</ele>
        <time>2020-09-12T19:09:09.000Z</time>
      </trkpt>
      <trkpt lat="45.26384" lon="1.76641">
        <ele>207</ele>
        <time>2020-09-12T19:09:10.000Z</time>
      </trkpt>
      <trkpt lat="45.26382" lon="1.76647">
        <ele>208</ele>
        <time>2020-09-12T19:09:11.000Z</time>
      </trkpt>
      <trkpt lat="45.2638" lon="1.76653">
        <ele>209</ele>
        <time>2020-09-12T19:09:12.000Z</time>
      </trkpt>
      <trkpt lat="45.26378" lon="1.76658">
        <ele>209</ele>
        <time>2020-09-12T19:09:13.000Z</time>
      </trkpt>
      <trkpt lat="45.26376" lon="1.76663">
        <ele>209</ele>
        <time>2020-09-12T19:09:14.000Z</time>
      </trkpt>
      <trkpt lat="45.26374" lon="1.76669">
        <ele>209</ele>
        <time>2020-09-12T19:09:15.000Z</time>
      </trkpt>
      <trkpt lat="45.26371" lon="1.76674">
        <ele>209</ele>
        <time>2020-09-12T19:09:16.000Z</time>
      </trkpt>
      <trkpt lat="45.26369" lon="1.7668">
        <ele>209</ele>
        <time>2020-09-12T19:09:17.000Z</time>
      </trkpt>
      <trkpt lat="45.26366" lon="1.76686">
        <ele>209</ele>
        <time>2020-09-12T19:09:18.000Z</time>
      </trkpt>
      <trkpt lat="45.26363" lon="1.76691">
        <ele>209</ele>
        <time>2020-09-12T19:09:19.000Z</time>
      </trkpt>
      <trkpt lat="45.2636" lon="1.76697">
        <ele>211</ele>
        <time>2020-09-12T19:09:20.000Z</time>
      </trkpt>
      <trkpt lat="45.26358" lon="1.76703">
        <ele>212</ele>
        <time>2020-09-12T19:09:21.000Z</time>
      </trkpt>
      <trkpt lat="45.26356" lon="1.76709">
        <ele>213</ele>
        <time>2020-09-12T19:09:22.000Z</time>
      </trkpt>
      <trkpt lat="45.26354" lon="1.76716">
        <ele>215</ele>
        <time>2020-09-12T19:09:23.000Z</time>
      </trkpt>
      <trkpt lat="45.26352" lon="1.76722">
        <ele>214</ele>
        <time>2020-09-12T19:09:24.000Z</time>
      </trkpt>
      <trkpt lat="45.2635" lon="1.76728">
        <ele>215</ele>
        <time>2020-09-12T19:09:25.000Z</time>
      </trkpt>
      <trkpt lat="45.26348" lon="1.76735">
        <ele>215</ele>
        <time>2020-09-12T19:09:26.000Z</time>
      </trkpt>
      <trkpt lat="45.26346" lon="1.76741">
        <ele>215</ele>
        <time>2020-09-12T19:09:27.000Z</time>
      </trkpt>
      <trkpt lat="45.26345" lon="1.76748">
        <ele>215</ele>
        <time>2020-09-12T19:09:28.000Z</time>
      </trkpt>
      <trkpt lat="45.26344" lon="1.76754">
        <ele>214</ele>
        <time>2020-09-12T19:09:29.000Z</time>
      </trkpt>
      <trkpt lat="45.26342" lon="1.7676">
        <ele>214</ele>
        <time>2020-09-12T19:09:30.000Z</time>
      </trkpt>
      <trkpt lat="45.26341" lon="1.76766">
        <ele>213</ele>
        <time>2020-09-12T19:09:31.000Z</time>
      </trkpt>
      <trkpt lat="45.2634" lon="1.76772">
        <ele>212</ele>
        <time>2020-09-12T19:09:32.000Z</time>
      </trkpt>
      <trkpt lat="45.26339" lon="1.76779">
        <ele>212</ele>
        <time>2020-09-12T19:09:33.000Z</time>
      </trkpt>
      <trkpt lat="45.26339" lon="1.76785">
        <ele>211</ele>
        <time>2020-09-12T19:09:34.000Z</time>
      </trkpt>
      <trkpt lat="45.26338" lon="1.76791">
        <ele>209</ele>
        <time>2020-09-12T19:09:35.000Z</time>
      </trkpt>
      <trkpt lat="45.26338" lon="1.76797">
        <ele>209</ele>
        <time>2020-09-12T19:09:36.000Z</time>
      </trkpt>
      <trkpt lat="45.26337" lon="1.76804">
        <ele>208</ele>
        <time>2020-09-12T19:09:37.000Z</time>
      </trkpt>
      <trkpt lat="45.26337" lon="1.76809">
        <ele>205</ele>
        <time>2020-09-12T19:09:38.000Z</time>
      </trkpt>
      <trkpt lat="45.26337" lon="1.76815">
        <ele>205</ele>
        <time>2020-09-12T19:09:39.000Z</time>
      </trkpt>
      <trkpt lat="45.26337" lon="1.76821">
        <ele>204</ele>
        <time>2020-09-12T19:09:40.000Z</time>
      </trkpt>
      <trkpt lat="45.26337" lon="1.76827">
        <ele>204</ele>
        <time>2020-09-12T19:09:41.000Z</time>
      </trkpt>
      <trkpt lat="45.26336" lon="1.76833">
        <ele>203</ele>
        <time>2020-09-12T19:09:42.000Z</time>
      </trkpt>
      <trkpt lat="45.26336" lon="1.76839">
        <ele>203</ele>
        <time>2020-09-12T19:09:43.000Z</time>
      </trkpt>
      <trkpt lat="45.26336" lon="1.76845">
        <ele>202</ele>
        <time>2020-09-12T19:09:44.000Z</time>
      </trkpt>
      <trkpt lat="45.26336" lon="1.76852">
        <ele>202</ele>
        <time>2020-09-12T19:09:45.000Z</time>
      </trkpt>
      <trkpt lat="45.26337" lon="1.76857">
        <ele>201</ele>
        <time>2020-09-12T19:09:46.000Z</time>
      </trkpt>
      <trkpt lat="45.26338" lon="1.76863">
        <ele>200</ele>
        <time>2020-09-12T19:09:47.000Z</time>
      </trkpt>
      <trkpt lat="45.26339" lon="1.76869">
        <ele>198</ele>
        <time>2020-09-12T19:09:48.000Z</time>
      </trkpt>
      <trkpt lat="45.2634" lon="1.76875">
        <ele>197</ele>
        <time>2020-09-12T19:09:49.000Z</time>
      </trkpt>
      <trkpt lat="45.26342" lon="1.7688">
        <ele>198</ele>
        <time>2020-09-12T19:09:50.000Z</time>
      </trkpt>
      <trkpt lat="45.26343" lon="1.76885">
        <ele>198</ele>
        <time>2020-09-12T19:09:51.000Z</time>
      </trkpt>
      <trkpt lat="45.26344" lon="1.7689">
        <ele>198</ele>
        <time>2020-09-12T19:09:52.000Z</time>
      </trkpt>
      <trkpt lat="45.26346" lon="1.76895">
        <ele>198</ele>
        <time>2020-09-12T19:09:53.000Z</time>
      </trkpt>
      <trkpt lat="45.26348" lon="1.76901">
        <ele>197</ele>
        <time>2020-09-12T19:09:54.000Z</time>
      </trkpt>
      <trkpt lat="45.26349" lon="1.76906">
        <ele>197</ele>
        <time>2020-09-12T19:09:55.000Z</time>
      </trkpt>
      <trkpt lat="45.26351" lon="1.76911">
        <ele>197</ele>
        <time>2020-09-12T19:09:56.000Z</time>
      </trkpt>
      <trkpt lat="45.26354" lon="1.76916">
        <ele>197</ele>
        <time>2020-09-12T19:09:57.000Z</time>
      </trkpt>
      <trkpt lat="45.26356" lon="1.76921">
        <ele>197</ele>
        <time>2020-09-12T19:09:58.000Z</time>
      </trkpt>
      <trkpt lat="45.26357" lon="1.76926">
        <ele>197</ele>
        <time>2020-09-12T19:09:59.000Z</time>
      </trkpt>
      <trkpt lat="45.2636" lon="1.7693">
        <ele>197</ele>
        <time>2020-09-12T19:10:00.000Z</time>
      </trkpt>
      <trkpt lat="45.26362" lon="1.76935">
        <ele>197</ele>
        <time>2020-09-12T19:10:01.000Z</time>
      </trkpt>
      <trkpt lat="45.26365" lon="1.76939">
        <ele>197</ele>
        <time>2020-09-12T19:10:02.000Z</time>
      </trkpt>
      <trkpt lat="45.26369" lon="1.76942">
        <ele>197</ele>
        <time>2020-09-12T19:10:03.000Z</time>
      </trkpt>
      <trkpt lat="45.26372" lon="1.76946">
        <ele>197</ele>
        <time>2020-09-12T19:10:04.000Z</time>
      </trkpt>
      <trkpt lat="45.26374" lon="1.7695">
        <ele>197</ele>
        <time>2020-09-12T19:10:05.000Z</time>
      </trkpt>
      <trkpt lat="45.26377" lon="1.76954">
        <ele>197</ele>
        <time>2020-09-12T19:10:06.000Z</time>
      </trkpt>
      <trkpt lat="45.2638" lon="1.76958">
        <ele>197</ele>
        <time>2020-09-12T19:10:07.000Z</time>
      </trkpt>
      <trkpt lat="45.26384" lon="1.76961">
        <ele>197</ele>
        <time>2020-09-12T19:10:08.000Z</time>
      </trkpt>
      <trkpt lat="45.26388" lon="1.76964">
        <ele>197</ele>
        <time>2020-09-12T19:10:09.000Z</time>
      </trkpt>
      <trkpt lat="45.26392" lon="1.76967">
        <ele>199</ele>
        <time>2020-09-12T19:10:10.000Z</time>
      </trkpt>
      <trkpt lat="45.26397" lon="1.76969">
        <ele>200</ele>
        <time>2020-09-12T19:10:11.000Z</time>
      </trkpt>
      <trkpt lat="45.26401" lon="1.76972">
        <ele>201</ele>
        <time>2020-09-12T19:10:12.000Z</time>
      </trkpt>
      <trkpt lat="45.26405" lon="1.76975">
        <ele>201</ele>
        <time>2020-09-12T19:10:13.000Z</time>
      </trkpt>
      <trkpt lat="45.26409" lon="1.76977">
        <ele>200</ele>
        <time>2020-09-12T19:10:14.000Z</time>
      </trkpt>
      <trkpt lat="45.26413" lon="1.7698">
        <ele>201</ele>
        <time>2020-09-12T19:10:15.000Z</time>
      </trkpt>
      <trkpt lat="45.26416" lon="1.76982">
        <ele>201</ele>
        <time>2020-09-12T19:10:16.000Z</time>
      </trkpt>
      <trkpt lat="45.2642" lon="1.76984">
        <ele>202</ele>
        <time>2020-09-12T19:10:17.000Z</time>
      </trkpt>
      <trkpt lat="45.26424" lon="1.76985">
        <ele>203</ele>
        <time>2020-09-12T19:10:18.000Z</time>
      </trkpt>
      <trkpt lat="45.26427" lon="1.76987">
        <ele>205</ele>
        <time>2020-09-12T19:10:19.000Z</time>
      </trkpt>
      <trkpt lat="45.26431" lon="1.76988">
        <ele>206</ele>
        <time>2020-09-12T19:10:20.000Z</time>
      </trkpt>
      <trkpt lat="45.26436" lon="1.76989">
        <ele>207</ele>
        <time>2020-09-12T19:10:21.000Z</time>
      </trkpt>
      <trkpt lat="45.26441" lon="1.7699">
        <ele>209</ele>
        <time>2020-09-12T19:10:22.000Z</time>
      </trkpt>
      <trkpt lat="45.26446" lon="1.76991">
        <ele>210</ele>
        <time>2020-09-12T19:10:23.000Z</time>
      </trkpt>
      <trkpt lat="45.2645" lon="1.76992">
        <ele>210</ele>
        <time>2020-09-12T19:10:24.000Z</time>
      </trkpt>
      <trkpt lat="45.26454" lon="1.76993">
        <ele>211</ele>
        <time>2020-09-12T19:10:25.000Z</time>
      </trkpt>
      <trkpt lat="45.26459" lon="1.76993">
        <ele>210</ele>
        <time>2020-09-12T19:10:26.000Z</time>
      </trkpt>
      <trkpt lat="45.26463" lon="1.76994">
        <ele>212</ele>
        <time>2020-09-12T19:10:27.000Z</time>
      </trkpt>
      <trkpt lat="45.26467" lon="1.76993">
        <ele>212</ele>
        <time>2020-09-12T19:10:28.000Z</time>
      </trkpt>
      <trkpt lat="45.26472" lon="1.76994">
        <ele>213</ele>
        <time>2020-09-12T19:10:29.000Z</time>
      </trkpt>
      <trkpt lat="45.26476" lon="1.76994">
        <ele>215</ele>
        <time>2020-09-12T19:10:30.000Z</time>
      </trkpt>
      <trkpt lat="45.2648" lon="1.76994">
        <ele>215</ele>
        <time>2020-09-12T19:10:31.000Z</time>
      </trkpt>
      <trkpt lat="45.26484" lon="1.76995">
        <ele>217</ele>
        <time>2020-09-12T19:10:32.000Z</time>
      </trkpt>
      <trkpt lat="45.26489" lon="1.76996">
        <ele>218</ele>
        <time>2020-09-12T19:10:33.000Z</time>
      </trkpt>
      <trkpt lat="45.26493" lon="1.76996">
        <ele>220</ele>
        <time>2020-09-12T19:10:34.000Z</time>
      </trkpt>
      <trkpt lat="45.26497" lon="1.76997">
        <ele>224</ele>
        <time>2020-09-12T19:10:35.000Z</time>
      </trkpt>
      <trkpt lat="45.26501" lon="1.76997">
        <ele>228</ele>
        <time>2020-09-12T19:10:36.000Z</time>
      </trkpt>
      <trkpt lat="45.26505" lon="1.76997">
        <ele>230</ele>
        <time>2020-09-12T19:10:37.000Z</time>
      </trkpt>
      <trkpt lat="45.26509" lon="1.76999">
        <ele>232</ele>
        <time>2020-09-12T19:10:38.000Z</time>
      </trkpt>
      <trkpt lat="45.26514" lon="1.77001">
        <ele>227</ele>
        <time>2020-09-12T19:10:39.000Z</time>
      </trkpt>
      <trkpt lat="45.26519" lon="1.77004">
        <ele>225</ele>
        <time>2020-09-12T19:10:40.000Z</time>
      </trkpt>
      <trkpt lat="45.26524" lon="1.77007">
        <ele>223</ele>
        <time>2020-09-12T19:10:41.000Z</time>
      </trkpt>
      <trkpt lat="45.26529" lon="1.77011">
        <ele>221</ele>
        <time>2020-09-12T19:10:42.000Z</time>
      </trkpt>
      <trkpt lat="45.26534" lon="1.77014">
        <ele>219</ele>
        <time>2020-09-12T19:10:43.000Z</time>
      </trkpt>
      <trkpt lat="45.26538" lon="1.77017">
        <ele>218</ele>
        <time>2020-09-12T19:10:44.000Z</time>
      </trkpt>
      <trkpt lat="45.26542" lon="1.77021">
        <ele>216</ele>
        <time>2020-09-12T19:10:45.000Z</time>
      </trkpt>
      <trkpt lat="45.26547" lon="1.77024">
        <ele>213</ele>
        <time>2020-09-12T19:10:46.000Z</time>
      </trkpt>
      <trkpt lat="45.26552" lon="1.77027">
        <ele>212</ele>
        <time>2020-09-12T19:10:47.000Z</time>
      </trkpt>
      <trkpt lat="45.26556" lon="1.7703">
        <ele>211</ele>
        <time>2020-09-12T19:10:48.000Z</time>
      </trkpt>
      <trkpt lat="45.26561" lon="1.77033">
        <ele>209</ele>
        <time>2020-09-12T19:10:49.000Z</time>
      </trkpt>
      <trkpt lat="45.26565" lon="1.77036">
        <ele>208</ele>
        <time>2020-09-12T19:10:50.000Z</time>
      </trkpt>
      <trkpt lat="45.26569" lon="1.7704">
        <ele>208</ele>
        <time>2020-09-12T19:10:51.000Z</time>
      </trkpt>
      <trkpt lat="45.26573" lon="1.77044">
        <ele>207</ele>
        <time>2020-09-12T19:10:52.000Z</time>
      </trkpt>
      <trkpt lat="45.26576" lon="1.77047">
        <ele>207</ele>
        <time>2020-09-12T19:10:53.000Z</time>
      </trkpt>
      <trkpt lat="45.2658" lon="1.77051">
        <ele>206</ele>
        <time>2020-09-12T19:10:54.000Z</time>
      </trkpt>
      <trkpt lat="45.26583" lon="1.77055">
        <ele>206</ele>
        <time>2020-09-12T19:10:55.000Z</time>
      </trkpt>
      <trkpt lat="45.26586" lon="1.77059">
        <ele>205</ele>
        <time>2020-09-12T19:10:56.000Z</time>
      </trkpt>
      <trkpt lat="45.26589" lon="1.77063">
        <ele>205</ele>
        <time>2020-09-12T19:10:57.000Z</time>
      </trkpt>
      <trkpt lat="45.26593" lon="1.77066">
        <ele>205</ele>
        <time>2020-09-12T19:10:58.000Z</time>
      </trkpt>
      <trkpt lat="45.26596" lon="1.77069">
        <ele>205</ele>
        <time>2020-09-12T19:10:59.000Z</time>
      </trkpt>
      <trkpt lat="45.26599" lon="1.77073">
        <ele>205</ele>
        <time>2020-09-12T19:11:00.000Z</time>
      </trkpt>
      <trkpt lat="45.26602" lon="1.77076">
        <ele>206</ele>
        <time>2020-09-12T19:11:01.000Z</time>
      </trkpt>
      <trkpt lat="45.26606" lon="1.77079">
        <ele>206</ele>
        <time>2020-09-12T19:11:02.000Z</time>
      </trkpt>
      <trkpt lat="45.2661" lon="1.77082">
        <ele>205</ele>
        <time>2020-09-12T19:11:03.000Z</time>
      </trkpt>
      <trkpt lat="45.26613" lon="1.77086">
        <ele>204</ele>
        <time>2020-09-12T19:11:04.000Z</time>
      </trkpt>
      <trkpt lat="45.26617" lon="1.77089">
        <ele>204</ele>
        <time>2020-09-12T19:11:05.000Z</time>
      </trkpt>
      <trkpt lat="45.2662" lon="1.77093">
        <ele>204</ele>
        <time>2020-09-12T19:11:06.000Z</time>
      </trkpt>
      <trkpt lat="45.26623" lon="1.77097">
        <ele>203</ele>
        <time>2020-09-12T19:11:07.000Z</time>
      </trkpt>
      <trkpt lat="45.26626" lon="1.77102">
        <ele>203</ele>
        <time>2020-09-12T19:11:08.000Z</time>
      </trkpt>
      <trkpt lat="45.26629" lon="1.77106">
        <ele>204</ele>
        <time>2020-09-12T19:11:09.000Z</time>
      </trkpt>
      <trkpt lat="45.26632" lon="1.7711">
        <ele>203</ele>
        <time>2020-09-12T19:11:10.000Z</time>
      </trkpt>
      <trkpt lat="45.26635" lon="1.77113">
        <ele>203</ele>
        <time>2020-09-12T19:11:11.000Z</time>
      </trkpt>
      <trkpt lat="45.26637" lon="1.77117">
        <ele>202</ele>
        <time>2020-09-12T19:11:12.000Z</time>
      </trkpt>
      <trkpt lat="45.2664" lon="1.77121">
        <ele>202</ele>
        <time>2020-09-12T19:11:13.000Z</time>
      </trkpt>
      <trkpt lat="45.26643" lon="1.77125">
        <ele>203</ele>
        <time>2020-09-12T19:11:14.000Z</time>
      </trkpt>
      <trkpt lat="45.26647" lon="1.77128">
        <ele>201</ele>
        <time>2020-09-12T19:11:15.000Z</time>
      </trkpt>
      <trkpt lat="45.2665" lon="1.77131">
        <ele>202</ele>
        <time>2020-09-12T19:11:16.000Z</time>
      </trkpt>
      <trkpt lat="45.26654" lon="1.77134">
        <ele>202</ele>
        <time>2020-09-12T19:11:17.000Z</time>
      </trkpt>
      <trkpt lat="45.26657" lon="1.77138">
        <ele>201</ele>
        <time>2020-09-12T19:11:18.000Z</time>
      </trkpt>
      <trkpt lat="45.26661" lon="1.77142">
        <ele>201</ele>
        <time>2020-09-12T19:11:19.000Z</time>
      </trkpt>
      <trkpt lat="45.26665" lon="1.77146">
        <ele>201</ele>
        <time>2020-09-12T19:11:20.000Z</time>
      </trkpt>
      <trkpt lat="45.26669" lon="1.77149">
        <ele>201</ele>
        <time>2020-09-12T19:11:21.000Z</time>
      </trkpt>
      <trkpt lat="45.26673" lon="1.77153">
        <ele>202</ele>
        <time>2020-09-12T19:11:22.000Z</time>
      </trkpt>
      <trkpt lat="45.26678" lon="1.77156">
        <ele>203</ele>
        <time>2020-09-12T19:11:23.000Z</time>
      </trkpt>
      <trkpt lat="45.26682" lon="1.77159">
        <ele>203</ele>
        <time>2020-09-12T19:11:24.000Z</time>
      </trkpt>
      <trkpt lat="45.26686" lon="1.77162">
        <ele>204</ele>
        <time>2020-09-12T19:11:25.000Z</time>
      </trkpt>
      <trkpt lat="45.2669" lon="1.77165">
        <ele>204</ele>
        <time>2020-09-12T19:11:26.000Z</time>
      </trkpt>
      <trkpt lat="45.26694" lon="1.77167">
        <ele>204</ele>
        <time>2020-09-12T19:11:27.000Z</time>
      </trkpt>
      <trkpt lat="45.26698" lon="1.7717">
        <ele>205</ele>
        <time>2020-09-12T19:11:28.000Z</time>
      </trkpt>
      <trkpt lat="45.26701" lon="1.77172">
        <ele>206</ele>
        <time>2020-09-12T19:11:29.000Z</time>
      </trkpt>
      <trkpt lat="45.26705" lon="1.77175">
        <ele>206</ele>
        <time>2020-09-12T19:11:30.000Z</time>
      </trkpt>
      <trkpt lat="45.26708" lon="1.77177">
        <ele>206</ele>
        <time>2020-09-12T19:11:31.000Z</time>
      </trkpt>
      <trkpt lat="45.26712" lon="1.7718">
        <ele>206</ele>
        <time>2020-09-12T19:11:32.000Z</time>
      </trkpt>
      <trkpt lat="45.26715" lon="1.77183">
        <ele>206</ele>
        <time>2020-09-12T19:11:33.000Z</time>
      </trkpt>
      <trkpt lat="45.26718" lon="1.77185">
        <ele>206</ele>
        <time>2020-09-12T19:11:34.000Z</time>
      </trkpt>
      <trkpt lat="45.26722" lon="1.77187">
        <ele>206</ele>
        <time>2020-09-12T19:11:35.000Z</time>
      </trkpt>
      <trkpt lat="45.26726" lon="1.7719">
        <ele>207</ele>
        <time>2020-09-12T19:11:36.000Z</time>
      </trkpt>
      <trkpt lat="45.2673" lon="1.77193">
        <ele>208</ele>
        <time>2020-09-12T19:11:37.000Z</time>
      </trkpt>
      <trkpt lat="45.26734" lon="1.77195">
        <ele>208</ele>
        <time>2020-09-12T19:11:38.000Z</time>
      </trkpt>
      <trkpt lat="45.26738" lon="1.77198">
        <ele>208</ele>
        <time>2020-09-12T19:11:39.000Z</time>
      </trkpt>
      <trkpt lat="45.26742" lon="1.772">
        <ele>208</ele>
        <time>2020-09-12T19:11:40.000Z</time>
      </trkpt>
      <trkpt lat="45.26746" lon="1.77203">
        <ele>208</ele>
        <time>2020-09-12T19:11:41.000Z</time>
      </trkpt>
      <trkpt lat="45.2675" lon="1.77205">
        <ele>208</ele>
        <time>2020-09-12T19:11:42.000Z</time>
      </trkpt>
      <trkpt lat="45.26754" lon="1.77207">
        <ele>208</ele>
        <time>2020-09-12T19:11:43.000Z</time>
      </trkpt>
      <trkpt lat="45.26758" lon="1.77209">
        <ele>208</ele>
        <time>2020-09-12T19:11:44.000Z</time>
      </trkpt>
      <trkpt lat="45.26762" lon="1.7721">
        <ele>208</ele>
        <time>2020-09-12T19:11:45.000Z</time>
      </trkpt>
      <trkpt lat="45.26765" lon="1.77212">
        <ele>208</ele>
        <time>2020-09-12T19:11:46.000Z</time>
      </trkpt>
      <trkpt lat="45.2677" lon="1.77215">
        <ele>208</ele>
        <time>2020-09-12T19:11:47.000Z</time>
      </trkpt>
      <trkpt lat="45.26774" lon="1.77217">
        <ele>208</ele>
        <time>2020-09-12T19:11:48.000Z</time>
      </trkpt>
      <trkpt lat="45.26779" lon="1.77219">
        <ele>209</ele>
        <time>2020-09-12T19:11:49.000Z</time>
      </trkpt>
      <trkpt lat="45.26783" lon="1.7722">
        <ele>210</ele>
        <time>2020-09-12T19:11:50.000Z</time>
      </trkpt>
      <trkpt lat="45.26788" lon="1.77222">
        <ele>210</ele>
        <time>2020-09-12T19:11:51.000Z</time>
      </trkpt>
      <trkpt lat="45.26793" lon="1.77224">
        <ele>211</ele>
        <time>2020-09-12T19:11:52.000Z</time>
      </trkpt>
      <trkpt lat="45.26798" lon="1.77226">
        <ele>211</ele>
        <time>2020-09-12T19:11:53.000Z</time>
      </trkpt>
      <trkpt lat="45.26803" lon="1.77229">
        <ele>210</ele>
        <time>2020-09-12T19:11:54.000Z</time>
      </trkpt>
      <trkpt lat="45.26808" lon="1.77231">
        <ele>205</ele>
        <time>2020-09-12T19:11:55.000Z</time>
      </trkpt>
      <trkpt lat="45.26813" lon="1.77234">
        <ele>202</ele>
        <time>2020-09-12T19:11:56.000Z</time>
      </trkpt>
      <trkpt lat="45.26818" lon="1.77236">
        <ele>200</ele>
        <time>2020-09-12T19:11:57.000Z</time>
      </trkpt>
      <trkpt lat="45.26823" lon="1.77237">
        <ele>201</ele>
        <time>2020-09-12T19:11:58.000Z</time>
      </trkpt>
      <trkpt lat="45.26828" lon="1.77238">
        <ele>199</ele>
        <time>2020-09-12T19:11:59.000Z</time>
      </trkpt>
      <trkpt lat="45.26832" lon="1.77237">
        <ele>197</ele>
        <time>2020-09-12T19:12:00.000Z</time>
      </trkpt>
      <trkpt lat="45.26836" lon="1.77234">
        <ele>196</ele>
        <time>2020-09-12T19:12:01.000Z</time>
      </trkpt>
      <trkpt lat="45.26839" lon="1.7723">
        <ele>194</ele>
        <time>2020-09-12T19:12:02.000Z</time>
      </trkpt>
      <trkpt lat="45.26842" lon="1.77226">
        <ele>191</ele>
        <time>2020-09-12T19:12:03.000Z</time>
      </trkpt>
      <trkpt lat="45.26844" lon="1.77222">
        <ele>190</ele>
        <time>2020-09-12T19:12:04.000Z</time>
      </trkpt>
      <trkpt lat="45.26846" lon="1.77217">
        <ele>189</ele>
        <time>2020-09-12T19:12:05.000Z</time>
      </trkpt>
      <trkpt lat="45.26848" lon="1.77212">
        <ele>188</ele>
        <time>2020-09-12T19:12:06.000Z</time>
      </trkpt>
      <trkpt lat="45.26847" lon="1.77208">
        <ele>187</ele>
        <time>2020-09-12T19:12:07.000Z</time>
      </trkpt>
      <trkpt lat="45.26846" lon="1.77204">
        <ele>187</ele>
        <time>2020-09-12T19:12:08.000Z</time>
      </trkpt>
      <trkpt lat="45.26844" lon="1.772">
        <ele>188</ele>
        <time>2020-09-12T19:12:09.000Z</time>
      </trkpt>
      <trkpt lat="45.26841" lon="1.77197">
        <ele>188</ele>
        <time>2020-09-12T19:12:10.000Z</time>
      </trkpt>
      <trkpt lat="45.26838" lon="1.77195">
        <ele>188</ele>
        <time>2020-09-12T19:12:11.000Z</time>
      </trkpt>
      <trkpt lat="45.26834" lon="1.77192">
        <ele>189</ele>
        <time>2020-09-12T19:12:12.000Z</time>
      </trkpt>
      <trkpt lat="45.26831" lon="1.77189">
        <ele>190</ele>
        <time>2020-09-12T19:12:13.000Z</time>
      </trkpt>
      <trkpt lat="45.26828" lon="1.77186">
        <ele>193</ele>
        <time>2020-09-12T19:12:14.000Z</time>
      </trkpt>
      <trkpt lat="45.26823" lon="1.77184">
        <ele>195</ele>
        <time>2020-09-12T19:12:15.000Z</time>
      </trkpt>
      <trkpt lat="45.26819" lon="1.77182">
        <ele>195</ele>
        <time>2020-09-12T19:12:16.000Z</time>
      </trkpt>
      <trkpt lat="45.26814" lon="1.7718">
        <ele>195</ele>
        <time>2020-09-12T19:12:17.000Z</time>
      </trkpt>
      <trkpt lat="45.2681" lon="1.77178">
        <ele>196</ele>
        <time>2020-09-12T19:12:18.000Z</time>
      </trkpt>
      <trkpt lat="45.26805" lon="1.77177">
        <ele>197</ele>
        <time>2020-09-12T19:12:19.000Z</time>
      </trkpt>
      <trkpt lat="45.268" lon="1.77175">
        <ele>199</ele>
        <time>2020-09-12T19:12:20.000Z</time>
      </trkpt>
      <trkpt lat="45.26796" lon="1.77172">
        <ele>200</ele>
        <time>2020-09-12T19:12:21.000Z</time>
      </trkpt>
      <trkpt lat="45.26791" lon="1.7717">
        <ele>202</ele>
        <time>2020-09-12T19:12:22.000Z</time>
      </trkpt>
      <trkpt lat="45.26787" lon="1.77168">
        <ele>202</ele>
        <time>2020-09-12T19:12:23.000Z</time>
      </trkpt>
      <trkpt lat="45.26783" lon="1.77166">
        <ele>202</ele>
        <time>2020-09-12T19:12:24.000Z</time>
      </trkpt>
      <trkpt lat="45.26778" lon="1.77165">
        <ele>201</ele>
        <time>2020-09-12T19:12:25.000Z</time>
      </trkpt>
      <trkpt lat="45.26773" lon="1.77165">
        <ele>201</ele>
        <time>2020-09-12T19:12:26.000Z</time>
      </trkpt>
      <trkpt lat="45.26767" lon="1.77164">
        <ele>201</ele>
        <time>2020-09-12T19:12:27.000Z</time>
      </trkpt>
      <trkpt lat="45.26762" lon="1.77162">
        <ele>202</ele>
        <time>2020-09-12T19:12:28.000Z</time>
      </trkpt>
      <trkpt lat="45.26757" lon="1.77161">
        <ele>202</ele>
        <time>2020-09-12T19:12:29.000Z</time>
      </trkpt>
      <trkpt lat="45.26752" lon="1.7716">
        <ele>202</ele>
        <time>2020-09-12T19:12:30.000Z</time>
      </trkpt>
      <trkpt lat="45.26748" lon="1.77159">
        <ele>202</ele>
        <time>2020-09-12T19:12:31.000Z</time>
      </trkpt>
      <trkpt lat="45.26743" lon="1.77157">
        <ele>202</ele>
        <time>2020-09-12T19:12:32.000Z</time>
      </trkpt>
      <trkpt lat="45.26738" lon="1.77156">
        <ele>201</ele>
        <time>2020-09-12T19:12:33.000Z</time>
      </trkpt>
      <trkpt lat="45.26734" lon="1.77154">
        <ele>200</ele>
        <time>2020-09-12T19:12:34.000Z</time>
      </trkpt>
      <trkpt lat="45.26729" lon="1.77153">
        <ele>199</ele>
        <time>2020-09-12T19:12:35.000Z</time>
      </trkpt>
      <trkpt lat="45.26724" lon="1.77152">
        <ele>198</ele>
        <time>2020-09-12T19:12:36.000Z</time>
      </trkpt>
      <trkpt lat="45.2672" lon="1.77151">
        <ele>198</ele>
        <time>2020-09-12T19:12:37.000Z</time>
      </trkpt>
      <trkpt lat="45.26714" lon="1.7715">
        <ele>198</ele>
        <time>2020-09-12T19:12:38.000Z</time>
      </trkpt>
      <trkpt lat="45.26709" lon="1.7715">
        <ele>198</ele>
        <time>2020-09-12T19:12:39.000Z</time>
      </trkpt>
      <trkpt lat="45.26704" lon="1.77149">
        <ele>198</ele>
        <time>2020-09-12T19:12:40.000Z</time>
      </trkpt>
      <trkpt lat="45.26699" lon="1.77148">
        <ele>199</ele>
        <time>2020-09-12T19:12:41.000Z</time>
      </trkpt>
      <trkpt lat="45.26694" lon="1.77147">
        <ele>200</ele>
        <time>2020-09-12T19:12:42.000Z</time>
      </trkpt>
      <trkpt lat="45.2669" lon="1.77144">
        <ele>201</ele>
        <time>2020-09-12T19:12:43.000Z</time>
      </trkpt>
      <trkpt lat="45.26685" lon="1.77142">
        <ele>201</ele>
        <time>2020-09-12T19:12:44.000Z</time>
      </trkpt>
      <trkpt lat="45.26681" lon="1.77139">
        <ele>201</ele>
        <time>2020-09-12T19:12:45.000Z</time>
      </trkpt>
      <trkpt lat="45.26677" lon="1.77136">
        <ele>201</ele>
        <time>2020-09-12T19:12:46.000Z</time>
      </trkpt>
      <trkpt lat="45.26674" lon="1.77131">
        <ele>201</ele>
        <time>2020-09-12T19:12:47.000Z</time>
      </trkpt>
      <trkpt lat="45.26671" lon="1.77126">
        <ele>201</ele>
        <time>2020-09-12T19:12:48.000Z</time>
      </trkpt>
      <trkpt lat="45.26667" lon="1.77122">
        <ele>201</ele>
        <time>2020-09-12T19:12:49.000Z</time>
      </trkpt>
      <trkpt lat="45.26664" lon="1.77117">
        <ele>201</ele>
        <time>2020-09-12T19:12:50.000Z</time>
      </trkpt>
      <trkpt lat="45.2666" lon="1.77113">
        <ele>202</ele>
        <time>2020-09-12T19:12:51.000Z</time>
      </trkpt>
      <trkpt lat="45.26656" lon="1.77108">
        <ele>202</ele>
        <time>2020-09-12T19:12:52.000Z</time>
      </trkpt>
      <trkpt lat="45.26653" lon="1.77104">
        <ele>201</ele>
        <time>2020-09-12T19:12:53.000Z</time>
      </trkpt>
      <trkpt lat="45.2665" lon="1.771">
        <ele>200</ele>
        <time>2020-09-12T19:12:54.000Z</time>
      </trkpt>
      <trkpt lat="45.26647" lon="1.77096">
        <ele>199</ele>
        <time>2020-09-12T19:12:55.000Z</time>
      </trkpt>
      <trkpt lat="45.26643" lon="1.77092">
        <ele>199</ele>
        <time>2020-09-12T19:12:56.000Z</time>
      </trkpt>
      <trkpt lat="45.2664" lon="1.77087">
        <ele>199</ele>
        <time>2020-09-12T19:12:57.000Z</time>
      </trkpt>
      <trkpt lat="45.26637" lon="1.77082">
        <ele>199</ele>
        <time>2020-09-12T19:12:58.000Z</time>
      </trkpt>
      <trkpt lat="45.26633" lon="1.77078">
        <ele>200</ele>
        <time>2020-09-12T19:12:59.000Z</time>
      </trkpt>
      <trkpt lat="45.2663" lon="1.77073">
        <ele>199</ele>
        <time>2020-09-12T19:13:00.000Z</time>
      </trkpt>
      <trkpt lat="45.26626" lon="1.77068">
        <ele>199</ele>
        <time>2020-09-12T19:13:01.000Z</time>
      </trkpt>
      <trkpt lat="45.26623" lon="1.77064">
        <ele>199</ele>
        <time>2020-09-12T19:13:02.000Z</time>
      </trkpt>
      <trkpt lat="45.26619" lon="1.77061">
        <ele>199</ele>
        <time>2020-09-12T19:13:03.000Z</time>
      </trkpt>
      <trkpt lat="45.26615" lon="1.77058">
        <ele>199</ele>
        <time>2020-09-12T19:13:04.000Z</time>
      </trkpt>
      <trkpt lat="45.2661" lon="1.77056">
        <ele>200</ele>
        <time>2020-09-12T19:13:05.000Z</time>
      </trkpt>
      <trkpt lat="45.26606" lon="1.77053">
        <ele>200</ele>
        <time>2020-09-12T19:13:06.000Z</time>
      </trkpt>
      <trkpt lat="45.26602" lon="1.7705">
        <ele>201</ele>
        <time>2020-09-12T19:13:07.000Z</time>
      </trkpt>
      <trkpt lat="45.26598" lon="1.77047">
        <ele>201</ele>
        <time>2020-09-12T19:13:08.000Z</time>
      </trkpt>
      <trkpt lat="45.26593" lon="1.77045">
        <ele>201</ele>
        <time>2020-09-12T19:13:09.000Z</time>
      </trkpt>
      <trkpt lat="45.26589" lon="1.77043">
        <ele>202</ele>
        <time>2020-09-12T19:13:10.000Z</time>
      </trkpt>
      <trkpt lat="45.26585" lon="1.7704">
        <ele>202</ele>
        <time>2020-09-12T19:13:11.000Z</time>
      </trkpt>
      <trkpt lat="45.2658" lon="1.77038">
        <ele>203</ele>
        <time>2020-09-12T19:13:12.000Z</time>
      </trkpt>
      <trkpt lat="45.26576" lon="1.77036">
        <ele>204</ele>
        <time>2020-09-12T19:13:13.000Z</time>
      </trkpt>
      <trkpt lat="45.26572" lon="1.77034">
        <ele>205</ele>
        <time>2020-09-12T19:13:14.000Z</time>
      </trkpt>
      <trkpt lat="45.26568" lon="1.77032">
        <ele>205</ele>
        <time>2020-09-12T19:13:15.000Z</time>
      </trkpt>
      <trkpt lat="45.26565" lon="1.77028">
        <ele>205</ele>
        <time>2020-09-12T19:13:16.000Z</time>
      </trkpt>
      <trkpt lat="45.26561" lon="1.77024">
        <ele>205</ele>
        <time>2020-09-12T19:13:17.000Z</time>
      </trkpt>
      <trkpt lat="45.26558" lon="1.7702">
        <ele>205</ele>
        <time>2020-09-12T19:13:18.000Z</time>
      </trkpt>
      <trkpt lat="45.26554" lon="1.77016">
        <ele>206</ele>
        <time>2020-09-12T19:13:19.000Z</time>
      </trkpt>
      <trkpt lat="45.2655" lon="1.77013">
        <ele>206</ele>
        <time>2020-09-12T19:13:20.000Z</time>
      </trkpt>
      <trkpt lat="45.26546" lon="1.77009">
        <ele>206</ele>
        <time>2020-09-12T19:13:21.000Z</time>
      </trkpt>
      <trkpt lat="45.26543" lon="1.77007">
        <ele>207</ele>
        <time>2020-09-12T19:13:22.000Z</time>
      </trkpt>
      <trkpt lat="45.2654" lon="1.77004">
        <ele>208</ele>
        <time>2020-09-12T19:13:23.000Z</time>
      </trkpt>
      <trkpt lat="45.26536" lon="1.77002">
        <ele>209</ele>
        <time>2020-09-12T19:13:24.000Z</time>
      </trkpt>
      <trkpt lat="45.26533" lon="1.77001">
        <ele>210</ele>
        <time>2020-09-12T19:13:25.000Z</time>
      </trkpt>
      <trkpt lat="45.26528" lon="1.77">
        <ele>211</ele>
        <time>2020-09-12T19:13:26.000Z</time>
      </trkpt>
      <trkpt lat="45.26524" lon="1.76999">
        <ele>212</ele>
        <time>2020-09-12T19:13:27.000Z</time>
      </trkpt>
      <trkpt lat="45.2652" lon="1.76997">
        <ele>213</ele>
        <time>2020-09-12T19:13:28.000Z</time>
      </trkpt>
      <trkpt lat="45.26517" lon="1.76994">
        <ele>214</ele>
        <time>2020-09-12T19:13:29.000Z</time>
      </trkpt>
      <trkpt lat="45.26513" lon="1.76991">
        <ele>215</ele>
        <time>2020-09-12T19:13:30.000Z</time>
      </trkpt>
      <trkpt lat="45.2651" lon="1.76988">
        <ele>217</ele>
        <time>2020-09-12T19:13:31.000Z</time>
      </trkpt>
      <trkpt lat="45.26506" lon="1.76986">
        <ele>219</ele>
        <time>2020-09-12T19:13:32.000Z</time>
      </trkpt>
      <trkpt lat="45.26501" lon="1.76985">
        <ele>221</ele>
        <time>2020-09-12T19:13:33.000Z</time>
      </trkpt>
      <trkpt lat="45.26497" lon="1.76984">
        <ele>224</ele>
        <time>2020-09-12T19:13:34.000Z</time>
      </trkpt>
      <trkpt lat="45.26493" lon="1.76983">
        <ele>227</ele>
        <time>2020-09-12T19:13:35.000Z</time>
      </trkpt>
      <trkpt lat="45.26489" lon="1.76982">
        <ele>231</ele>
        <time>2020-09-12T19:13:36.000Z</time>
      </trkpt>
      <trkpt lat="45.26486" lon="1.76979">
        <ele>233</ele>
        <time>2020-09-12T19:13:37.000Z</time>
      </trkpt>
      <trkpt lat="45.26483" lon="1.76975">
        <ele>235</ele>
        <time>2020-09-12T19:13:38.000Z</time>
      </trkpt>
      <trkpt lat="45.26481" lon="1.76971">
        <ele>236</ele>
        <time>2020-09-12T19:13:39.000Z</time>
      </trkpt>
      <trkpt lat="45.26479" lon="1.76967">
        <ele>238</ele>
        <time>2020-09-12T19:13:40.000Z</time>
      </trkpt>
      <trkpt lat="45.26477" lon="1.76964">
        <ele>239</ele>
        <time>2020-09-12T19:13:41.000Z</time>
      </trkpt>
      <trkpt lat="45.26476" lon="1.7696">
        <ele>240</ele>
        <time>2020-09-12T19:13:42.000Z</time>
      </trkpt>
      <trkpt lat="45.26474" lon="1.76957">
        <ele>226</ele>
        <time>2020-09-12T19:13:43.000Z</time>
      </trkpt>
      <trkpt lat="45.26474" lon="1.76957">
        <ele>227</ele>
        <time>2020-09-12T19:13:46.000Z</time>
      </trkpt>
      <trkpt lat="45.26474" lon="1.76957">
        <ele>227</ele>
        <time>2020-09-12T19:13:47.000Z</time>
      </trkpt>
      <trkpt lat="45.26462" lon="1.76944">
        <ele>227</ele>
        <time>2020-09-12T19:13:48.000Z</time>
      </trkpt>
      <trkpt lat="45.2645" lon="1.76929">
        <ele>227</ele>
        <time>2020-09-12T19:13:49.000Z</time>
      </trkpt>
      <trkpt lat="45.26438" lon="1.76913">
        <ele>228</ele>
        <time>2020-09-12T19:13:50.000Z</time>
      </trkpt>
      <trkpt lat="45.26433" lon="1.76906">
        <ele>228</ele>
        <time>2020-09-12T19:13:51.000Z</time>
      </trkpt>
      <trkpt lat="45.26428" lon="1.769">
        <ele>229</ele>
        <time>2020-09-12T19:13:52.000Z</time>
      </trkpt>
      <trkpt lat="45.26423" lon="1.76894">
        <ele>229</ele>
        <time>2020-09-12T19:13:53.000Z</time>
      </trkpt>
      <trkpt lat="45.26419" lon="1.76889">
        <ele>230</ele>
        <time>2020-09-12T19:13:54.000Z</time>
      </trkpt>
      <trkpt lat="45.26416" lon="1.76884">
        <ele>230</ele>
        <time>2020-09-12T19:13:55.000Z</time>
      </trkpt>
      <trkpt lat="45.26414" lon="1.76878">
        <ele>230</ele>
        <time>2020-09-12T19:13:56.000Z</time>
      </trkpt>
      <trkpt lat="45.26413" lon="1.76871">
        <ele>230</ele>
        <time>2020-09-12T19:13:57.000Z</time>
      </trkpt>
      <trkpt lat="45.26412" lon="1.76862">
        <ele>229</ele>
        <time>2020-09-12T19:13:58.000Z</time>
      </trkpt>
      <trkpt lat="45.26411" lon="1.76853">
        <ele>228</ele>
        <time>2020-09-12T19:13:59.000Z</time>
      </trkpt>
      <trkpt lat="45.2641" lon="1.76844">
        <ele>227</ele>
        <time>2020-09-12T19:14:00.000Z</time>
      </trkpt>
      <trkpt lat="45.2641" lon="1.76835">
        <ele>227</ele>
        <time>2020-09-12T19:14:01.000Z</time>
      </trkpt>
      <trkpt lat="45.26409" lon="1.76828">
        <ele>227</ele>
        <time>2020-09-12T19:14:02.000Z</time>
      </trkpt>
      <trkpt lat="45.26409" lon="1.76821">
        <ele>227</ele>
        <time>2020-09-12T19:14:03.000Z</time>
      </trkpt>
      <trkpt lat="45.26409" lon="1.76814">
        <ele>227</ele>
        <time>2020-09-12T19:14:04.000Z</time>
      </trkpt>
      <trkpt lat="45.26408" lon="1.76807">
        <ele>227</ele>
        <time>2020-09-12T19:14:05.000Z</time>
      </trkpt>
      <trkpt lat="45.26408" lon="1.768">
        <ele>227</ele>
        <time>2020-09-12T19:14:06.000Z</time>
      </trkpt>
      <trkpt lat="45.26407" lon="1.76793">
        <ele>227</ele>
        <time>2020-09-12T19:14:07.000Z</time>
      </trkpt>
      <trkpt lat="45.26406" lon="1.76787">
        <ele>227</ele>
        <time>2020-09-12T19:14:08.000Z</time>
      </trkpt>
      <trkpt lat="45.26406" lon="1.7678">
        <ele>227</ele>
        <time>2020-09-12T19:14:09.000Z</time>
      </trkpt>
      <trkpt lat="45.26405" lon="1.76773">
        <ele>226</ele>
        <time>2020-09-12T19:14:10.000Z</time>
      </trkpt>
      <trkpt lat="45.26404" lon="1.76766">
        <ele>226</ele>
        <time>2020-09-12T19:14:11.000Z</time>
      </trkpt>
      <trkpt lat="45.26403" lon="1.76759">
        <ele>225</ele>
        <time>2020-09-12T19:14:12.000Z</time>
      </trkpt>
      <trkpt lat="45.26401" lon="1.76753">
        <ele>225</ele>
        <time>2020-09-12T19:14:13.000Z</time>
      </trkpt>
      <trkpt lat="45.26399" lon="1.76746">
        <ele>225</ele>
        <time>2020-09-12T19:14:14.000Z</time>
      </trkpt>
      <trkpt lat="45.26398" lon="1.7674">
        <ele>225</ele>
        <time>2020-09-12T19:14:15.000Z</time>
      </trkpt>
      <trkpt lat="45.26396" lon="1.76734">
        <ele>225</ele>
        <time>2020-09-12T19:14:16.000Z</time>
      </trkpt>
      <trkpt lat="45.26395" lon="1.76728">
        <ele>224</ele>
        <time>2020-09-12T19:14:17.000Z</time>
      </trkpt>
      <trkpt lat="45.26394" lon="1.76722">
        <ele>224</ele>
        <time>2020-09-12T19:14:18.000Z</time>
      </trkpt>
      <trkpt lat="45.26393" lon="1.76715">
        <ele>224</ele>
        <time>2020-09-12T19:14:19.000Z</time>
      </trkpt>
      <trkpt lat="45.26393" lon="1.76708">
        <ele>224</ele>
        <time>2020-09-12T19:14:20.000Z</time>
      </trkpt>
      <trkpt lat="45.26394" lon="1.76701">
        <ele>224</ele>
        <time>2020-09-12T19:14:21.000Z</time>
      </trkpt>
      <trkpt lat="45.26394" lon="1.76694">
        <ele>224</ele>
        <time>2020-09-12T19:14:22.000Z</time>
      </trkpt>
      <trkpt lat="45.26395" lon="1.76687">
        <ele>224</ele>
        <time>2020-09-12T19:14:23.000Z</time>
      </trkpt>
      <trkpt lat="45.26396" lon="1.7668">
        <ele>224</ele>
        <time>2020-09-12T19:14:24.000Z</time>
      </trkpt>
      <trkpt lat="45.26397" lon="1.76673">
        <ele>224</ele>
        <time>2020-09-12T19:14:25.000Z</time>
      </trkpt>
      <trkpt lat="45.26398" lon="1.76666">
        <ele>224</ele>
        <time>2020-09-12T19:14:26.000Z</time>
      </trkpt>
      <trkpt lat="45.264" lon="1.7666">
        <ele>223</ele>
        <time>2020-09-12T19:14:27.000Z</time>
      </trkpt>
      <trkpt lat="45.26402" lon="1.76653">
        <ele>223</ele>
        <time>2020-09-12T19:14:28.000Z</time>
      </trkpt>
      <trkpt lat="45.26404" lon="1.76647">
        <ele>223</ele>
        <time>2020-09-12T19:14:29.000Z</time>
      </trkpt>
      <trkpt lat="45.26405" lon="1.7664">
        <ele>223</ele>
        <time>2020-09-12T19:14:30.000Z</time>
      </trkpt>
      <trkpt lat="45.26407" lon="1.76634">
        <ele>223</ele>
        <time>2020-09-12T19:14:31.000Z</time>
      </trkpt>
      <trkpt lat="45.26409" lon="1.76628">
        <ele>222</ele>
        <time>2020-09-12T19:14:32.000Z</time>
      </trkpt>
      <trkpt lat="45.26411" lon="1.76622">
        <ele>222</ele>
        <time>2020-09-12T19:14:33.000Z</time>
      </trkpt>
      <trkpt lat="45.26413" lon="1.76616">
        <ele>221</ele>
        <time>2020-09-12T19:14:34.000Z</time>
      </trkpt>
      <trkpt lat="45.26415" lon="1.7661">
        <ele>221</ele>
        <time>2020-09-12T19:14:35.000Z</time>
      </trkpt>
      <trkpt lat="45.26417" lon="1.76604">
        <ele>221</ele>
        <time>2020-09-12T19:14:36.000Z</time>
      </trkpt>
      <trkpt lat="45.26418" lon="1.76598">
        <ele>221</ele>
        <time>2020-09-12T19:14:37.000Z</time>
      </trkpt>
      <trkpt lat="45.2642" lon="1.76593">
        <ele>221</ele>
        <time>2020-09-12T19:14:38.000Z</time>
      </trkpt>
      <trkpt lat="45.26422" lon="1.76587">
        <ele>220</ele>
        <time>2020-09-12T19:14:39.000Z</time>
      </trkpt>
      <trkpt lat="45.26423" lon="1.7658">
        <ele>220</ele>
        <time>2020-09-12T19:14:40.000Z</time>
      </trkpt>
      <trkpt lat="45.26424" lon="1.76574">
        <ele>220</ele>
        <time>2020-09-12T19:14:41.000Z</time>
      </trkpt>
      <trkpt lat="45.26425" lon="1.76568">
        <ele>220</ele>
        <time>2020-09-12T19:14:42.000Z</time>
      </trkpt>
      <trkpt lat="45.26426" lon="1.76562">
        <ele>220</ele>
        <time>2020-09-12T19:14:43.000Z</time>
      </trkpt>
      <trkpt lat="45.26427" lon="1.76556">
        <ele>220</ele>
        <time>2020-09-12T19:14:44.000Z</time>
      </trkpt>
      <trkpt lat="45.26427" lon="1.7655">
        <ele>219</ele>
        <time>2020-09-12T19:14:45.000Z</time>
      </trkpt>
      <trkpt lat="45.26428" lon="1.76544">
        <ele>219</ele>
        <time>2020-09-12T19:14:46.000Z</time>
      </trkpt>
      <trkpt lat="45.26428" lon="1.76538">
        <ele>219</ele>
        <time>2020-09-12T19:14:47.000Z</time>
      </trkpt>
      <trkpt lat="45.26428" lon="1.76533">
        <ele>219</ele>
        <time>2020-09-12T19:14:48.000Z</time>
      </trkpt>
      <trkpt lat="45.26428" lon="1.76527">
        <ele>219</ele>
        <time>2020-09-12T19:14:49.000Z</time>
      </trkpt>
      <trkpt lat="45.26428" lon="1.76521">
        <ele>218</ele>
        <time>2020-09-12T19:14:50.000Z</time>
      </trkpt>
      <trkpt lat="45.26428" lon="1.76514">
        <ele>218</ele>
        <time>2020-09-12T19:14:51.000Z</time>
      </trkpt>
      <trkpt lat="45.26428" lon="1.76507">
        <ele>218</ele>
        <time>2020-09-12T19:14:52.000Z</time>
      </trkpt>
      <trkpt lat="45.26428" lon="1.76501">
        <ele>218</ele>
        <time>2020-09-12T19:14:53.000Z</time>
      </trkpt>
      <trkpt lat="45.26427" lon="1.76495">
        <ele>218</ele>
        <time>2020-09-12T19:14:54.000Z</time>
      </trkpt>
      <trkpt lat="45.26427" lon="1.76489">
        <ele>217</ele>
        <time>2020-09-12T19:14:55.000Z</time>
      </trkpt>
      <trkpt lat="45.26427" lon="1.76483">
        <ele>217</ele>
        <time>2020-09-12T19:14:56.000Z</time>
      </trkpt>
      <trkpt lat="45.26426" lon="1.76476">
        <ele>217</ele>
        <time>2020-09-12T19:14:57.000Z</time>
      </trkpt>
      <trkpt lat="45.26425" lon="1.7647">
        <ele>216</ele>
        <time>2020-09-12T19:14:58.000Z</time>
      </trkpt>
      <trkpt lat="45.26424" lon="1.76464">
        <ele>216</ele>
        <time>2020-09-12T19:14:59.000Z</time>
      </trkpt>
      <trkpt lat="45.26424" lon="1.76458">
        <ele>215</ele>
        <time>2020-09-12T19:15:00.000Z</time>
      </trkpt>
      <trkpt lat="45.26423" lon="1.76452">
        <ele>215</ele>
        <time>2020-09-12T19:15:01.000Z</time>
      </trkpt>
      <trkpt lat="45.26423" lon="1.76446">
        <ele>215</ele>
        <time>2020-09-12T19:15:02.000Z</time>
      </trkpt>
      <trkpt lat="45.26422" lon="1.76441">
        <ele>214</ele>
        <time>2020-09-12T19:15:03.000Z</time>
      </trkpt>
      <trkpt lat="45.26421" lon="1.76435">
        <ele>214</ele>
        <time>2020-09-12T19:15:04.000Z</time>
      </trkpt>
      <trkpt lat="45.2642" lon="1.7643">
        <ele>214</ele>
        <time>2020-09-12T19:15:05.000Z</time>
      </trkpt>
      <trkpt lat="45.26419" lon="1.76424">
        <ele>213</ele>
        <time>2020-09-12T19:15:06.000Z</time>
      </trkpt>
      <trkpt lat="45.26418" lon="1.76419">
        <ele>213</ele>
        <time>2020-09-12T19:15:07.000Z</time>
      </trkpt>
      <trkpt lat="45.26418" lon="1.76412">
        <ele>214</ele>
        <time>2020-09-12T19:15:08.000Z</time>
      </trkpt>
      <trkpt lat="45.26418" lon="1.76406">
        <ele>214</ele>
        <time>2020-09-12T19:15:09.000Z</time>
      </trkpt>
      <trkpt lat="45.26418" lon="1.764">
        <ele>214</ele>
        <time>2020-09-12T19:15:10.000Z</time>
      </trkpt>
      <trkpt lat="45.26418" lon="1.76395">
        <ele>213</ele>
        <time>2020-09-12T19:15:11.000Z</time>
      </trkpt>
      <trkpt lat="45.26418" lon="1.76389">
        <ele>213</ele>
        <time>2020-09-12T19:15:12.000Z</time>
      </trkpt>
      <trkpt lat="45.26417" lon="1.76383">
        <ele>213</ele>
        <time>2020-09-12T19:15:13.000Z</time>
      </trkpt>
      <trkpt lat="45.26417" lon="1.76377">
        <ele>214</ele>
        <time>2020-09-12T19:15:14.000Z</time>
      </trkpt>
      <trkpt lat="45.26416" lon="1.76371">
        <ele>213</ele>
        <time>2020-09-12T19:15:15.000Z</time>
      </trkpt>
      <trkpt lat="45.26416" lon="1.76365">
        <ele>213</ele>
        <time>2020-09-12T19:15:16.000Z</time>
      </trkpt>
      <trkpt lat="45.26415" lon="1.76358">
        <ele>213</ele>
        <time>2020-09-12T19:15:17.000Z</time>
      </trkpt>
      <trkpt lat="45.26415" lon="1.76351">
        <ele>213</ele>
        <time>2020-09-12T19:15:18.000Z</time>
      </trkpt>
      <trkpt lat="45.26415" lon="1.76343">
        <ele>213</ele>
        <time>2020-09-12T19:15:19.000Z</time>
      </trkpt>
      <trkpt lat="45.26414" lon="1.76337">
        <ele>213</ele>
        <time>2020-09-12T19:15:20.000Z</time>
      </trkpt>
      <trkpt lat="45.26414" lon="1.7633">
        <ele>214</ele>
        <time>2020-09-12T19:15:21.000Z</time>
      </trkpt>
      <trkpt lat="45.26414" lon="1.76324">
        <ele>213</ele>
        <time>2020-09-12T19:15:22.000Z</time>
      </trkpt>
      <trkpt lat="45.26413" lon="1.76317">
        <ele>213</ele>
        <time>2020-09-12T19:15:23.000Z</time>
      </trkpt>
      <trkpt lat="45.26413" lon="1.76311">
        <ele>212</ele>
        <time>2020-09-12T19:15:24.000Z</time>
      </trkpt>
      <trkpt lat="45.26412" lon="1.76305">
        <ele>212</ele>
        <time>2020-09-12T19:15:25.000Z</time>
      </trkpt>
      <trkpt lat="45.26411" lon="1.76299">
        <ele>212</ele>
        <time>2020-09-12T19:15:26.000Z</time>
      </trkpt>
      <trkpt lat="45.2641" lon="1.76293">
        <ele>212</ele>
        <time>2020-09-12T19:15:27.000Z</time>
      </trkpt>
      <trkpt lat="45.26408" lon="1.76287">
        <ele>213</ele>
        <time>2020-09-12T19:15:28.000Z</time>
      </trkpt>
      <trkpt lat="45.26406" lon="1.7628">
        <ele>212</ele>
        <time>2020-09-12T19:15:29.000Z</time>
      </trkpt>
      <trkpt lat="45.26405" lon="1.76274">
        <ele>212</ele>
        <time>2020-09-12T19:15:30.000Z</time>
      </trkpt>
      <trkpt lat="45.26404" lon="1.76268">
        <ele>212</ele>
        <time>2020-09-12T19:15:31.000Z</time>
      </trkpt>
      <trkpt lat="45.26402" lon="1.76262">
        <ele>212</ele>
        <time>2020-09-12T19:15:32.000Z</time>
      </trkpt>
      <trkpt lat="45.26401" lon="1.76256">
        <ele>212</ele>
        <time>2020-09-12T19:15:33.000Z</time>
      </trkpt>
      <trkpt lat="45.264" lon="1.7625">
        <ele>212</ele>
        <time>2020-09-12T19:15:34.000Z</time>
      </trkpt>
      <trkpt lat="45.26399" lon="1.76245">
        <ele>213</ele>
        <time>2020-09-12T19:15:35.000Z</time>
      </trkpt>
      <trkpt lat="45.26397" lon="1.76239">
        <ele>213</ele>
        <time>2020-09-12T19:15:36.000Z</time>
      </trkpt>
      <trkpt lat="45.26396" lon="1.76233">
        <ele>213</ele>
        <time>2020-09-12T19:15:37.000Z</time>
      </trkpt>
      <trkpt lat="45.26394" lon="1.76227">
        <ele>213</ele>
        <time>2020-09-12T19:15:38.000Z</time>
      </trkpt>
      <trkpt lat="45.26392" lon="1.76221">
        <ele>213</ele>
        <time>2020-09-12T19:15:39.000Z</time>
      </trkpt>
      <trkpt lat="45.26391" lon="1.76215">
        <ele>213</ele>
        <time>2020-09-12T19:15:40.000Z</time>
      </trkpt>
      <trkpt lat="45.26389" lon="1.76209">
        <ele>213</ele>
        <time>2020-09-12T19:15:41.000Z</time>
      </trkpt>
      <trkpt lat="45.26388" lon="1.76204">
        <ele>213</ele>
        <time>2020-09-12T19:15:42.000Z</time>
      </trkpt>
      <trkpt lat="45.26386" lon="1.76198">
        <ele>214</ele>
        <time>2020-09-12T19:15:43.000Z</time>
      </trkpt>
      <trkpt lat="45.26385" lon="1.76192">
        <ele>214</ele>
        <time>2020-09-12T19:15:44.000Z</time>
      </trkpt>
      <trkpt lat="45.26383" lon="1.76186">
        <ele>215</ele>
        <time>2020-09-12T19:15:45.000Z</time>
      </trkpt>
      <trkpt lat="45.26381" lon="1.7618">
        <ele>215</ele>
        <time>2020-09-12T19:15:46.000Z</time>
      </trkpt>
      <trkpt lat="45.2638" lon="1.76175">
        <ele>215</ele>
        <time>2020-09-12T19:15:47.000Z</time>
      </trkpt>
      <trkpt lat="45.26378" lon="1.76169">
        <ele>214</ele>
        <time>2020-09-12T19:15:48.000Z</time>
      </trkpt>
      <trkpt lat="45.26376" lon="1.76164">
        <ele>214</ele>
        <time>2020-09-12T19:15:49.000Z</time>
      </trkpt>
      <trkpt lat="45.26374" lon="1.76159">
        <ele>215</ele>
        <time>2020-09-12T19:15:50.000Z</time>
      </trkpt>
      <trkpt lat="45.26372" lon="1.76154">
        <ele>216</ele>
        <time>2020-09-12T19:15:51.000Z</time>
      </trkpt>
      <trkpt lat="45.2637" lon="1.76148">
        <ele>217</ele>
        <time>2020-09-12T19:15:52.000Z</time>
      </trkpt>
      <trkpt lat="45.26368" lon="1.76143">
        <ele>218</ele>
        <time>2020-09-12T19:15:53.000Z</time>
      </trkpt>
      <trkpt lat="45.26367" lon="1.76137">
        <ele>219</ele>
        <time>2020-09-12T19:15:54.000Z</time>
      </trkpt>
      <trkpt lat="45.26365" lon="1.76132">
        <ele>219</ele>
        <time>2020-09-12T19:15:55.000Z</time>
      </trkpt>
      <trkpt lat="45.26363" lon="1.76126">
        <ele>219</ele>
        <time>2020-09-12T19:15:56.000Z</time>
      </trkpt>
      <trkpt lat="45.26361" lon="1.76121">
        <ele>217</ele>
        <time>2020-09-12T19:15:57.000Z</time>
      </trkpt>
      <trkpt lat="45.26358" lon="1.76116">
        <ele>216</ele>
        <time>2020-09-12T19:15:58.000Z</time>
      </trkpt>
      <trkpt lat="45.26355" lon="1.76111">
        <ele>217</ele>
        <time>2020-09-12T19:15:59.000Z</time>
      </trkpt>
      <trkpt lat="45.26353" lon="1.76106">
        <ele>215</ele>
        <time>2020-09-12T19:16:00.000Z</time>
      </trkpt>
      <trkpt lat="45.2635" lon="1.761">
        <ele>214</ele>
        <time>2020-09-12T19:16:01.000Z</time>
      </trkpt>
      <trkpt lat="45.26348" lon="1.76095">
        <ele>213</ele>
        <time>2020-09-12T19:16:02.000Z</time>
      </trkpt>
      <trkpt lat="45.26346" lon="1.76091">
        <ele>212</ele>
        <time>2020-09-12T19:16:03.000Z</time>
      </trkpt>
      <trkpt lat="45.26343" lon="1.76086">
        <ele>212</ele>
        <time>2020-09-12T19:16:04.000Z</time>
      </trkpt>
      <trkpt lat="45.26341" lon="1.76081">
        <ele>210</ele>
        <time>2020-09-12T19:16:05.000Z</time>
      </trkpt>
      <trkpt lat="45.26338" lon="1.76076">
        <ele>210</ele>
        <time>2020-09-12T19:16:06.000Z</time>
      </trkpt>
      <trkpt lat="45.26336" lon="1.76071">
        <ele>209</ele>
        <time>2020-09-12T19:16:07.000Z</time>
      </trkpt>
      <trkpt lat="45.26334" lon="1.76065">
        <ele>209</ele>
        <time>2020-09-12T19:16:08.000Z</time>
      </trkpt>
      <trkpt lat="45.26331" lon="1.7606">
        <ele>209</ele>
        <time>2020-09-12T19:16:09.000Z</time>
      </trkpt>
      <trkpt lat="45.26329" lon="1.76055">
        <ele>210</ele>
        <time>2020-09-12T19:16:10.000Z</time>
      </trkpt>
      <trkpt lat="45.26327" lon="1.76051">
        <ele>210</ele>
        <time>2020-09-12T19:16:11.000Z</time>
      </trkpt>
      <trkpt lat="45.26324" lon="1.76046">
        <ele>210</ele>
        <time>2020-09-12T19:16:12.000Z</time>
      </trkpt>
      <trkpt lat="45.26321" lon="1.76042">
        <ele>209</ele>
        <time>2020-09-12T19:16:13.000Z</time>
      </trkpt>
      <trkpt lat="45.26318" lon="1.76038">
        <ele>209</ele>
        <time>2020-09-12T19:16:14.000Z</time>
      </trkpt>
      <trkpt lat="45.26315" lon="1.76034">
        <ele>208</ele>
        <time>2020-09-12T19:16:15.000Z</time>
      </trkpt>
      <trkpt lat="45.26312" lon="1.7603">
        <ele>209</ele>
        <time>2020-09-12T19:16:16.000Z</time>
      </trkpt>
      <trkpt lat="45.2631" lon="1.76026">
        <ele>207</ele>
        <time>2020-09-12T19:16:17.000Z</time>
      </trkpt>
      <trkpt lat="45.26307" lon="1.76023">
        <ele>207</ele>
        <time>2020-09-12T19:16:18.000Z</time>
      </trkpt>
      <trkpt lat="45.26304" lon="1.76019">
        <ele>206</ele>
        <time>2020-09-12T19:16:19.000Z</time>
      </trkpt>
      <trkpt lat="45.26301" lon="1.76015">
        <ele>205</ele>
        <time>2020-09-12T19:16:20.000Z</time>
      </trkpt>
      <trkpt lat="45.26298" lon="1.76011">
        <ele>205</ele>
        <time>2020-09-12T19:16:21.000Z</time>
      </trkpt>
      <trkpt lat="45.26294" lon="1.76008">
        <ele>205</ele>
        <time>2020-09-12T19:16:22.000Z</time>
      </trkpt>
      <trkpt lat="45.26291" lon="1.76005">
        <ele>204</ele>
        <time>2020-09-12T19:16:23.000Z</time>
      </trkpt>
      <trkpt lat="45.26287" lon="1.76002">
        <ele>204</ele>
        <time>2020-09-12T19:16:24.000Z</time>
      </trkpt>
      <trkpt lat="45.26282" lon="1.76">
        <ele>204</ele>
        <time>2020-09-12T19:16:25.000Z</time>
      </trkpt>
      <trkpt lat="45.26277" lon="1.75998">
        <ele>205</ele>
        <time>2020-09-12T19:16:26.000Z</time>
      </trkpt>
      <trkpt lat="45.26273" lon="1.75997">
        <ele>206</ele>
        <time>2020-09-12T19:16:27.000Z</time>
      </trkpt>
      <trkpt lat="45.26268" lon="1.75995">
        <ele>206</ele>
        <time>2020-09-12T19:16:28.000Z</time>
      </trkpt>
      <trkpt lat="45.26263" lon="1.75993">
        <ele>208</ele>
        <time>2020-09-12T19:16:29.000Z</time>
      </trkpt>
      <trkpt lat="45.26259" lon="1.75992">
        <ele>208</ele>
        <time>2020-09-12T19:16:30.000Z</time>
      </trkpt>
      <trkpt lat="45.26255" lon="1.75989">
        <ele>209</ele>
        <time>2020-09-12T19:16:31.000Z</time>
      </trkpt>
      <trkpt lat="45.2625" lon="1.75986">
        <ele>210</ele>
        <time>2020-09-12T19:16:32.000Z</time>
      </trkpt>
      <trkpt lat="45.26246" lon="1.75983">
        <ele>210</ele>
        <time>2020-09-12T19:16:33.000Z</time>
      </trkpt>
      <trkpt lat="45.26241" lon="1.75981">
        <ele>210</ele>
        <time>2020-09-12T19:16:34.000Z</time>
      </trkpt>
      <trkpt lat="45.26237" lon="1.75978">
        <ele>210</ele>
        <time>2020-09-12T19:16:35.000Z</time>
      </trkpt>
      <trkpt lat="45.26233" lon="1.75975">
        <ele>211</ele>
        <time>2020-09-12T19:16:36.000Z</time>
      </trkpt>
      <trkpt lat="45.26229" lon="1.75972">
        <ele>212</ele>
        <time>2020-09-12T19:16:37.000Z</time>
      </trkpt>
      <trkpt lat="45.26225" lon="1.75969">
        <ele>213</ele>
        <time>2020-09-12T19:16:38.000Z</time>
      </trkpt>
      <trkpt lat="45.26222" lon="1.75965">
        <ele>214</ele>
        <time>2020-09-12T19:16:39.000Z</time>
      </trkpt>
      <trkpt lat="45.26218" lon="1.75961">
        <ele>215</ele>
        <time>2020-09-12T19:16:40.000Z</time>
      </trkpt>
      <trkpt lat="45.26215" lon="1.75956">
        <ele>215</ele>
        <time>2020-09-12T19:16:41.000Z</time>
      </trkpt>
      <trkpt lat="45.26212" lon="1.75951">
        <ele>216</ele>
        <time>2020-09-12T19:16:42.000Z</time>
      </trkpt>
      <trkpt lat="45.26209" lon="1.75947">
        <ele>217</ele>
        <time>2020-09-12T19:16:43.000Z</time>
      </trkpt>
      <trkpt lat="45.26206" lon="1.75943">
        <ele>217</ele>
        <time>2020-09-12T19:16:44.000Z</time>
      </trkpt>
      <trkpt lat="45.26203" lon="1.75938">
        <ele>217</ele>
        <time>2020-09-12T19:16:45.000Z</time>
      </trkpt>
      <trkpt lat="45.26201" lon="1.75933">
        <ele>216</ele>
        <time>2020-09-12T19:16:46.000Z</time>
      </trkpt>
      <trkpt lat="45.26198" lon="1.75928">
        <ele>217</ele>
        <time>2020-09-12T19:16:47.000Z</time>
      </trkpt>
      <trkpt lat="45.26195" lon="1.75924">
        <ele>217</ele>
        <time>2020-09-12T19:16:48.000Z</time>
      </trkpt>
      <trkpt lat="45.26192" lon="1.75921">
        <ele>217</ele>
        <time>2020-09-12T19:16:49.000Z</time>
      </trkpt>
      <trkpt lat="45.26188" lon="1.75917">
        <ele>218</ele>
        <time>2020-09-12T19:16:50.000Z</time>
      </trkpt>
      <trkpt lat="45.26185" lon="1.75913">
        <ele>218</ele>
        <time>2020-09-12T19:16:51.000Z</time>
      </trkpt>
      <trkpt lat="45.26182" lon="1.75909">
        <ele>217</ele>
        <time>2020-09-12T19:16:52.000Z</time>
      </trkpt>
      <trkpt lat="45.2618" lon="1.75904">
        <ele>217</ele>
        <time>2020-09-12T19:16:53.000Z</time>
      </trkpt>
      <trkpt lat="45.26177" lon="1.759">
        <ele>216</ele>
        <time>2020-09-12T19:16:54.000Z</time>
      </trkpt>
      <trkpt lat="45.26173" lon="1.75896">
        <ele>216</ele>
        <time>2020-09-12T19:16:55.000Z</time>
      </trkpt>
      <trkpt lat="45.26169" lon="1.75892">
        <ele>216</ele>
        <time>2020-09-12T19:16:56.000Z</time>
      </trkpt>
      <trkpt lat="45.26165" lon="1.75888">
        <ele>215</ele>
        <time>2020-09-12T19:16:57.000Z</time>
      </trkpt>
      <trkpt lat="45.26162" lon="1.75885">
        <ele>213</ele>
        <time>2020-09-12T19:16:58.000Z</time>
      </trkpt>
      <trkpt lat="45.26158" lon="1.75882">
        <ele>210</ele>
        <time>2020-09-12T19:16:59.000Z</time>
      </trkpt>
      <trkpt lat="45.26156" lon="1.75878">
        <ele>211</ele>
        <time>2020-09-12T19:17:00.000Z</time>
      </trkpt>
      <trkpt lat="45.26153" lon="1.75874">
        <ele>213</ele>
        <time>2020-09-12T19:17:01.000Z</time>
      </trkpt>
      <trkpt lat="45.26151" lon="1.75868">
        <ele>215</ele>
        <time>2020-09-12T19:17:02.000Z</time>
      </trkpt>
      <trkpt lat="45.2615" lon="1.75861">
        <ele>216</ele>
        <time>2020-09-12T19:17:03.000Z</time>
      </trkpt>
      <trkpt lat="45.26148" lon="1.75856">
        <ele>216</ele>
        <time>2020-09-12T19:17:04.000Z</time>
      </trkpt>
      <trkpt lat="45.26146" lon="1.75851">
        <ele>217</ele>
        <time>2020-09-12T19:17:05.000Z</time>
      </trkpt>
      <trkpt lat="45.26144" lon="1.75846">
        <ele>216</ele>
        <time>2020-09-12T19:17:06.000Z</time>
      </trkpt>
      <trkpt lat="45.26142" lon="1.75841">
        <ele>216</ele>
        <time>2020-09-12T19:17:07.000Z</time>
      </trkpt>
      <trkpt lat="45.2614" lon="1.75836">
        <ele>217</ele>
        <time>2020-09-12T19:17:08.000Z</time>
      </trkpt>
      <trkpt lat="45.26137" lon="1.75831">
        <ele>218</ele>
        <time>2020-09-12T19:17:09.000Z</time>
      </trkpt>
      <trkpt lat="45.26134" lon="1.75826">
        <ele>217</ele>
        <time>2020-09-12T19:17:10.000Z</time>
      </trkpt>
      <trkpt lat="45.26131" lon="1.75822">
        <ele>218</ele>
        <time>2020-09-12T19:17:11.000Z</time>
      </trkpt>
      <trkpt lat="45.26128" lon="1.75817">
        <ele>218</ele>
        <time>2020-09-12T19:17:12.000Z</time>
      </trkpt>
      <trkpt lat="45.26125" lon="1.75813">
        <ele>217</ele>
        <time>2020-09-12T19:17:13.000Z</time>
      </trkpt>
      <trkpt lat="45.26122" lon="1.75808">
        <ele>215</ele>
        <time>2020-09-12T19:17:14.000Z</time>
      </trkpt>
      <trkpt lat="45.26119" lon="1.75804">
        <ele>214</ele>
        <time>2020-09-12T19:17:15.000Z</time>
      </trkpt>
      <trkpt lat="45.26117" lon="1.75802">
        <ele>212</ele>
        <time>2020-09-12T19:17:16.000Z</time>
      </trkpt>
      <trkpt lat="45.26114" lon="1.75799">
        <ele>211</ele>
        <time>2020-09-12T19:17:17.000Z</time>
      </trkpt>
      <trkpt lat="45.2611" lon="1.75798">
        <ele>212</ele>
        <time>2020-09-12T19:17:18.000Z</time>
      </trkpt>
      <trkpt lat="45.26106" lon="1.75798">
        <ele>214</ele>
        <time>2020-09-12T19:17:19.000Z</time>
      </trkpt>
      <trkpt lat="45.26101" lon="1.75798">
        <ele>214</ele>
        <time>2020-09-12T19:17:20.000Z</time>
      </trkpt>
      <trkpt lat="45.26098" lon="1.75797">
        <ele>216</ele>
        <time>2020-09-12T19:17:21.000Z</time>
      </trkpt>
      <trkpt lat="45.26094" lon="1.75796">
        <ele>216</ele>
        <time>2020-09-12T19:17:22.000Z</time>
      </trkpt>
      <trkpt lat="45.26089" lon="1.75795">
        <ele>216</ele>
        <time>2020-09-12T19:17:23.000Z</time>
      </trkpt>
      <trkpt lat="45.26086" lon="1.75795">
        <ele>217</ele>
        <time>2020-09-12T19:17:24.000Z</time>
      </trkpt>
      <trkpt lat="45.26082" lon="1.75795">
        <ele>217</ele>
        <time>2020-09-12T19:17:25.000Z</time>
      </trkpt>
      <trkpt lat="45.26079" lon="1.75797">
        <ele>215</ele>
        <time>2020-09-12T19:17:26.000Z</time>
      </trkpt>
      <trkpt lat="45.26076" lon="1.758">
        <ele>213</ele>
        <time>2020-09-12T19:17:27.000Z</time>
      </trkpt>
      <trkpt lat="45.26074" lon="1.75805">
        <ele>207</ele>
        <time>2020-09-12T19:17:28.000Z</time>
      </trkpt>
      <trkpt lat="45.26073" lon="1.75812">
        <ele>206</ele>
        <time>2020-09-12T19:17:29.000Z</time>
      </trkpt>
      <trkpt lat="45.26073" lon="1.75819">
        <ele>205</ele>
        <time>2020-09-12T19:17:30.000Z</time>
      </trkpt>
      <trkpt lat="45.26073" lon="1.75824">
        <ele>204</ele>
        <time>2020-09-12T19:17:31.000Z</time>
      </trkpt>
      <trkpt lat="45.26074" lon="1.75831">
        <ele>203</ele>
        <time>2020-09-12T19:17:32.000Z</time>
      </trkpt>
      <trkpt lat="45.26075" lon="1.75837">
        <ele>203</ele>
        <time>2020-09-12T19:17:33.000Z</time>
      </trkpt>
      <trkpt lat="45.26076" lon="1.75842">
        <ele>203</ele>
        <time>2020-09-12T19:17:34.000Z</time>
      </trkpt>
      <trkpt lat="45.26077" lon="1.75848">
        <ele>202</ele>
        <time>2020-09-12T19:17:35.000Z</time>
      </trkpt>
      <trkpt lat="45.26077" lon="1.75854">
        <ele>202</ele>
        <time>2020-09-12T19:17:36.000Z</time>
      </trkpt>
      <trkpt lat="45.26078" lon="1.7586">
        <ele>201</ele>
        <time>2020-09-12T19:17:37.000Z</time>
      </trkpt>
      <trkpt lat="45.26078" lon="1.75865">
        <ele>201</ele>
        <time>2020-09-12T19:17:38.000Z</time>
      </trkpt>
      <trkpt lat="45.26079" lon="1.75871">
        <ele>201</ele>
        <time>2020-09-12T19:17:39.000Z</time>
      </trkpt>
      <trkpt lat="45.2608" lon="1.75877">
        <ele>201</ele>
        <time>2020-09-12T19:17:40.000Z</time>
      </trkpt>
      <trkpt lat="45.26082" lon="1.75883">
        <ele>200</ele>
        <time>2020-09-12T19:17:41.000Z</time>
      </trkpt>
      <trkpt lat="45.26084" lon="1.75889">
        <ele>200</ele>
        <time>2020-09-12T19:17:42.000Z</time>
      </trkpt>
      <trkpt lat="45.26085" lon="1.75895">
        <ele>200</ele>
        <time>2020-09-12T19:17:43.000Z</time>
      </trkpt>
      <trkpt lat="45.26087" lon="1.759">
        <ele>199</ele>
        <time>2020-09-12T19:17:44.000Z</time>
      </trkpt>
      <trkpt lat="45.26089" lon="1.75906">
        <ele>197</ele>
        <time>2020-09-12T19:17:45.000Z</time>
      </trkpt>
      <trkpt lat="45.2609" lon="1.75912">
        <ele>195</ele>
        <time>2020-09-12T19:17:46.000Z</time>
      </trkpt>
      <trkpt lat="45.26091" lon="1.75919">
        <ele>194</ele>
        <time>2020-09-12T19:17:47.000Z</time>
      </trkpt>
      <trkpt lat="45.26091" lon="1.75926">
        <ele>194</ele>
        <time>2020-09-12T19:17:48.000Z</time>
      </trkpt>
      <trkpt lat="45.26092" lon="1.75931">
        <ele>193</ele>
        <time>2020-09-12T19:17:49.000Z</time>
      </trkpt>
      <trkpt lat="45.26093" lon="1.75936">
        <ele>192</ele>
        <time>2020-09-12T19:17:50.000Z</time>
      </trkpt>
      <trkpt lat="45.26095" lon="1.75942">
        <ele>192</ele>
        <time>2020-09-12T19:17:51.000Z</time>
      </trkpt>
      <trkpt lat="45.26097" lon="1.75948">
        <ele>192</ele>
        <time>2020-09-12T19:17:52.000Z</time>
      </trkpt>
      <trkpt lat="45.26099" lon="1.75953">
        <ele>190</ele>
        <time>2020-09-12T19:17:53.000Z</time>
      </trkpt>
      <trkpt lat="45.26101" lon="1.75958">
        <ele>189</ele>
        <time>2020-09-12T19:17:54.000Z</time>
      </trkpt>
      <trkpt lat="45.26103" lon="1.75962">
        <ele>188</ele>
        <time>2020-09-12T19:17:55.000Z</time>
      </trkpt>
      <trkpt lat="45.26106" lon="1.75966">
        <ele>188</ele>
        <time>2020-09-12T19:17:56.000Z</time>
      </trkpt>
      <trkpt lat="45.26109" lon="1.7597">
        <ele>188</ele>
        <time>2020-09-12T19:17:57.000Z</time>
      </trkpt>
      <trkpt lat="45.26111" lon="1.75975">
        <ele>188</ele>
        <time>2020-09-12T19:17:58.000Z</time>
      </trkpt>
      <trkpt lat="45.26114" lon="1.75979">
        <ele>188</ele>
        <time>2020-09-12T19:17:59.000Z</time>
      </trkpt>
      <trkpt lat="45.26117" lon="1.75984">
        <ele>190</ele>
        <time>2020-09-12T19:18:00.000Z</time>
      </trkpt>
      <trkpt lat="45.2612" lon="1.75988">
        <ele>191</ele>
        <time>2020-09-12T19:18:01.000Z</time>
      </trkpt>
      <trkpt lat="45.26123" lon="1.75992">
        <ele>191</ele>
        <time>2020-09-12T19:18:02.000Z</time>
      </trkpt>
      <trkpt lat="45.26126" lon="1.75995">
        <ele>191</ele>
        <time>2020-09-12T19:18:03.000Z</time>
      </trkpt>
      <trkpt lat="45.2613" lon="1.75999">
        <ele>192</ele>
        <time>2020-09-12T19:18:04.000Z</time>
      </trkpt>
      <trkpt lat="45.26134" lon="1.76002">
        <ele>193</ele>
        <time>2020-09-12T19:18:05.000Z</time>
      </trkpt>
      <trkpt lat="45.26139" lon="1.76006">
        <ele>196</ele>
        <time>2020-09-12T19:18:06.000Z</time>
      </trkpt>
      <trkpt lat="45.26143" lon="1.76009">
        <ele>197</ele>
        <time>2020-09-12T19:18:07.000Z</time>
      </trkpt>
      <trkpt lat="45.26148" lon="1.76012">
        <ele>197</ele>
        <time>2020-09-12T19:18:08.000Z</time>
      </trkpt>
      <trkpt lat="45.26151" lon="1.76015">
        <ele>197</ele>
        <time>2020-09-12T19:18:09.000Z</time>
      </trkpt>
      <trkpt lat="45.26154" lon="1.76018">
        <ele>196</ele>
        <time>2020-09-12T19:18:10.000Z</time>
      </trkpt>
      <trkpt lat="45.26157" lon="1.7602">
        <ele>195</ele>
        <time>2020-09-12T19:18:11.000Z</time>
      </trkpt>
      <trkpt lat="45.26161" lon="1.76022">
        <ele>195</ele>
        <time>2020-09-12T19:18:12.000Z</time>
      </trkpt>
      <trkpt lat="45.26165" lon="1.76025">
        <ele>195</ele>
        <time>2020-09-12T19:18:13.000Z</time>
      </trkpt>
      <trkpt lat="45.2617" lon="1.76028">
        <ele>194</ele>
        <time>2020-09-12T19:18:14.000Z</time>
      </trkpt>
      <trkpt lat="45.26174" lon="1.76031">
        <ele>194</ele>
        <time>2020-09-12T19:18:15.000Z</time>
      </trkpt>
      <trkpt lat="45.26179" lon="1.76035">
        <ele>194</ele>
        <time>2020-09-12T19:18:16.000Z</time>
      </trkpt>
      <trkpt lat="45.26183" lon="1.76039">
        <ele>195</ele>
        <time>2020-09-12T19:18:17.000Z</time>
      </trkpt>
      <trkpt lat="45.26188" lon="1.76042">
        <ele>195</ele>
        <time>2020-09-12T19:18:18.000Z</time>
      </trkpt>
      <trkpt lat="45.26192" lon="1.76045">
        <ele>194</ele>
        <time>2020-09-12T19:18:19.000Z</time>
      </trkpt>
      <trkpt lat="45.26196" lon="1.76049">
        <ele>193</ele>
        <time>2020-09-12T19:18:20.000Z</time>
      </trkpt>
      <trkpt lat="45.262" lon="1.76052">
        <ele>193</ele>
        <time>2020-09-12T19:18:21.000Z</time>
      </trkpt>
      <trkpt lat="45.26204" lon="1.76055">
        <ele>193</ele>
        <time>2020-09-12T19:18:22.000Z</time>
      </trkpt>
      <trkpt lat="45.26209" lon="1.76057">
        <ele>194</ele>
        <time>2020-09-12T19:18:23.000Z</time>
      </trkpt>
      <trkpt lat="45.26212" lon="1.76061">
        <ele>193</ele>
        <time>2020-09-12T19:18:24.000Z</time>
      </trkpt>
      <trkpt lat="45.26216" lon="1.76064">
        <ele>193</ele>
        <time>2020-09-12T19:18:25.000Z</time>
      </trkpt>
      <trkpt lat="45.26219" lon="1.76067">
        <ele>192</ele>
        <time>2020-09-12T19:18:26.000Z</time>
      </trkpt>
      <trkpt lat="45.26222" lon="1.7607">
        <ele>191</ele>
        <time>2020-09-12T19:18:27.000Z</time>
      </trkpt>
      <trkpt lat="45.26224" lon="1.76075">
        <ele>190</ele>
        <time>2020-09-12T19:18:28.000Z</time>
      </trkpt>
      <trkpt lat="45.26228" lon="1.76079">
        <ele>191</ele>
        <time>2020-09-12T19:18:29.000Z</time>
      </trkpt>
      <trkpt lat="45.26231" lon="1.76084">
        <ele>192</ele>
        <time>2020-09-12T19:18:30.000Z</time>
      </trkpt>
      <trkpt lat="45.26235" lon="1.76089">
        <ele>193</ele>
        <time>2020-09-12T19:18:31.000Z</time>
      </trkpt>
      <trkpt lat="45.26238" lon="1.76093">
        <ele>193</ele>
        <time>2020-09-12T19:18:32.000Z</time>
      </trkpt>
      <trkpt lat="45.26242" lon="1.76097">
        <ele>193</ele>
        <time>2020-09-12T19:18:33.000Z</time>
      </trkpt>
      <trkpt lat="45.26245" lon="1.76102">
        <ele>192</ele>
        <time>2020-09-12T19:18:34.000Z</time>
      </trkpt>
      <trkpt lat="45.26249" lon="1.76106">
        <ele>193</ele>
        <time>2020-09-12T19:18:35.000Z</time>
      </trkpt>
      <trkpt lat="45.26252" lon="1.76111">
        <ele>193</ele>
        <time>2020-09-12T19:18:36.000Z</time>
      </trkpt>
      <trkpt lat="45.26255" lon="1.76116">
        <ele>195</ele>
        <time>2020-09-12T19:18:37.000Z</time>
      </trkpt>
      <trkpt lat="45.26259" lon="1.7612">
        <ele>194</ele>
        <time>2020-09-12T19:18:38.000Z</time>
      </trkpt>
      <trkpt lat="45.26261" lon="1.76126">
        <ele>194</ele>
        <time>2020-09-12T19:18:39.000Z</time>
      </trkpt>
      <trkpt lat="45.26264" lon="1.76131">
        <ele>193</ele>
        <time>2020-09-12T19:18:40.000Z</time>
      </trkpt>
      <trkpt lat="45.26266" lon="1.76137">
        <ele>194</ele>
        <time>2020-09-12T19:18:41.000Z</time>
      </trkpt>
      <trkpt lat="45.26269" lon="1.76142">
        <ele>193</ele>
        <time>2020-09-12T19:18:42.000Z</time>
      </trkpt>
      <trkpt lat="45.26271" lon="1.76146">
        <ele>192</ele>
        <time>2020-09-12T19:18:43.000Z</time>
      </trkpt>
      <trkpt lat="45.26274" lon="1.76151">
        <ele>191</ele>
        <time>2020-09-12T19:18:44.000Z</time>
      </trkpt>
      <trkpt lat="45.26277" lon="1.76155">
        <ele>191</ele>
        <time>2020-09-12T19:18:45.000Z</time>
      </trkpt>
      <trkpt lat="45.2628" lon="1.7616">
        <ele>190</ele>
        <time>2020-09-12T19:18:46.000Z</time>
      </trkpt>
      <trkpt lat="45.26282" lon="1.76165">
        <ele>189</ele>
        <time>2020-09-12T19:18:47.000Z</time>
      </trkpt>
      <trkpt lat="45.26284" lon="1.76171">
        <ele>189</ele>
        <time>2020-09-12T19:18:48.000Z</time>
      </trkpt>
      <trkpt lat="45.26287" lon="1.76176">
        <ele>187</ele>
        <time>2020-09-12T19:18:49.000Z</time>
      </trkpt>
      <trkpt lat="45.2629" lon="1.7618">
        <ele>186</ele>
        <time>2020-09-12T19:18:50.000Z</time>
      </trkpt>
      <trkpt lat="45.26293" lon="1.76185">
        <ele>187</ele>
        <time>2020-09-12T19:18:51.000Z</time>
      </trkpt>
      <trkpt lat="45.26294" lon="1.76191">
        <ele>186</ele>
        <time>2020-09-12T19:18:52.000Z</time>
      </trkpt>
      <trkpt lat="45.26295" lon="1.76198">
        <ele>185</ele>
        <time>2020-09-12T19:18:53.000Z</time>
      </trkpt>
      <trkpt lat="45.26295" lon="1.76205">
        <ele>185</ele>
        <time>2020-09-12T19:18:54.000Z</time>
      </trkpt>
      <trkpt lat="45.26296" lon="1.76211">
        <ele>184</ele>
        <time>2020-09-12T19:18:55.000Z</time>
      </trkpt>
      <trkpt lat="45.26299" lon="1.76216">
        <ele>183</ele>
        <time>2020-09-12T19:18:56.000Z</time>
      </trkpt>
      <trkpt lat="45.26301" lon="1.76221">
        <ele>182</ele>
        <time>2020-09-12T19:18:57.000Z</time>
      </trkpt>
      <trkpt lat="45.26304" lon="1.76226">
        <ele>181</ele>
        <time>2020-09-12T19:18:58.000Z</time>
      </trkpt>
      <trkpt lat="45.26306" lon="1.76231">
        <ele>182</ele>
        <time>2020-09-12T19:18:59.000Z</time>
      </trkpt>
      <trkpt lat="45.26309" lon="1.76235">
        <ele>181</ele>
        <time>2020-09-12T19:19:00.000Z</time>
      </trkpt>
      <trkpt lat="45.26311" lon="1.7624">
        <ele>181</ele>
        <time>2020-09-12T19:19:01.000Z</time>
      </trkpt>
      <trkpt lat="45.26314" lon="1.76245">
        <ele>181</ele>
        <time>2020-09-12T19:19:02.000Z</time>
      </trkpt>
      <trkpt lat="45.26316" lon="1.76251">
        <ele>181</ele>
        <time>2020-09-12T19:19:03.000Z</time>
      </trkpt>
      <trkpt lat="45.26319" lon="1.76256">
        <ele>181</ele>
        <time>2020-09-12T19:19:04.000Z</time>
      </trkpt>
      <trkpt lat="45.2632" lon="1.76263">
        <ele>178</ele>
        <time>2020-09-12T19:19:05.000Z</time>
      </trkpt>
      <trkpt lat="45.2632" lon="1.76271">
        <ele>180</ele>
        <time>2020-09-12T19:19:06.000Z</time>
      </trkpt>
      <trkpt lat="45.2632" lon="1.76278">
        <ele>181</ele>
        <time>2020-09-12T19:19:07.000Z</time>
      </trkpt>
      <trkpt lat="45.26321" lon="1.76283">
        <ele>181</ele>
        <time>2020-09-12T19:19:08.000Z</time>
      </trkpt>
      <trkpt lat="45.26323" lon="1.76289">
        <ele>180</ele>
        <time>2020-09-12T19:19:09.000Z</time>
      </trkpt>
      <trkpt lat="45.26325" lon="1.76294">
        <ele>180</ele>
        <time>2020-09-12T19:19:10.000Z</time>
      </trkpt>
      <trkpt lat="45.26326" lon="1.763">
        <ele>179</ele>
        <time>2020-09-12T19:19:11.000Z</time>
      </trkpt>
      <trkpt lat="45.26328" lon="1.76305">
        <ele>179</ele>
        <time>2020-09-12T19:19:12.000Z</time>
      </trkpt>
      <trkpt lat="45.2633" lon="1.76309">
        <ele>178</ele>
        <time>2020-09-12T19:19:13.000Z</time>
      </trkpt>
      <trkpt lat="45.26333" lon="1.76315">
        <ele>178</ele>
        <time>2020-09-12T19:19:14.000Z</time>
      </trkpt>
      <trkpt lat="45.26334" lon="1.7632">
        <ele>178</ele>
        <time>2020-09-12T19:19:15.000Z</time>
      </trkpt>
      <trkpt lat="45.26336" lon="1.76326">
        <ele>177</ele>
        <time>2020-09-12T19:19:16.000Z</time>
      </trkpt>
      <trkpt lat="45.26337" lon="1.76332">
        <ele>176</ele>
        <time>2020-09-12T19:19:17.000Z</time>
      </trkpt>
      <trkpt lat="45.26338" lon="1.76338">
        <ele>177</ele>
        <time>2020-09-12T19:19:18.000Z</time>
      </trkpt>
      <trkpt lat="45.26339" lon="1.76344">
        <ele>176</ele>
        <time>2020-09-12T19:19:19.000Z</time>
      </trkpt>
      <trkpt lat="45.26341" lon="1.76349">
        <ele>176</ele>
        <time>2020-09-12T19:19:20.000Z</time>
      </trkpt>
      <trkpt lat="45.26343" lon="1.76355">
        <ele>174</ele>
        <time>2020-09-12T19:19:21.000Z</time>
      </trkpt>
      <trkpt lat="45.26345" lon="1.76361">
        <ele>174</ele>
        <time>2020-09-12T19:19:22.000Z</time>
      </trkpt>
      <trkpt lat="45.26346" lon="1.76368">
        <ele>175</ele>
        <time>2020-09-12T19:19:23.000Z</time>
      </trkpt>
      <trkpt lat="45.26346" lon="1.76375">
        <ele>175</ele>
        <time>2020-09-12T19:19:24.000Z</time>
      </trkpt>
      <trkpt lat="45.26348" lon="1.76382">
        <ele>174</ele>
        <time>2020-09-12T19:19:25.000Z</time>
      </trkpt>
      <trkpt lat="45.26348" lon="1.76388">
        <ele>174</ele>
        <time>2020-09-12T19:19:26.000Z</time>
      </trkpt>
      <trkpt lat="45.2635" lon="1.76394">
        <ele>176</ele>
        <time>2020-09-12T19:19:27.000Z</time>
      </trkpt>
      <trkpt lat="45.26353" lon="1.764">
        <ele>177</ele>
        <time>2020-09-12T19:19:28.000Z</time>
      </trkpt>
      <trkpt lat="45.26355" lon="1.76406">
        <ele>178</ele>
        <time>2020-09-12T19:19:29.000Z</time>
      </trkpt>
      <trkpt lat="45.26357" lon="1.76411">
        <ele>181</ele>
        <time>2020-09-12T19:19:30.000Z</time>
      </trkpt>
      <trkpt lat="45.26359" lon="1.76417">
        <ele>182</ele>
        <time>2020-09-12T19:19:31.000Z</time>
      </trkpt>
      <trkpt lat="45.26361" lon="1.76424">
        <ele>183</ele>
        <time>2020-09-12T19:19:32.000Z</time>
      </trkpt>
      <trkpt lat="45.26362" lon="1.7643">
        <ele>182</ele>
        <time>2020-09-12T19:19:33.000Z</time>
      </trkpt>
      <trkpt lat="45.26363" lon="1.76437">
        <ele>183</ele>
        <time>2020-09-12T19:19:34.000Z</time>
      </trkpt>
      <trkpt lat="45.26364" lon="1.76443">
        <ele>183</ele>
        <time>2020-09-12T19:19:35.000Z</time>
      </trkpt>
      <trkpt lat="45.26366" lon="1.7645">
        <ele>185</ele>
        <time>2020-09-12T19:19:36.000Z</time>
      </trkpt>
      <trkpt lat="45.26368" lon="1.76457">
        <ele>186</ele>
        <time>2020-09-12T19:19:37.000Z</time>
      </trkpt>
      <trkpt lat="45.2637" lon="1.76463">
        <ele>186</ele>
        <time>2020-09-12T19:19:38.000Z</time>
      </trkpt>
      <trkpt lat="45.26372" lon="1.7647">
        <ele>189</ele>
        <time>2020-09-12T19:19:39.000Z</time>
      </trkpt>
      <trkpt lat="45.26373" lon="1.76476">
        <ele>191</ele>
        <time>2020-09-12T19:19:40.000Z</time>
      </trkpt>
      <trkpt lat="45.26375" lon="1.76483">
        <ele>192</ele>
        <time>2020-09-12T19:19:41.000Z</time>
      </trkpt>
      <trkpt lat="45.26376" lon="1.76489">
        <ele>192</ele>
        <time>2020-09-12T19:19:42.000Z</time>
      </trkpt>
      <trkpt lat="45.26377" lon="1.76496">
        <ele>192</ele>
        <time>2020-09-12T19:19:43.000Z</time>
      </trkpt>
      <trkpt lat="45.26378" lon="1.76502">
        <ele>193</ele>
        <time>2020-09-12T19:19:44.000Z</time>
      </trkpt>
      <trkpt lat="45.2638" lon="1.76509">
        <ele>195</ele>
        <time>2020-09-12T19:19:45.000Z</time>
      </trkpt>
      <trkpt lat="45.26382" lon="1.76515">
        <ele>196</ele>
        <time>2020-09-12T19:19:46.000Z</time>
      </trkpt>
      <trkpt lat="45.26384" lon="1.76521">
        <ele>197</ele>
        <time>2020-09-12T19:19:47.000Z</time>
      </trkpt>
      <trkpt lat="45.26386" lon="1.76527">
        <ele>197</ele>
        <time>2020-09-12T19:19:48.000Z</time>
      </trkpt>
      <trkpt lat="45.26387" lon="1.76534">
        <ele>198</ele>
        <time>2020-09-12T19:19:49.000Z</time>
      </trkpt>
      <trkpt lat="45.26388" lon="1.7654">
        <ele>199</ele>
        <time>2020-09-12T19:19:50.000Z</time>
      </trkpt>
      <trkpt lat="45.26389" lon="1.76547">
        <ele>200</ele>
        <time>2020-09-12T19:19:51.000Z</time>
      </trkpt>
      <trkpt lat="45.26391" lon="1.76553">
        <ele>201</ele>
        <time>2020-09-12T19:19:52.000Z</time>
      </trkpt>
      <trkpt lat="45.26392" lon="1.76559">
        <ele>201</ele>
        <time>2020-09-12T19:19:53.000Z</time>
      </trkpt>
      <trkpt lat="45.26392" lon="1.76565">
        <ele>201</ele>
        <time>2020-09-12T19:19:54.000Z</time>
      </trkpt>
      <trkpt lat="45.26393" lon="1.76572">
        <ele>200</ele>
        <time>2020-09-12T19:19:55.000Z</time>
      </trkpt>
      <trkpt lat="45.26393" lon="1.76579">
        <ele>199</ele>
        <time>2020-09-12T19:19:56.000Z</time>
      </trkpt>
      <trkpt lat="45.26392" lon="1.76585">
        <ele>199</ele>
        <time>2020-09-12T19:19:57.000Z</time>
      </trkpt>
      <trkpt lat="45.26392" lon="1.76592">
        <ele>200</ele>
        <time>2020-09-12T19:19:58.000Z</time>
      </trkpt>
      <trkpt lat="45.26391" lon="1.76598">
        <ele>200</ele>
        <time>2020-09-12T19:19:59.000Z</time>
      </trkpt>
      <trkpt lat="45.2639" lon="1.76604">
        <ele>201</ele>
        <time>2020-09-12T19:20:00.000Z</time>
      </trkpt>
      <trkpt lat="45.26389" lon="1.7661">
        <ele>203</ele>
        <time>2020-09-12T19:20:01.000Z</time>
      </trkpt>
      <trkpt lat="45.26388" lon="1.76616">
        <ele>203</ele>
        <time>2020-09-12T19:20:02.000Z</time>
      </trkpt>
      <trkpt lat="45.26386" lon="1.76622">
        <ele>204</ele>
        <time>2020-09-12T19:20:03.000Z</time>
      </trkpt>
      <trkpt lat="45.26385" lon="1.76627">
        <ele>204</ele>
        <time>2020-09-12T19:20:04.000Z</time>
      </trkpt>
      <trkpt lat="45.26383" lon="1.76633">
        <ele>203</ele>
        <time>2020-09-12T19:20:05.000Z</time>
      </trkpt>
      <trkpt lat="45.26381" lon="1.76638">
        <ele>204</ele>
        <time>2020-09-12T19:20:06.000Z</time>
      </trkpt>
      <trkpt lat="45.26379" lon="1.76644">
        <ele>205</ele>
        <time>2020-09-12T19:20:07.000Z</time>
      </trkpt>
      <trkpt lat="45.26377" lon="1.7665">
        <ele>206</ele>
        <time>2020-09-12T19:20:08.000Z</time>
      </trkpt>
      <trkpt lat="45.26375" lon="1.76657">
        <ele>206</ele>
        <time>2020-09-12T19:20:09.000Z</time>
      </trkpt>
      <trkpt lat="45.26373" lon="1.76663">
        <ele>207</ele>
        <time>2020-09-12T19:20:10.000Z</time>
      </trkpt>
      <trkpt lat="45.2637" lon="1.76669">
        <ele>207</ele>
        <time>2020-09-12T19:20:11.000Z</time>
      </trkpt>
      <trkpt lat="45.26368" lon="1.76676">
        <ele>207</ele>
        <time>2020-09-12T19:20:12.000Z</time>
      </trkpt>
      <trkpt lat="45.26366" lon="1.76682">
        <ele>207</ele>
        <time>2020-09-12T19:20:13.000Z</time>
      </trkpt>
      <trkpt lat="45.26364" lon="1.76688">
        <ele>208</ele>
        <time>2020-09-12T19:20:14.000Z</time>
      </trkpt>
      <trkpt lat="45.26362" lon="1.76694">
        <ele>208</ele>
        <time>2020-09-12T19:20:15.000Z</time>
      </trkpt>
      <trkpt lat="45.2636" lon="1.767">
        <ele>209</ele>
        <time>2020-09-12T19:20:16.000Z</time>
      </trkpt>
      <trkpt lat="45.26359" lon="1.76706">
        <ele>209</ele>
        <time>2020-09-12T19:20:17.000Z</time>
      </trkpt>
      <trkpt lat="45.26357" lon="1.76712">
        <ele>209</ele>
        <time>2020-09-12T19:20:18.000Z</time>
      </trkpt>
      <trkpt lat="45.26355" lon="1.76717">
        <ele>207</ele>
        <time>2020-09-12T19:20:19.000Z</time>
      </trkpt>
      <trkpt lat="45.26353" lon="1.76723">
        <ele>207</ele>
        <time>2020-09-12T19:20:20.000Z</time>
      </trkpt>
      <trkpt lat="45.26351" lon="1.76728">
        <ele>207</ele>
        <time>2020-09-12T19:20:21.000Z</time>
      </trkpt>
      <trkpt lat="45.2635" lon="1.76734">
        <ele>206</ele>
        <time>2020-09-12T19:20:22.000Z</time>
      </trkpt>
      <trkpt lat="45.26349" lon="1.7674">
        <ele>205</ele>
        <time>2020-09-12T19:20:23.000Z</time>
      </trkpt>
      <trkpt lat="45.26348" lon="1.76745">
        <ele>199</ele>
        <time>2020-09-12T19:20:24.000Z</time>
      </trkpt>
      <trkpt lat="45.26346" lon="1.76751">
        <ele>197</ele>
        <time>2020-09-12T19:20:25.000Z</time>
      </trkpt>
      <trkpt lat="45.26345" lon="1.76756">
        <ele>198</ele>
        <time>2020-09-12T19:20:26.000Z</time>
      </trkpt>
      <trkpt lat="45.26343" lon="1.76762">
        <ele>198</ele>
        <time>2020-09-12T19:20:27.000Z</time>
      </trkpt>
      <trkpt lat="45.26343" lon="1.76768">
        <ele>196</ele>
        <time>2020-09-12T19:20:28.000Z</time>
      </trkpt>
      <trkpt lat="45.26342" lon="1.76774">
        <ele>195</ele>
        <time>2020-09-12T19:20:29.000Z</time>
      </trkpt>
      <trkpt lat="45.26341" lon="1.7678">
        <ele>193</ele>
        <time>2020-09-12T19:20:30.000Z</time>
      </trkpt>
      <trkpt lat="45.26341" lon="1.76786">
        <ele>192</ele>
        <time>2020-09-12T19:20:31.000Z</time>
      </trkpt>
      <trkpt lat="45.2634" lon="1.76793">
        <ele>191</ele>
        <time>2020-09-12T19:20:32.000Z</time>
      </trkpt>
      <trkpt lat="45.2634" lon="1.76799">
        <ele>191</ele>
        <time>2020-09-12T19:20:33.000Z</time>
      </trkpt>
      <trkpt lat="45.26339" lon="1.76805">
        <ele>190</ele>
        <time>2020-09-12T19:20:34.000Z</time>
      </trkpt>
      <trkpt lat="45.26338" lon="1.76812">
        <ele>192</ele>
        <time>2020-09-12T19:20:35.000Z</time>
      </trkpt>
      <trkpt lat="45.26337" lon="1.76818">
        <ele>192</ele>
        <time>2020-09-12T19:20:36.000Z</time>
      </trkpt>
      <trkpt lat="45.26337" lon="1.76824">
        <ele>190</ele>
        <time>2020-09-12T19:20:37.000Z</time>
      </trkpt>
      <trkpt lat="45.26338" lon="1.7683">
        <ele>190</ele>
        <time>2020-09-12T19:20:38.000Z</time>
      </trkpt>
      <trkpt lat="45.26338" lon="1.76836">
        <ele>189</ele>
        <time>2020-09-12T19:20:39.000Z</time>
      </trkpt>
      <trkpt lat="45.26339" lon="1.76842">
        <ele>190</ele>
        <time>2020-09-12T19:20:40.000Z</time>
      </trkpt>
      <trkpt lat="45.26339" lon="1.76848">
        <ele>191</ele>
        <time>2020-09-12T19:20:41.000Z</time>
      </trkpt>
      <trkpt lat="45.26339" lon="1.76854">
        <ele>192</ele>
        <time>2020-09-12T19:20:42.000Z</time>
      </trkpt>
      <trkpt lat="45.2634" lon="1.76859">
        <ele>192</ele>
        <time>2020-09-12T19:20:43.000Z</time>
      </trkpt>
      <trkpt lat="45.26341" lon="1.76865">
        <ele>192</ele>
        <time>2020-09-12T19:20:44.000Z</time>
      </trkpt>
      <trkpt lat="45.26342" lon="1.7687">
        <ele>192</ele>
        <time>2020-09-12T19:20:45.000Z</time>
      </trkpt>
      <trkpt lat="45.26343" lon="1.76875">
        <ele>192</ele>
        <time>2020-09-12T19:20:46.000Z</time>
      </trkpt>
      <trkpt lat="45.26343" lon="1.7688">
        <ele>191</ele>
        <time>2020-09-12T19:20:47.000Z</time>
      </trkpt>
      <trkpt lat="45.26344" lon="1.76885">
        <ele>191</ele>
        <time>2020-09-12T19:20:48.000Z</time>
      </trkpt>
      <trkpt lat="45.26345" lon="1.76891">
        <ele>192</ele>
        <time>2020-09-12T19:20:49.000Z</time>
      </trkpt>
      <trkpt lat="45.26346" lon="1.76896">
        <ele>191</ele>
        <time>2020-09-12T19:20:50.000Z</time>
      </trkpt>
      <trkpt lat="45.26348" lon="1.76902">
        <ele>191</ele>
        <time>2020-09-12T19:20:51.000Z</time>
      </trkpt>
      <trkpt lat="45.2635" lon="1.76908">
        <ele>191</ele>
        <time>2020-09-12T19:20:52.000Z</time>
      </trkpt>
      <trkpt lat="45.26352" lon="1.76913">
        <ele>191</ele>
        <time>2020-09-12T19:20:53.000Z</time>
      </trkpt>
      <trkpt lat="45.26354" lon="1.76918">
        <ele>190</ele>
        <time>2020-09-12T19:20:54.000Z</time>
      </trkpt>
      <trkpt lat="45.26356" lon="1.76923">
        <ele>189</ele>
        <time>2020-09-12T19:20:55.000Z</time>
      </trkpt>
      <trkpt lat="45.26359" lon="1.76928">
        <ele>188</ele>
        <time>2020-09-12T19:20:56.000Z</time>
      </trkpt>
      <trkpt lat="45.26362" lon="1.76932">
        <ele>188</ele>
        <time>2020-09-12T19:20:57.000Z</time>
      </trkpt>
      <trkpt lat="45.26365" lon="1.76936">
        <ele>186</ele>
        <time>2020-09-12T19:20:58.000Z</time>
      </trkpt>
      <trkpt lat="45.26369" lon="1.7694">
        <ele>187</ele>
        <time>2020-09-12T19:20:59.000Z</time>
      </trkpt>
      <trkpt lat="45.26373" lon="1.76944">
        <ele>186</ele>
        <time>2020-09-12T19:21:00.000Z</time>
      </trkpt>
      <trkpt lat="45.26375" lon="1.76948">
        <ele>186</ele>
        <time>2020-09-12T19:21:01.000Z</time>
      </trkpt>
      <trkpt lat="45.26378" lon="1.76952">
        <ele>186</ele>
        <time>2020-09-12T19:21:02.000Z</time>
      </trkpt>
      <trkpt lat="45.26381" lon="1.76956">
        <ele>186</ele>
        <time>2020-09-12T19:21:03.000Z</time>
      </trkpt>
      <trkpt lat="45.26384" lon="1.76959">
        <ele>186</ele>
        <time>2020-09-12T19:21:04.000Z</time>
      </trkpt>
      <trkpt lat="45.26388" lon="1.76962">
        <ele>186</ele>
        <time>2020-09-12T19:21:05.000Z</time>
      </trkpt>
      <trkpt lat="45.26391" lon="1.76965">
        <ele>186</ele>
        <time>2020-09-12T19:21:06.000Z</time>
      </trkpt>
      <trkpt lat="45.26395" lon="1.76968">
        <ele>186</ele>
        <time>2020-09-12T19:21:07.000Z</time>
      </trkpt>
      <trkpt lat="45.26398" lon="1.76972">
        <ele>186</ele>
        <time>2020-09-12T19:21:08.000Z</time>
      </trkpt>
      <trkpt lat="45.26402" lon="1.76975">
        <ele>186</ele>
        <time>2020-09-12T19:21:09.000Z</time>
      </trkpt>
      <trkpt lat="45.26405" lon="1.76978">
        <ele>186</ele>
        <time>2020-09-12T19:21:10.000Z</time>
      </trkpt>
      <trkpt lat="45.26408" lon="1.7698">
        <ele>186</ele>
        <time>2020-09-12T19:21:11.000Z</time>
      </trkpt>
      <trkpt lat="45.26412" lon="1.76982">
        <ele>189</ele>
        <time>2020-09-12T19:21:12.000Z</time>
      </trkpt>
      <trkpt lat="45.26416" lon="1.76984">
        <ele>190</ele>
        <time>2020-09-12T19:21:13.000Z</time>
      </trkpt>
      <trkpt lat="45.2642" lon="1.76984">
        <ele>192</ele>
        <time>2020-09-12T19:21:14.000Z</time>
      </trkpt>
      <trkpt lat="45.26424" lon="1.76985">
        <ele>193</ele>
        <time>2020-09-12T19:21:15.000Z</time>
      </trkpt>
      <trkpt lat="45.26429" lon="1.76986">
        <ele>195</ele>
        <time>2020-09-12T19:21:16.000Z</time>
      </trkpt>
      <trkpt lat="45.26433" lon="1.76987">
        <ele>196</ele>
        <time>2020-09-12T19:21:17.000Z</time>
      </trkpt>
      <trkpt lat="45.26438" lon="1.76989">
        <ele>198</ele>
        <time>2020-09-12T19:21:18.000Z</time>
      </trkpt>
      <trkpt lat="45.26443" lon="1.76989">
        <ele>201</ele>
        <time>2020-09-12T19:21:19.000Z</time>
      </trkpt>
      <trkpt lat="45.26448" lon="1.7699">
        <ele>203</ele>
        <time>2020-09-12T19:21:20.000Z</time>
      </trkpt>
      <trkpt lat="45.26453" lon="1.76991">
        <ele>205</ele>
        <time>2020-09-12T19:21:21.000Z</time>
      </trkpt>
      <trkpt lat="45.26457" lon="1.76991">
        <ele>208</ele>
        <time>2020-09-12T19:21:22.000Z</time>
      </trkpt>
      <trkpt lat="45.26461" lon="1.76991">
        <ele>211</ele>
        <time>2020-09-12T19:21:23.000Z</time>
      </trkpt>
      <trkpt lat="45.26465" lon="1.76991">
        <ele>215</ele>
        <time>2020-09-12T19:21:24.000Z</time>
      </trkpt>
      <trkpt lat="45.26469" lon="1.76991">
        <ele>217</ele>
        <time>2020-09-12T19:21:25.000Z</time>
      </trkpt>
      <trkpt lat="45.26473" lon="1.76991">
        <ele>217</ele>
        <time>2020-09-12T19:21:26.000Z</time>
      </trkpt>
      <trkpt lat="45.26477" lon="1.76993">
        <ele>215</ele>
        <time>2020-09-12T19:21:27.000Z</time>
      </trkpt>
      <trkpt lat="45.26482" lon="1.76994">
        <ele>216</ele>
        <time>2020-09-12T19:21:28.000Z</time>
      </trkpt>
      <trkpt lat="45.26486" lon="1.76996">
        <ele>214</ele>
        <time>2020-09-12T19:21:29.000Z</time>
      </trkpt>
      <trkpt lat="45.26491" lon="1.76998">
        <ele>212</ele>
        <time>2020-09-12T19:21:30.000Z</time>
      </trkpt>
      <trkpt lat="45.26496" lon="1.77001">
        <ele>210</ele>
        <time>2020-09-12T19:21:31.000Z</time>
      </trkpt>
      <trkpt lat="45.26501" lon="1.77003">
        <ele>210</ele>
        <time>2020-09-12T19:21:32.000Z</time>
      </trkpt>
      <trkpt lat="45.26506" lon="1.77005">
        <ele>211</ele>
        <time>2020-09-12T19:21:33.000Z</time>
      </trkpt>
      <trkpt lat="45.2651" lon="1.77006">
        <ele>208</ele>
        <time>2020-09-12T19:21:34.000Z</time>
      </trkpt>
      <trkpt lat="45.26514" lon="1.77009">
        <ele>207</ele>
        <time>2020-09-12T19:21:35.000Z</time>
      </trkpt>
      <trkpt lat="45.26519" lon="1.7701">
        <ele>207</ele>
        <time>2020-09-12T19:21:36.000Z</time>
      </trkpt>
      <trkpt lat="45.26523" lon="1.77012">
        <ele>206</ele>
        <time>2020-09-12T19:21:37.000Z</time>
      </trkpt>
      <trkpt lat="45.26527" lon="1.77014">
        <ele>205</ele>
        <time>2020-09-12T19:21:38.000Z</time>
      </trkpt>
      <trkpt lat="45.26532" lon="1.77017">
        <ele>205</ele>
        <time>2020-09-12T19:21:39.000Z</time>
      </trkpt>
      <trkpt lat="45.26536" lon="1.77019">
        <ele>206</ele>
        <time>2020-09-12T19:21:40.000Z</time>
      </trkpt>
      <trkpt lat="45.26539" lon="1.77022">
        <ele>206</ele>
        <time>2020-09-12T19:21:41.000Z</time>
      </trkpt>
      <trkpt lat="45.26543" lon="1.77024">
        <ele>206</ele>
        <time>2020-09-12T19:21:42.000Z</time>
      </trkpt>
      <trkpt lat="45.26547" lon="1.77027">
        <ele>206</ele>
        <time>2020-09-12T19:21:43.000Z</time>
      </trkpt>
      <trkpt lat="45.26552" lon="1.77029">
        <ele>205</ele>
        <time>2020-09-12T19:21:44.000Z</time>
      </trkpt>
      <trkpt lat="45.26556" lon="1.77032">
        <ele>205</ele>
        <time>2020-09-12T19:21:45.000Z</time>
      </trkpt>
      <trkpt lat="45.2656" lon="1.77036">
        <ele>205</ele>
        <time>2020-09-12T19:21:46.000Z</time>
      </trkpt>
      <trkpt lat="45.26564" lon="1.77039">
        <ele>203</ele>
        <time>2020-09-12T19:21:47.000Z</time>
      </trkpt>
      <trkpt lat="45.26568" lon="1.77043">
        <ele>204</ele>
        <time>2020-09-12T19:21:48.000Z</time>
      </trkpt>
      <trkpt lat="45.26571" lon="1.77047">
        <ele>202</ele>
        <time>2020-09-12T19:21:49.000Z</time>
      </trkpt>
      <trkpt lat="45.26574" lon="1.77052">
        <ele>203</ele>
        <time>2020-09-12T19:21:50.000Z</time>
      </trkpt>
      <trkpt lat="45.26577" lon="1.77056">
        <ele>203</ele>
        <time>2020-09-12T19:21:51.000Z</time>
      </trkpt>
      <trkpt lat="45.26581" lon="1.7706">
        <ele>203</ele>
        <time>2020-09-12T19:21:52.000Z</time>
      </trkpt>
      <trkpt lat="45.26585" lon="1.77063">
        <ele>202</ele>
        <time>2020-09-12T19:21:53.000Z</time>
      </trkpt>
      <trkpt lat="45.26588" lon="1.77067">
        <ele>202</ele>
        <time>2020-09-12T19:21:54.000Z</time>
      </trkpt>
      <trkpt lat="45.26592" lon="1.77071">
        <ele>201</ele>
        <time>2020-09-12T19:21:55.000Z</time>
      </trkpt>
      <trkpt lat="45.26595" lon="1.77075">
        <ele>200</ele>
        <time>2020-09-12T19:21:56.000Z</time>
      </trkpt>
      <trkpt lat="45.26598" lon="1.77079">
        <ele>199</ele>
        <time>2020-09-12T19:21:57.000Z</time>
      </trkpt>
      <trkpt lat="45.26601" lon="1.77083">
        <ele>199</ele>
        <time>2020-09-12T19:21:58.000Z</time>
      </trkpt>
      <trkpt lat="45.26605" lon="1.77087">
        <ele>199</ele>
        <time>2020-09-12T19:21:59.000Z</time>
      </trkpt>
      <trkpt lat="45.26608" lon="1.77091">
        <ele>199</ele>
        <time>2020-09-12T19:22:00.000Z</time>
      </trkpt>
      <trkpt lat="45.26611" lon="1.77095">
        <ele>198</ele>
        <time>2020-09-12T19:22:01.000Z</time>
      </trkpt>
      <trkpt lat="45.26614" lon="1.77099">
        <ele>199</ele>
        <time>2020-09-12T19:22:02.000Z</time>
      </trkpt>
      <trkpt lat="45.26617" lon="1.77103">
        <ele>198</ele>
        <time>2020-09-12T19:22:03.000Z</time>
      </trkpt>
      <trkpt lat="45.26621" lon="1.77107">
        <ele>198</ele>
        <time>2020-09-12T19:22:04.000Z</time>
      </trkpt>
      <trkpt lat="45.26624" lon="1.7711">
        <ele>197</ele>
        <time>2020-09-12T19:22:05.000Z</time>
      </trkpt>
      <trkpt lat="45.26627" lon="1.77114">
        <ele>197</ele>
        <time>2020-09-12T19:22:06.000Z</time>
      </trkpt>
      <trkpt lat="45.2663" lon="1.77118">
        <ele>197</ele>
        <time>2020-09-12T19:22:07.000Z</time>
      </trkpt>
      <trkpt lat="45.26634" lon="1.77121">
        <ele>197</ele>
        <time>2020-09-12T19:22:08.000Z</time>
      </trkpt>
      <trkpt lat="45.26637" lon="1.77125">
        <ele>196</ele>
        <time>2020-09-12T19:22:09.000Z</time>
      </trkpt>
      <trkpt lat="45.26641" lon="1.77128">
        <ele>196</ele>
        <time>2020-09-12T19:22:10.000Z</time>
      </trkpt>
      <trkpt lat="45.26645" lon="1.77132">
        <ele>195</ele>
        <time>2020-09-12T19:22:11.000Z</time>
      </trkpt>
      <trkpt lat="45.26648" lon="1.77136">
        <ele>194</ele>
        <time>2020-09-12T19:22:12.000Z</time>
      </trkpt>
      <trkpt lat="45.26651" lon="1.7714">
        <ele>194</ele>
        <time>2020-09-12T19:22:13.000Z</time>
      </trkpt>
      <trkpt lat="45.26654" lon="1.77144">
        <ele>195</ele>
        <time>2020-09-12T19:22:14.000Z</time>
      </trkpt>
      <trkpt lat="45.26657" lon="1.77148">
        <ele>195</ele>
        <time>2020-09-12T19:22:15.000Z</time>
      </trkpt>
      <trkpt lat="45.2666" lon="1.77151">
        <ele>195</ele>
        <time>2020-09-12T19:22:16.000Z</time>
      </trkpt>
      <trkpt lat="45.26664" lon="1.77155">
        <ele>195</ele>
        <time>2020-09-12T19:22:17.000Z</time>
      </trkpt>
      <trkpt lat="45.26668" lon="1.77158">
        <ele>195</ele>
        <time>2020-09-12T19:22:18.000Z</time>
      </trkpt>
      <trkpt lat="45.26672" lon="1.77161">
        <ele>196</ele>
        <time>2020-09-12T19:22:19.000Z</time>
      </trkpt>
      <trkpt lat="45.26675" lon="1.77165">
        <ele>196</ele>
        <time>2020-09-12T19:22:20.000Z</time>
      </trkpt>
      <trkpt lat="45.26679" lon="1.77168">
        <ele>196</ele>
        <time>2020-09-12T19:22:21.000Z</time>
      </trkpt>
      <trkpt lat="45.26683" lon="1.77171">
        <ele>196</ele>
        <time>2020-09-12T19:22:22.000Z</time>
      </trkpt>
      <trkpt lat="45.26686" lon="1.77174">
        <ele>197</ele>
        <time>2020-09-12T19:22:23.000Z</time>
      </trkpt>
      <trkpt lat="45.2669" lon="1.77176">
        <ele>197</ele>
        <time>2020-09-12T19:22:24.000Z</time>
      </trkpt>
      <trkpt lat="45.26694" lon="1.77179">
        <ele>197</ele>
        <time>2020-09-12T19:22:25.000Z</time>
      </trkpt>
      <trkpt lat="45.26698" lon="1.77182">
        <ele>198</ele>
        <time>2020-09-12T19:22:26.000Z</time>
      </trkpt>
      <trkpt lat="45.26702" lon="1.77185">
        <ele>198</ele>
        <time>2020-09-12T19:22:27.000Z</time>
      </trkpt>
      <trkpt lat="45.26707" lon="1.77188">
        <ele>198</ele>
        <time>2020-09-12T19:22:28.000Z</time>
      </trkpt>
      <trkpt lat="45.26711" lon="1.7719">
        <ele>198</ele>
        <time>2020-09-12T19:22:29.000Z</time>
      </trkpt>
      <trkpt lat="45.26716" lon="1.77193">
        <ele>199</ele>
        <time>2020-09-12T19:22:30.000Z</time>
      </trkpt>
      <trkpt lat="45.26721" lon="1.77195">
        <ele>200</ele>
        <time>2020-09-12T19:22:31.000Z</time>
      </trkpt>
      <trkpt lat="45.26725" lon="1.77197">
        <ele>200</ele>
        <time>2020-09-12T19:22:32.000Z</time>
      </trkpt>
      <trkpt lat="45.2673" lon="1.77199">
        <ele>200</ele>
        <time>2020-09-12T19:22:33.000Z</time>
      </trkpt>
      <trkpt lat="45.26734" lon="1.77202">
        <ele>200</ele>
        <time>2020-09-12T19:22:34.000Z</time>
      </trkpt>
      <trkpt lat="45.26738" lon="1.77204">
        <ele>201</ele>
        <time>2020-09-12T19:22:35.000Z</time>
      </trkpt>
      <trkpt lat="45.26742" lon="1.77206">
        <ele>201</ele>
        <time>2020-09-12T19:22:36.000Z</time>
      </trkpt>
      <trkpt lat="45.26746" lon="1.77209">
        <ele>201</ele>
        <time>2020-09-12T19:22:37.000Z</time>
      </trkpt>
      <trkpt lat="45.26749" lon="1.77211">
        <ele>200</ele>
        <time>2020-09-12T19:22:38.000Z</time>
      </trkpt>
      <trkpt lat="45.26753" lon="1.77213">
        <ele>200</ele>
        <time>2020-09-12T19:22:39.000Z</time>
      </trkpt>
      <trkpt lat="45.26757" lon="1.77215">
        <ele>201</ele>
        <time>2020-09-12T19:22:40.000Z</time>
      </trkpt>
      <trkpt lat="45.26762" lon="1.77216">
        <ele>201</ele>
        <time>2020-09-12T19:22:41.000Z</time>
      </trkpt>
      <trkpt lat="45.26766" lon="1.77217">
        <ele>202</ele>
        <time>2020-09-12T19:22:42.000Z</time>
      </trkpt>
      <trkpt lat="45.26771" lon="1.77218">
        <ele>202</ele>
        <time>2020-09-12T19:22:43.000Z</time>
      </trkpt>
      <trkpt lat="45.26775" lon="1.7722">
        <ele>202</ele>
        <time>2020-09-12T19:22:44.000Z</time>
      </trkpt>
      <trkpt lat="45.26778" lon="1.77221">
        <ele>202</ele>
        <time>2020-09-12T19:22:45.000Z</time>
      </trkpt>
      <trkpt lat="45.26782" lon="1.77223">
        <ele>204</ele>
        <time>2020-09-12T19:22:46.000Z</time>
      </trkpt>
      <trkpt lat="45.26786" lon="1.77224">
        <ele>205</ele>
        <time>2020-09-12T19:22:47.000Z</time>
      </trkpt>
      <trkpt lat="45.2679" lon="1.77226">
        <ele>206</ele>
        <time>2020-09-12T19:22:48.000Z</time>
      </trkpt>
      <trkpt lat="45.26794" lon="1.77228">
        <ele>207</ele>
        <time>2020-09-12T19:22:49.000Z</time>
      </trkpt>
      <trkpt lat="45.26798" lon="1.7723">
        <ele>208</ele>
        <time>2020-09-12T19:22:50.000Z</time>
      </trkpt>
      <trkpt lat="45.26802" lon="1.77231">
        <ele>209</ele>
        <time>2020-09-12T19:22:51.000Z</time>
      </trkpt>
      <trkpt lat="45.26806" lon="1.77232">
        <ele>209</ele>
        <time>2020-09-12T19:22:52.000Z</time>
      </trkpt>
      <trkpt lat="45.2681" lon="1.77234">
        <ele>210</ele>
        <time>2020-09-12T19:22:53.000Z</time>
      </trkpt>
      <trkpt lat="45.26815" lon="1.77236">
        <ele>210</ele>
        <time>2020-09-12T19:22:54.000Z</time>
      </trkpt>
      <trkpt lat="45.26819" lon="1.77237">
        <ele>209</ele>
        <time>2020-09-12T19:22:55.000Z</time>
      </trkpt>
      <trkpt lat="45.26823" lon="1.77238">
        <ele>208</ele>
        <time>2020-09-12T19:22:56.000Z</time>
      </trkpt>
      <trkpt lat="45.26827" lon="1.77237">
        <ele>206</ele>
        <time>2020-09-12T19:22:57.000Z</time>
      </trkpt>
      <trkpt lat="45.26831" lon="1.77234">
        <ele>205</ele>
        <time>2020-09-12T19:22:58.000Z</time>
      </trkpt>
      <trkpt lat="45.26834" lon="1.7723">
        <ele>204</ele>
        <time>2020-09-12T19:22:59.000Z</time>
      </trkpt>
      <trkpt lat="45.26837" lon="1.77224">
        <ele>205</ele>
        <time>2020-09-12T19:23:00.000Z</time>
      </trkpt>
      <trkpt lat="45.26838" lon="1.77218">
        <ele>203</ele>
        <time>2020-09-12T19:23:01.000Z</time>
      </trkpt>
      <trkpt lat="45.26838" lon="1.77213">
        <ele>202</ele>
        <time>2020-09-12T19:23:02.000Z</time>
      </trkpt>
      <trkpt lat="45.26837" lon="1.77208">
        <ele>202</ele>
        <time>2020-09-12T19:23:03.000Z</time>
      </trkpt>
      <trkpt lat="45.26835" lon="1.77204">
        <ele>202</ele>
        <time>2020-09-12T19:23:04.000Z</time>
      </trkpt>
      <trkpt lat="45.26833" lon="1.772">
        <ele>201</ele>
        <time>2020-09-12T19:23:05.000Z</time>
      </trkpt>
      <trkpt lat="45.26831" lon="1.77197">
        <ele>200</ele>
        <time>2020-09-12T19:23:06.000Z</time>
      </trkpt>
      <trkpt lat="45.26829" lon="1.77195">
        <ele>199</ele>
        <time>2020-09-12T19:23:07.000Z</time>
      </trkpt>
      <trkpt lat="45.26827" lon="1.77193">
        <ele>199</ele>
        <time>2020-09-12T19:23:08.000Z</time>
      </trkpt>
      <trkpt lat="45.26825" lon="1.77192">
        <ele>199</ele>
        <time>2020-09-12T19:23:09.000Z</time>
      </trkpt>
      <trkpt lat="45.26823" lon="1.7719">
        <ele>200</ele>
        <time>2020-09-12T19:23:10.000Z</time>
      </trkpt>
      <trkpt lat="45.2682" lon="1.77188">
        <ele>202</ele>
        <time>2020-09-12T19:23:11.000Z</time>
      </trkpt>
      <trkpt lat="45.26817" lon="1.77185">
        <ele>201</ele>
        <time>2020-09-12T19:23:12.000Z</time>
      </trkpt>
      <trkpt lat="45.26814" lon="1.77183">
        <ele>202</ele>
        <time>2020-09-12T19:23:13.000Z</time>
      </trkpt>
      <trkpt lat="45.2681" lon="1.7718">
        <ele>202</ele>
        <time>2020-09-12T19:23:14.000Z</time>
      </trkpt>
      <trkpt lat="45.26807" lon="1.77179">
        <ele>203</ele>
        <time>2020-09-12T19:23:15.000Z</time>
      </trkpt>
      <trkpt lat="45.26802" lon="1.77177">
        <ele>202</ele>
        <time>2020-09-12T19:23:16.000Z</time>
      </trkpt>
      <trkpt lat="45.26798" lon="1.77176">
        <ele>203</ele>
        <time>2020-09-12T19:23:17.000Z</time>
      </trkpt>
      <trkpt lat="45.26794" lon="1.77174">
        <ele>203</ele>
        <time>2020-09-12T19:23:18.000Z</time>
      </trkpt>
      <trkpt lat="45.2679" lon="1.77173">
        <ele>203</ele>
        <time>2020-09-12T19:23:19.000Z</time>
      </trkpt>
      <trkpt lat="45.26786" lon="1.77171">
        <ele>202</ele>
        <time>2020-09-12T19:23:20.000Z</time>
      </trkpt>
      <trkpt lat="45.26781" lon="1.7717">
        <ele>201</ele>
        <time>2020-09-12T19:23:21.000Z</time>
      </trkpt>
      <trkpt lat="45.26777" lon="1.77168">
        <ele>200</ele>
        <time>2020-09-12T19:23:22.000Z</time>
      </trkpt>
      <trkpt lat="45.26772" lon="1.77167">
        <ele>199</ele>
        <time>2020-09-12T19:23:23.000Z</time>
      </trkpt>
      <trkpt lat="45.26767" lon="1.77165">
        <ele>200</ele>
        <time>2020-09-12T19:23:24.000Z</time>
      </trkpt>
      <trkpt lat="45.26762" lon="1.77164">
        <ele>201</ele>
        <time>2020-09-12T19:23:25.000Z</time>
      </trkpt>
      <trkpt lat="45.26757" lon="1.77161">
        <ele>200</ele>
        <time>2020-09-12T19:23:26.000Z</time>
      </trkpt>
      <trkpt lat="45.26752" lon="1.77159">
        <ele>200</ele>
        <time>2020-09-12T19:23:27.000Z</time>
      </trkpt>
      <trkpt lat="45.26747" lon="1.77157">
        <ele>200</ele>
        <time>2020-09-12T19:23:28.000Z</time>
      </trkpt>
      <trkpt lat="45.26743" lon="1.77155">
        <ele>201</ele>
        <time>2020-09-12T19:23:29.000Z</time>
      </trkpt>
      <trkpt lat="45.26738" lon="1.77153">
        <ele>203</ele>
        <time>2020-09-12T19:23:30.000Z</time>
      </trkpt>
      <trkpt lat="45.26733" lon="1.77152">
        <ele>205</ele>
        <time>2020-09-12T19:23:31.000Z</time>
      </trkpt>
      <trkpt lat="45.26727" lon="1.77152">
        <ele>206</ele>
        <time>2020-09-12T19:23:32.000Z</time>
      </trkpt>
      <trkpt lat="45.26722" lon="1.77151">
        <ele>207</ele>
        <time>2020-09-12T19:23:33.000Z</time>
      </trkpt>
      <trkpt lat="45.26717" lon="1.77149">
        <ele>208</ele>
        <time>2020-09-12T19:23:34.000Z</time>
      </trkpt>
      <trkpt lat="45.26712" lon="1.77148">
        <ele>208</ele>
        <time>2020-09-12T19:23:35.000Z</time>
      </trkpt>
      <trkpt lat="45.26707" lon="1.77146">
        <ele>210</ele>
        <time>2020-09-12T19:23:36.000Z</time>
      </trkpt>
      <trkpt lat="45.26702" lon="1.77145">
        <ele>211</ele>
        <time>2020-09-12T19:23:37.000Z</time>
      </trkpt>
      <trkpt lat="45.26697" lon="1.77143">
        <ele>212</ele>
        <time>2020-09-12T19:23:38.000Z</time>
      </trkpt>
      <trkpt lat="45.26692" lon="1.77141">
        <ele>214</ele>
        <time>2020-09-12T19:23:39.000Z</time>
      </trkpt>
      <trkpt lat="45.26687" lon="1.7714">
        <ele>215</ele>
        <time>2020-09-12T19:23:40.000Z</time>
      </trkpt>
      <trkpt lat="45.26682" lon="1.77138">
        <ele>217</ele>
        <time>2020-09-12T19:23:41.000Z</time>
      </trkpt>
      <trkpt lat="45.26677" lon="1.77135">
        <ele>217</ele>
        <time>2020-09-12T19:23:42.000Z</time>
      </trkpt>
      <trkpt lat="45.26673" lon="1.77131">
        <ele>218</ele>
        <time>2020-09-12T19:23:43.000Z</time>
      </trkpt>
      <trkpt lat="45.2667" lon="1.77127">
        <ele>217</ele>
        <time>2020-09-12T19:23:44.000Z</time>
      </trkpt>
      <trkpt lat="45.26667" lon="1.77123">
        <ele>216</ele>
        <time>2020-09-12T19:23:45.000Z</time>
      </trkpt>
      <trkpt lat="45.26664" lon="1.77117">
        <ele>216</ele>
        <time>2020-09-12T19:23:46.000Z</time>
      </trkpt>
      <trkpt lat="45.26662" lon="1.77111">
        <ele>216</ele>
        <time>2020-09-12T19:23:47.000Z</time>
      </trkpt>
      <trkpt lat="45.26659" lon="1.77105">
        <ele>214</ele>
        <time>2020-09-12T19:23:48.000Z</time>
      </trkpt>
      <trkpt lat="45.26657" lon="1.77099">
        <ele>215</ele>
        <time>2020-09-12T19:23:49.000Z</time>
      </trkpt>
      <trkpt lat="45.26654" lon="1.77094">
        <ele>215</ele>
        <time>2020-09-12T19:23:50.000Z</time>
      </trkpt>
      <trkpt lat="45.26651" lon="1.77089">
        <ele>215</ele>
        <time>2020-09-12T19:23:51.000Z</time>
      </trkpt>
      <trkpt lat="45.26648" lon="1.77084">
        <ele>214</ele>
        <time>2020-09-12T19:23:52.000Z</time>
      </trkpt>
      <trkpt lat="45.26646" lon="1.7708">
        <ele>215</ele>
        <time>2020-09-12T19:23:53.000Z</time>
      </trkpt>
      <trkpt lat="45.26642" lon="1.77075">
        <ele>214</ele>
        <time>2020-09-12T19:23:54.000Z</time>
      </trkpt>
      <trkpt lat="45.26639" lon="1.77072">
        <ele>214</ele>
        <time>2020-09-12T19:23:55.000Z</time>
      </trkpt>
      <trkpt lat="45.26635" lon="1.77069">
        <ele>214</ele>
        <time>2020-09-12T19:23:56.000Z</time>
      </trkpt>
      <trkpt lat="45.26631" lon="1.77066">
        <ele>214</ele>
        <time>2020-09-12T19:23:57.000Z</time>
      </trkpt>
      <trkpt lat="45.26627" lon="1.77063">
        <ele>214</ele>
        <time>2020-09-12T19:23:58.000Z</time>
      </trkpt>
      <trkpt lat="45.26624" lon="1.77059">
        <ele>215</ele>
        <time>2020-09-12T19:23:59.000Z</time>
      </trkpt>
      <trkpt lat="45.2662" lon="1.77055">
        <ele>215</ele>
        <time>2020-09-12T19:24:00.000Z</time>
      </trkpt>
      <trkpt lat="45.26617" lon="1.77051">
        <ele>215</ele>
        <time>2020-09-12T19:24:01.000Z</time>
      </trkpt>
      <trkpt lat="45.26613" lon="1.77048">
        <ele>215</ele>
        <time>2020-09-12T19:24:02.000Z</time>
      </trkpt>
      <trkpt lat="45.26609" lon="1.77045">
        <ele>215</ele>
        <time>2020-09-12T19:24:03.000Z</time>
      </trkpt>
      <trkpt lat="45.26605" lon="1.77042">
        <ele>216</ele>
        <time>2020-09-12T19:24:04.000Z</time>
      </trkpt>
      <trkpt lat="45.266" lon="1.77039">
        <ele>216</ele>
        <time>2020-09-12T19:24:05.000Z</time>
      </trkpt>
      <trkpt lat="45.26596" lon="1.77037">
        <ele>216</ele>
        <time>2020-09-12T19:24:06.000Z</time>
      </trkpt>
      <trkpt lat="45.26591" lon="1.77035">
        <ele>216</ele>
        <time>2020-09-12T19:24:07.000Z</time>
      </trkpt>
      <trkpt lat="45.26587" lon="1.77033">
        <ele>217</ele>
        <time>2020-09-12T19:24:08.000Z</time>
      </trkpt>
      <trkpt lat="45.26583" lon="1.77031">
        <ele>217</ele>
        <time>2020-09-12T19:24:09.000Z</time>
      </trkpt>
      <trkpt lat="45.26579" lon="1.77029">
        <ele>217</ele>
        <time>2020-09-12T19:24:10.000Z</time>
      </trkpt>
      <trkpt lat="45.26575" lon="1.77027">
        <ele>218</ele>
        <time>2020-09-12T19:24:11.000Z</time>
      </trkpt>
      <trkpt lat="45.26571" lon="1.77025">
        <ele>219</ele>
        <time>2020-09-12T19:24:12.000Z</time>
      </trkpt>
      <trkpt lat="45.26567" lon="1.77022">
        <ele>219</ele>
        <time>2020-09-12T19:24:13.000Z</time>
      </trkpt>
      <trkpt lat="45.26563" lon="1.77019">
        <ele>219</ele>
        <time>2020-09-12T19:24:14.000Z</time>
      </trkpt>
      <trkpt lat="45.26559" lon="1.77016">
        <ele>220</ele>
        <time>2020-09-12T19:24:15.000Z</time>
      </trkpt>
      <trkpt lat="45.26555" lon="1.77013">
        <ele>220</ele>
        <time>2020-09-12T19:24:16.000Z</time>
      </trkpt>
      <trkpt lat="45.26551" lon="1.77011">
        <ele>220</ele>
        <time>2020-09-12T19:24:17.000Z</time>
      </trkpt>
      <trkpt lat="45.26547" lon="1.77008">
        <ele>220</ele>
        <time>2020-09-12T19:24:18.000Z</time>
      </trkpt>
      <trkpt lat="45.26543" lon="1.77007">
        <ele>220</ele>
        <time>2020-09-12T19:24:19.000Z</time>
      </trkpt>
      <trkpt lat="45.26538" lon="1.77005">
        <ele>220</ele>
        <time>2020-09-12T19:24:20.000Z</time>
      </trkpt>
      <trkpt lat="45.26535" lon="1.77003">
        <ele>220</ele>
        <time>2020-09-12T19:24:21.000Z</time>
      </trkpt>
      <trkpt lat="45.26532" lon="1.77001">
        <ele>221</ele>
        <time>2020-09-12T19:24:22.000Z</time>
      </trkpt>
      <trkpt lat="45.26529" lon="1.76999">
        <ele>221</ele>
        <time>2020-09-12T19:24:23.000Z</time>
      </trkpt>
      <trkpt lat="45.26526" lon="1.76997">
        <ele>222</ele>
        <time>2020-09-12T19:24:24.000Z</time>
      </trkpt>
      <trkpt lat="45.26522" lon="1.76995">
        <ele>222</ele>
        <time>2020-09-12T19:24:25.000Z</time>
      </trkpt>
      <trkpt lat="45.26519" lon="1.76993">
        <ele>222</ele>
        <time>2020-09-12T19:24:26.000Z</time>
      </trkpt>
      <trkpt lat="45.26515" lon="1.76992">
        <ele>222</ele>
        <time>2020-09-12T19:24:27.000Z</time>
      </trkpt>
      <trkpt lat="45.26511" lon="1.76991">
        <ele>223</ele>
        <time>2020-09-12T19:24:28.000Z</time>
      </trkpt>
      <trkpt lat="45.26508" lon="1.76989">
        <ele>223</ele>
        <time>2020-09-12T19:24:29.000Z</time>
      </trkpt>
      <trkpt lat="45.26505" lon="1.76988">
        <ele>224</ele>
        <time>2020-09-12T19:24:30.000Z</time>
      </trkpt>
      <trkpt lat="45.26501" lon="1.76985">
        <ele>224</ele>
        <time>2020-09-12T19:24:31.000Z</time>
      </trkpt>
      <trkpt lat="45.26497" lon="1.76983">
        <ele>226</ele>
        <time>2020-09-12T19:24:32.000Z</time>
      </trkpt>
      <trkpt lat="45.26493" lon="1.76982">
        <ele>228</ele>
        <time>2020-09-12T19:24:33.000Z</time>
      </trkpt>
      <trkpt lat="45.26488" lon="1.7698">
        <ele>228</ele>
        <time>2020-09-12T19:24:34.000Z</time>
      </trkpt>
      <trkpt lat="45.26484" lon="1.76977">
        <ele>228</ele>
        <time>2020-09-12T19:24:35.000Z</time>
      </trkpt>
      <trkpt lat="45.2648" lon="1.76972">
        <ele>228</ele>
        <time>2020-09-12T19:24:36.000Z</time>
      </trkpt>
      <trkpt lat="45.26476" lon="1.76966">
        <ele>227</ele>
        <time>2020-09-12T19:24:37.000Z</time>
      </trkpt>
      <trkpt lat="45.26473" lon="1.7696">
        <ele>228</ele>
        <time>2020-09-12T19:24:38.000Z</time>
      </trkpt>
      <trkpt lat="45.26471" lon="1.76955">
        <ele>230</ele>
        <time>2020-09-12T19:24:39.000Z</time>
      </trkpt>
      <trkpt lat="45.26468" lon="1.76951">
        <ele>232</ele>
        <time>2020-09-12T19:24:40.000Z</time>
      </trkpt>
      <trkpt lat="45.26465" lon="1.76948">
        <ele>232</ele>
        <time>2020-09-12T19:24:41.000Z</time>
      </trkpt>
      <trkpt lat="45.26462" lon="1.76945">
        <ele>227</ele>
        <time>2020-09-12T19:24:42.000Z</time>
      </trkpt>
      <trkpt lat="45.26462" lon="1.76945">
        <ele>224</ele>
        <time>2020-09-12T19:24:45.000Z</time>
      </trkpt>
      <trkpt lat="45.26462" lon="1.76945">
        <ele>222</ele>
        <time>2020-09-12T19:24:46.000Z</time>
      </trkpt>
      <trkpt lat="45.26453" lon="1.76933">
        <ele>221</ele>
        <time>2020-09-12T19:24:47.000Z</time>
      </trkpt>
      <trkpt lat="45.26445" lon="1.7692">
        <ele>221</ele>
        <time>2020-09-12T19:24:48.000Z</time>
      </trkpt>
      <trkpt lat="45.26437" lon="1.76906">
        <ele>220</ele>
        <time>2020-09-12T19:24:49.000Z</time>
      </trkpt>
      <trkpt lat="45.26434" lon="1.76899">
        <ele>221</ele>
        <time>2020-09-12T19:24:50.000Z</time>
      </trkpt>
      <trkpt lat="45.26433" lon="1.76893">
        <ele>220</ele>
        <time>2020-09-12T19:24:51.000Z</time>
      </trkpt>
      <trkpt lat="45.26431" lon="1.76886">
        <ele>220</ele>
        <time>2020-09-12T19:24:52.000Z</time>
      </trkpt>
      <trkpt lat="45.2643" lon="1.76878">
        <ele>220</ele>
        <time>2020-09-12T19:24:53.000Z</time>
      </trkpt>
      <trkpt lat="45.26429" lon="1.7687">
        <ele>220</ele>
        <time>2020-09-12T19:24:54.000Z</time>
      </trkpt>
      <trkpt lat="45.26427" lon="1.76863">
        <ele>221</ele>
        <time>2020-09-12T19:24:55.000Z</time>
      </trkpt>
      <trkpt lat="45.26425" lon="1.76856">
        <ele>221</ele>
        <time>2020-09-12T19:24:56.000Z</time>
      </trkpt>
      <trkpt lat="45.26424" lon="1.76849">
        <ele>222</ele>
        <time>2020-09-12T19:24:57.000Z</time>
      </trkpt>
      <trkpt lat="45.26422" lon="1.76842">
        <ele>222</ele>
        <time>2020-09-12T19:24:58.000Z</time>
      </trkpt>
      <trkpt lat="45.26421" lon="1.76835">
        <ele>222</ele>
        <time>2020-09-12T19:24:59.000Z</time>
      </trkpt>
      <trkpt lat="45.2642" lon="1.76828">
        <ele>222</ele>
        <time>2020-09-12T19:25:00.000Z</time>
      </trkpt>
      <trkpt lat="45.2642" lon="1.7682">
        <ele>223</ele>
        <time>2020-09-12T19:25:01.000Z</time>
      </trkpt>
      <trkpt lat="45.26418" lon="1.76813">
        <ele>223</ele>
        <time>2020-09-12T19:25:02.000Z</time>
      </trkpt>
      <trkpt lat="45.26416" lon="1.76805">
        <ele>222</ele>
        <time>2020-09-12T19:25:03.000Z</time>
      </trkpt>
      <trkpt lat="45.26415" lon="1.76798">
        <ele>222</ele>
        <time>2020-09-12T19:25:04.000Z</time>
      </trkpt>
      <trkpt lat="45.26413" lon="1.76791">
        <ele>223</ele>
        <time>2020-09-12T19:25:05.000Z</time>
      </trkpt>
      <trkpt lat="45.26412" lon="1.76785">
        <ele>223</ele>
        <time>2020-09-12T19:25:06.000Z</time>
      </trkpt>
      <trkpt lat="45.2641" lon="1.76777">
        <ele>223</ele>
        <time>2020-09-12T19:25:07.000Z</time>
      </trkpt>
      <trkpt lat="45.26409" lon="1.76771">
        <ele>222</ele>
        <time>2020-09-12T19:25:08.000Z</time>
      </trkpt>
      <trkpt lat="45.26407" lon="1.76765">
        <ele>221</ele>
        <time>2020-09-12T19:25:09.000Z</time>
      </trkpt>
      <trkpt lat="45.26407" lon="1.7676">
        <ele>219</ele>
        <time>2020-09-12T19:25:10.000Z</time>
      </trkpt>
      <trkpt lat="45.26406" lon="1.76755">
        <ele>217</ele>
        <time>2020-09-12T19:25:11.000Z</time>
      </trkpt>
      <trkpt lat="45.26404" lon="1.7675">
        <ele>217</ele>
        <time>2020-09-12T19:25:12.000Z</time>
      </trkpt>
      <trkpt lat="45.26403" lon="1.76744">
        <ele>216</ele>
        <time>2020-09-12T19:25:13.000Z</time>
      </trkpt>
      <trkpt lat="45.26401" lon="1.76739">
        <ele>216</ele>
        <time>2020-09-12T19:25:14.000Z</time>
      </trkpt>
      <trkpt lat="45.264" lon="1.76733">
        <ele>215</ele>
        <time>2020-09-12T19:25:15.000Z</time>
      </trkpt>
      <trkpt lat="45.26398" lon="1.76727">
        <ele>215</ele>
        <time>2020-09-12T19:25:16.000Z</time>
      </trkpt>
      <trkpt lat="45.26397" lon="1.76722">
        <ele>214</ele>
        <time>2020-09-12T19:25:17.000Z</time>
      </trkpt>
      <trkpt lat="45.26396" lon="1.76716">
        <ele>212</ele>
        <time>2020-09-12T19:25:18.000Z</time>
      </trkpt>
      <trkpt lat="45.26395" lon="1.7671">
        <ele>211</ele>
        <time>2020-09-12T19:25:19.000Z</time>
      </trkpt>
      <trkpt lat="45.26395" lon="1.76705">
        <ele>210</ele>
        <time>2020-09-12T19:25:20.000Z</time>
      </trkpt>
      <trkpt lat="45.26394" lon="1.76699">
        <ele>208</ele>
        <time>2020-09-12T19:25:21.000Z</time>
      </trkpt>
      <trkpt lat="45.26393" lon="1.76694">
        <ele>205</ele>
        <time>2020-09-12T19:25:22.000Z</time>
      </trkpt>
      <trkpt lat="45.26393" lon="1.76688">
        <ele>204</ele>
        <time>2020-09-12T19:25:23.000Z</time>
      </trkpt>
      <trkpt lat="45.26393" lon="1.76683">
        <ele>204</ele>
        <time>2020-09-12T19:25:24.000Z</time>
      </trkpt>
      <trkpt lat="45.26393" lon="1.76677">
        <ele>203</ele>
        <time>2020-09-12T19:25:25.000Z</time>
      </trkpt>
      <trkpt lat="45.26395" lon="1.7667">
        <ele>204</ele>
        <time>2020-09-12T19:25:26.000Z</time>
      </trkpt>
      <trkpt lat="45.26397" lon="1.76664">
        <ele>204</ele>
        <time>2020-09-12T19:25:27.000Z</time>
      </trkpt>
      <trkpt lat="45.26399" lon="1.76658">
        <ele>203</ele>
        <time>2020-09-12T19:25:28.000Z</time>
      </trkpt>
      <trkpt lat="45.264" lon="1.76652">
        <ele>201</ele>
        <time>2020-09-12T19:25:29.000Z</time>
      </trkpt>
      <trkpt lat="45.26401" lon="1.76647">
        <ele>200</ele>
        <time>2020-09-12T19:25:30.000Z</time>
      </trkpt>
      <trkpt lat="45.26402" lon="1.76641">
        <ele>201</ele>
        <time>2020-09-12T19:25:31.000Z</time>
      </trkpt>
      <trkpt lat="45.26403" lon="1.76636">
        <ele>200</ele>
        <time>2020-09-12T19:25:32.000Z</time>
      </trkpt>
      <trkpt lat="45.26405" lon="1.76631">
        <ele>199</ele>
        <time>2020-09-12T19:25:33.000Z</time>
      </trkpt>
      <trkpt lat="45.26407" lon="1.76626">
        <ele>198</ele>
        <time>2020-09-12T19:25:34.000Z</time>
      </trkpt>
      <trkpt lat="45.26409" lon="1.7662">
        <ele>196</ele>
        <time>2020-09-12T19:25:35.000Z</time>
      </trkpt>
      <trkpt lat="45.2641" lon="1.76615">
        <ele>195</ele>
        <time>2020-09-12T19:25:36.000Z</time>
      </trkpt>
      <trkpt lat="45.26411" lon="1.76609">
        <ele>194</ele>
        <time>2020-09-12T19:25:37.000Z</time>
      </trkpt>
      <trkpt lat="45.26411" lon="1.76603">
        <ele>193</ele>
        <time>2020-09-12T19:25:38.000Z</time>
      </trkpt>
      <trkpt lat="45.26412" lon="1.76598">
        <ele>192</ele>
        <time>2020-09-12T19:25:39.000Z</time>
      </trkpt>
      <trkpt lat="45.26413" lon="1.76592">
        <ele>192</ele>
        <time>2020-09-12T19:25:40.000Z</time>
      </trkpt>
      <trkpt lat="45.26414" lon="1.76586">
        <ele>192</ele>
        <time>2020-09-12T19:25:41.000Z</time>
      </trkpt>
      <trkpt lat="45.26416" lon="1.7658">
        <ele>192</ele>
        <time>2020-09-12T19:25:42.000Z</time>
      </trkpt>
      <trkpt lat="45.26417" lon="1.76574">
        <ele>192</ele>
        <time>2020-09-12T19:25:43.000Z</time>
      </trkpt>
      <trkpt lat="45.26418" lon="1.76567">
        <ele>193</ele>
        <time>2020-09-12T19:25:44.000Z</time>
      </trkpt>
      <trkpt lat="45.26418" lon="1.76561">
        <ele>192</ele>
        <time>2020-09-12T19:25:45.000Z</time>
      </trkpt>
      <trkpt lat="45.26419" lon="1.76554">
        <ele>193</ele>
        <time>2020-09-12T19:25:46.000Z</time>
      </trkpt>
      <trkpt lat="45.26421" lon="1.76547">
        <ele>193</ele>
        <time>2020-09-12T19:25:47.000Z</time>
      </trkpt>
      <trkpt lat="45.26422" lon="1.76541">
        <ele>194</ele>
        <time>2020-09-12T19:25:48.000Z</time>
      </trkpt>
      <trkpt lat="45.26423" lon="1.76534">
        <ele>195</ele>
        <time>2020-09-12T19:25:49.000Z</time>
      </trkpt>
      <trkpt lat="45.26423" lon="1.76527">
        <ele>194</ele>
        <time>2020-09-12T19:25:50.000Z</time>
      </trkpt>
      <trkpt lat="45.26423" lon="1.7652">
        <ele>194</ele>
        <time>2020-09-12T19:25:51.000Z</time>
      </trkpt>
      <trkpt lat="45.26423" lon="1.76514">
        <ele>195</ele>
        <time>2020-09-12T19:25:52.000Z</time>
      </trkpt>
      <trkpt lat="45.26423" lon="1.76508">
        <ele>195</ele>
        <time>2020-09-12T19:25:53.000Z</time>
      </trkpt>
      <trkpt lat="45.26423" lon="1.76501">
        <ele>194</ele>
        <time>2020-09-12T19:25:54.000Z</time>
      </trkpt>
      <trkpt lat="45.26423" lon="1.76495">
        <ele>195</ele>
        <time>2020-09-12T19:25:55.000Z</time>
      </trkpt>
      <trkpt lat="45.26422" lon="1.76489">
        <ele>195</ele>
        <time>2020-09-12T19:25:56.000Z</time>
      </trkpt>
      <trkpt lat="45.26421" lon="1.76484">
        <ele>194</ele>
        <time>2020-09-12T19:25:57.000Z</time>
      </trkpt>
      <trkpt lat="45.26421" lon="1.76478">
        <ele>193</ele>
        <time>2020-09-12T19:25:58.000Z</time>
      </trkpt>
      <trkpt lat="45.2642" lon="1.76473">
        <ele>193</ele>
        <time>2020-09-12T19:25:59.000Z</time>
      </trkpt>
      <trkpt lat="45.2642" lon="1.76467">
        <ele>193</ele>
        <time>2020-09-12T19:26:00.000Z</time>
      </trkpt>
      <trkpt lat="45.2642" lon="1.76461">
        <ele>192</ele>
        <time>2020-09-12T19:26:01.000Z</time>
      </trkpt>
      <trkpt lat="45.2642" lon="1.76454">
        <ele>191</ele>
        <time>2020-09-12T19:26:02.000Z</time>
      </trkpt>
      <trkpt lat="45.2642" lon="1.76448">
        <ele>191</ele>
        <time>2020-09-12T19:26:03.000Z</time>
      </trkpt>
      <trkpt lat="45.26419" lon="1.76442">
        <ele>193</ele>
        <time>2020-09-12T19:26:04.000Z</time>
      </trkpt>
      <trkpt lat="45.26419" lon="1.76436">
        <ele>193</ele>
        <time>2020-09-12T19:26:05.000Z</time>
      </trkpt>
      <trkpt lat="45.26419" lon="1.7643">
        <ele>193</ele>
        <time>2020-09-12T19:26:06.000Z</time>
      </trkpt>
      <trkpt lat="45.26418" lon="1.76423">
        <ele>195</ele>
        <time>2020-09-12T19:26:07.000Z</time>
      </trkpt>
      <trkpt lat="45.26418" lon="1.76417">
        <ele>198</ele>
        <time>2020-09-12T19:26:08.000Z</time>
      </trkpt>
      <trkpt lat="45.26418" lon="1.76411">
        <ele>199</ele>
        <time>2020-09-12T19:26:09.000Z</time>
      </trkpt>
      <trkpt lat="45.26419" lon="1.76404">
        <ele>201</ele>
        <time>2020-09-12T19:26:10.000Z</time>
      </trkpt>
      <trkpt lat="45.26419" lon="1.76397">
        <ele>202</ele>
        <time>2020-09-12T19:26:11.000Z</time>
      </trkpt>
      <trkpt lat="45.26419" lon="1.76391">
        <ele>202</ele>
        <time>2020-09-12T19:26:12.000Z</time>
      </trkpt>
      <trkpt lat="45.26419" lon="1.76384">
        <ele>202</ele>
        <time>2020-09-12T19:26:13.000Z</time>
      </trkpt>
      <trkpt lat="45.26418" lon="1.76378">
        <ele>202</ele>
        <time>2020-09-12T19:26:14.000Z</time>
      </trkpt>
      <trkpt lat="45.26417" lon="1.76372">
        <ele>202</ele>
        <time>2020-09-12T19:26:15.000Z</time>
      </trkpt>
      <trkpt lat="45.26416" lon="1.76366">
        <ele>202</ele>
        <time>2020-09-12T19:26:16.000Z</time>
      </trkpt>
      <trkpt lat="45.26415" lon="1.76359">
        <ele>202</ele>
        <time>2020-09-12T19:26:17.000Z</time>
      </trkpt>
      <trkpt lat="45.26415" lon="1.76353">
        <ele>202</ele>
        <time>2020-09-12T19:26:18.000Z</time>
      </trkpt>
      <trkpt lat="45.26414" lon="1.76346">
        <ele>203</ele>
        <time>2020-09-12T19:26:19.000Z</time>
      </trkpt>
      <trkpt lat="45.26414" lon="1.76339">
        <ele>204</ele>
        <time>2020-09-12T19:26:20.000Z</time>
      </trkpt>
      <trkpt lat="45.26414" lon="1.76332">
        <ele>205</ele>
        <time>2020-09-12T19:26:21.000Z</time>
      </trkpt>
      <trkpt lat="45.26413" lon="1.76326">
        <ele>205</ele>
        <time>2020-09-12T19:26:22.000Z</time>
      </trkpt>
      <trkpt lat="45.26413" lon="1.76319">
        <ele>204</ele>
        <time>2020-09-12T19:26:23.000Z</time>
      </trkpt>
      <trkpt lat="45.26413" lon="1.76313">
        <ele>203</ele>
        <time>2020-09-12T19:26:24.000Z</time>
      </trkpt>
      <trkpt lat="45.26412" lon="1.76308">
        <ele>203</ele>
        <time>2020-09-12T19:26:25.000Z</time>
      </trkpt>
      <trkpt lat="45.26411" lon="1.76302">
        <ele>203</ele>
        <time>2020-09-12T19:26:26.000Z</time>
      </trkpt>
      <trkpt lat="45.2641" lon="1.76296">
        <ele>203</ele>
        <time>2020-09-12T19:26:27.000Z</time>
      </trkpt>
      <trkpt lat="45.26409" lon="1.76289">
        <ele>203</ele>
        <time>2020-09-12T19:26:28.000Z</time>
      </trkpt>
      <trkpt lat="45.26407" lon="1.76283">
        <ele>205</ele>
        <time>2020-09-12T19:26:29.000Z</time>
      </trkpt>
      <trkpt lat="45.26406" lon="1.76276">
        <ele>206</ele>
        <time>2020-09-12T19:26:30.000Z</time>
      </trkpt>
      <trkpt lat="45.26406" lon="1.76271">
        <ele>207</ele>
        <time>2020-09-12T19:26:31.000Z</time>
      </trkpt>
      <trkpt lat="45.26405" lon="1.76265">
        <ele>207</ele>
        <time>2020-09-12T19:26:32.000Z</time>
      </trkpt>
      <trkpt lat="45.26403" lon="1.76259">
        <ele>207</ele>
        <time>2020-09-12T19:26:33.000Z</time>
      </trkpt>
      <trkpt lat="45.26402" lon="1.76253">
        <ele>208</ele>
        <time>2020-09-12T19:26:34.000Z</time>
      </trkpt>
      <trkpt lat="45.264" lon="1.76247">
        <ele>208</ele>
        <time>2020-09-12T19:26:35.000Z</time>
      </trkpt>
      <trkpt lat="45.26398" lon="1.7624">
        <ele>208</ele>
        <time>2020-09-12T19:26:36.000Z</time>
      </trkpt>
      <trkpt lat="45.26396" lon="1.76235">
        <ele>208</ele>
        <time>2020-09-12T19:26:37.000Z</time>
      </trkpt>
      <trkpt lat="45.26395" lon="1.76229">
        <ele>209</ele>
        <time>2020-09-12T19:26:38.000Z</time>
      </trkpt>
      <trkpt lat="45.26394" lon="1.76223">
        <ele>209</ele>
        <time>2020-09-12T19:26:39.000Z</time>
      </trkpt>
      <trkpt lat="45.26392" lon="1.76218">
        <ele>209</ele>
        <time>2020-09-12T19:26:40.000Z</time>
      </trkpt>
      <trkpt lat="45.2639" lon="1.76212">
        <ele>210</ele>
        <time>2020-09-12T19:26:41.000Z</time>
      </trkpt>
      <trkpt lat="45.26387" lon="1.76206">
        <ele>209</ele>
        <time>2020-09-12T19:26:42.000Z</time>
      </trkpt>
      <trkpt lat="45.26385" lon="1.76201">
        <ele>209</ele>
        <time>2020-09-12T19:26:43.000Z</time>
      </trkpt>
      <trkpt lat="45.26383" lon="1.76196">
        <ele>209</ele>
        <time>2020-09-12T19:26:44.000Z</time>
      </trkpt>
      <trkpt lat="45.2638" lon="1.76191">
        <ele>208</ele>
        <time>2020-09-12T19:26:45.000Z</time>
      </trkpt>
      <trkpt lat="45.26377" lon="1.76185">
        <ele>207</ele>
        <time>2020-09-12T19:26:46.000Z</time>
      </trkpt>
      <trkpt lat="45.26375" lon="1.7618">
        <ele>207</ele>
        <time>2020-09-12T19:26:47.000Z</time>
      </trkpt>
      <trkpt lat="45.26373" lon="1.76176">
        <ele>206</ele>
        <time>2020-09-12T19:26:48.000Z</time>
      </trkpt>
      <trkpt lat="45.26371" lon="1.76171">
        <ele>206</ele>
        <time>2020-09-12T19:26:49.000Z</time>
      </trkpt>
      <trkpt lat="45.26369" lon="1.76166">
        <ele>207</ele>
        <time>2020-09-12T19:26:50.000Z</time>
      </trkpt>
      <trkpt lat="45.26367" lon="1.76161">
        <ele>208</ele>
        <time>2020-09-12T19:26:51.000Z</time>
      </trkpt>
      <trkpt lat="45.26365" lon="1.76156">
        <ele>209</ele>
        <time>2020-09-12T19:26:52.000Z</time>
      </trkpt>
      <trkpt lat="45.26363" lon="1.7615">
        <ele>209</ele>
        <time>2020-09-12T19:26:53.000Z</time>
      </trkpt>
      <trkpt lat="45.26361" lon="1.76144">
        <ele>209</ele>
        <time>2020-09-12T19:26:54.000Z</time>
      </trkpt>
      <trkpt lat="45.26359" lon="1.76139">
        <ele>210</ele>
        <time>2020-09-12T19:26:55.000Z</time>
      </trkpt>
      <trkpt lat="45.26357" lon="1.76134">
        <ele>209</ele>
        <time>2020-09-12T19:26:56.000Z</time>
      </trkpt>
      <trkpt lat="45.26355" lon="1.76129">
        <ele>209</ele>
        <time>2020-09-12T19:26:57.000Z</time>
      </trkpt>
      <trkpt lat="45.26353" lon="1.76125">
        <ele>208</ele>
        <time>2020-09-12T19:26:58.000Z</time>
      </trkpt>
      <trkpt lat="45.26351" lon="1.7612">
        <ele>207</ele>
        <time>2020-09-12T19:26:59.000Z</time>
      </trkpt>
      <trkpt lat="45.26348" lon="1.76114">
        <ele>207</ele>
        <time>2020-09-12T19:27:00.000Z</time>
      </trkpt>
      <trkpt lat="45.26346" lon="1.76109">
        <ele>206</ele>
        <time>2020-09-12T19:27:01.000Z</time>
      </trkpt>
      <trkpt lat="45.26344" lon="1.76103">
        <ele>206</ele>
        <time>2020-09-12T19:27:02.000Z</time>
      </trkpt>
      <trkpt lat="45.26341" lon="1.76098">
        <ele>205</ele>
        <time>2020-09-12T19:27:03.000Z</time>
      </trkpt>
      <trkpt lat="45.26339" lon="1.76092">
        <ele>206</ele>
        <time>2020-09-12T19:27:04.000Z</time>
      </trkpt>
      <trkpt lat="45.26337" lon="1.76086">
        <ele>205</ele>
        <time>2020-09-12T19:27:05.000Z</time>
      </trkpt>
      <trkpt lat="45.26335" lon="1.7608">
        <ele>204</ele>
        <time>2020-09-12T19:27:06.000Z</time>
      </trkpt>
      <trkpt lat="45.26332" lon="1.76074">
        <ele>204</ele>
        <time>2020-09-12T19:27:07.000Z</time>
      </trkpt>
      <trkpt lat="45.2633" lon="1.76068">
        <ele>204</ele>
        <time>2020-09-12T19:27:08.000Z</time>
      </trkpt>
      <trkpt lat="45.26328" lon="1.76063">
        <ele>204</ele>
        <time>2020-09-12T19:27:09.000Z</time>
      </trkpt>
      <trkpt lat="45.26326" lon="1.76058">
        <ele>203</ele>
        <time>2020-09-12T19:27:10.000Z</time>
      </trkpt>
      <trkpt lat="45.26323" lon="1.76054">
        <ele>202</ele>
        <time>2020-09-12T19:27:11.000Z</time>
      </trkpt>
      <trkpt lat="45.2632" lon="1.7605">
        <ele>202</ele>
        <time>2020-09-12T19:27:12.000Z</time>
      </trkpt>
      <trkpt lat="45.26317" lon="1.76047">
        <ele>200</ele>
        <time>2020-09-12T19:27:13.000Z</time>
      </trkpt>
      <trkpt lat="45.26315" lon="1.76042">
        <ele>200</ele>
        <time>2020-09-12T19:27:14.000Z</time>
      </trkpt>
      <trkpt lat="45.26312" lon="1.76038">
        <ele>200</ele>
        <time>2020-09-12T19:27:15.000Z</time>
      </trkpt>
      <trkpt lat="45.2631" lon="1.76034">
        <ele>200</ele>
        <time>2020-09-12T19:27:16.000Z</time>
      </trkpt>
      <trkpt lat="45.26307" lon="1.7603">
        <ele>200</ele>
        <time>2020-09-12T19:27:17.000Z</time>
      </trkpt>
      <trkpt lat="45.26304" lon="1.76025">
        <ele>199</ele>
        <time>2020-09-12T19:27:18.000Z</time>
      </trkpt>
      <trkpt lat="45.26301" lon="1.76021">
        <ele>200</ele>
        <time>2020-09-12T19:27:19.000Z</time>
      </trkpt>
      <trkpt lat="45.26298" lon="1.76016">
        <ele>200</ele>
        <time>2020-09-12T19:27:20.000Z</time>
      </trkpt>
      <trkpt lat="45.26295" lon="1.76012">
        <ele>201</ele>
        <time>2020-09-12T19:27:21.000Z</time>
      </trkpt>
      <trkpt lat="45.26292" lon="1.76008">
        <ele>200</ele>
        <time>2020-09-12T19:27:22.000Z</time>
      </trkpt>
      <trkpt lat="45.26289" lon="1.76004">
        <ele>201</ele>
        <time>2020-09-12T19:27:23.000Z</time>
      </trkpt>
      <trkpt lat="45.26287" lon="1.76001">
        <ele>201</ele>
        <time>2020-09-12T19:27:24.000Z</time>
      </trkpt>
      <trkpt lat="45.26284" lon="1.75997">
        <ele>201</ele>
        <time>2020-09-12T19:27:25.000Z</time>
      </trkpt>
      <trkpt lat="45.26281" lon="1.75993">
        <ele>201</ele>
        <time>2020-09-12T19:27:26.000Z</time>
      </trkpt>
      <trkpt lat="45.26277" lon="1.7599">
        <ele>200</ele>
        <time>2020-09-12T19:27:27.000Z</time>
      </trkpt>
      <trkpt lat="45.26272" lon="1.75988">
        <ele>200</ele>
        <time>2020-09-12T19:27:28.000Z</time>
      </trkpt>
      <trkpt lat="45.26267" lon="1.75985">
        <ele>201</ele>
        <time>2020-09-12T19:27:29.000Z</time>
      </trkpt>
      <trkpt lat="45.26262" lon="1.75983">
        <ele>202</ele>
        <time>2020-09-12T19:27:30.000Z</time>
      </trkpt>
      <trkpt lat="45.26258" lon="1.75981">
        <ele>203</ele>
        <time>2020-09-12T19:27:31.000Z</time>
      </trkpt>
      <trkpt lat="45.26253" lon="1.75979">
        <ele>204</ele>
        <time>2020-09-12T19:27:32.000Z</time>
      </trkpt>
      <trkpt lat="45.26248" lon="1.75977">
        <ele>205</ele>
        <time>2020-09-12T19:27:33.000Z</time>
      </trkpt>
      <trkpt lat="45.26244" lon="1.75975">
        <ele>206</ele>
        <time>2020-09-12T19:27:34.000Z</time>
      </trkpt>
      <trkpt lat="45.26239" lon="1.75972">
        <ele>206</ele>
        <time>2020-09-12T19:27:35.000Z</time>
      </trkpt>
      <trkpt lat="45.26235" lon="1.75969">
        <ele>206</ele>
        <time>2020-09-12T19:27:36.000Z</time>
      </trkpt>
      <trkpt lat="45.26231" lon="1.75966">
        <ele>207</ele>
        <time>2020-09-12T19:27:37.000Z</time>
      </trkpt>
      <trkpt lat="45.26227" lon="1.75963">
        <ele>207</ele>
        <time>2020-09-12T19:27:38.000Z</time>
      </trkpt>
      <trkpt lat="45.26223" lon="1.7596">
        <ele>207</ele>
        <time>2020-09-12T19:27:39.000Z</time>
      </trkpt>
      <trkpt lat="45.26219" lon="1.75957">
        <ele>206</ele>
        <time>2020-09-12T19:27:40.000Z</time>
      </trkpt>
      <trkpt lat="45.26215" lon="1.75954">
        <ele>206</ele>
        <time>2020-09-12T19:27:41.000Z</time>
      </trkpt>
      <trkpt lat="45.26211" lon="1.7595">
        <ele>206</ele>
        <time>2020-09-12T19:27:42.000Z</time>
      </trkpt>
      <trkpt lat="45.26208" lon="1.75947">
        <ele>206</ele>
        <time>2020-09-12T19:27:43.000Z</time>
      </trkpt>
      <trkpt lat="45.26204" lon="1.75943">
        <ele>206</ele>
        <time>2020-09-12T19:27:44.000Z</time>
      </trkpt>
      <trkpt lat="45.26201" lon="1.7594">
        <ele>206</ele>
        <time>2020-09-12T19:27:45.000Z</time>
      </trkpt>
      <trkpt lat="45.26197" lon="1.75936">
        <ele>206</ele>
        <time>2020-09-12T19:27:46.000Z</time>
      </trkpt>
      <trkpt lat="45.26194" lon="1.75933">
        <ele>206</ele>
        <time>2020-09-12T19:27:47.000Z</time>
      </trkpt>
      <trkpt lat="45.26191" lon="1.75929">
        <ele>207</ele>
        <time>2020-09-12T19:27:48.000Z</time>
      </trkpt>
      <trkpt lat="45.26187" lon="1.75926">
        <ele>208</ele>
        <time>2020-09-12T19:27:49.000Z</time>
      </trkpt>
      <trkpt lat="45.26184" lon="1.75921">
        <ele>208</ele>
        <time>2020-09-12T19:27:50.000Z</time>
      </trkpt>
      <trkpt lat="45.2618" lon="1.75917">
        <ele>208</ele>
        <time>2020-09-12T19:27:51.000Z</time>
      </trkpt>
      <trkpt lat="45.26177" lon="1.75912">
        <ele>207</ele>
        <time>2020-09-12T19:27:52.000Z</time>
      </trkpt>
      <trkpt lat="45.26174" lon="1.75907">
        <ele>206</ele>
        <time>2020-09-12T19:27:53.000Z</time>
      </trkpt>
      <trkpt lat="45.2617" lon="1.75902">
        <ele>206</ele>
        <time>2020-09-12T19:27:54.000Z</time>
      </trkpt>
      <trkpt lat="45.26167" lon="1.75897">
        <ele>207</ele>
        <time>2020-09-12T19:27:55.000Z</time>
      </trkpt>
      <trkpt lat="45.26164" lon="1.75893">
        <ele>206</ele>
        <time>2020-09-12T19:27:56.000Z</time>
      </trkpt>
      <trkpt lat="45.26161" lon="1.75889">
        <ele>204</ele>
        <time>2020-09-12T19:27:57.000Z</time>
      </trkpt>
      <trkpt lat="45.26158" lon="1.75885">
        <ele>203</ele>
        <time>2020-09-12T19:27:58.000Z</time>
      </trkpt>
      <trkpt lat="45.26155" lon="1.7588">
        <ele>202</ele>
        <time>2020-09-12T19:27:59.000Z</time>
      </trkpt>
      <trkpt lat="45.26152" lon="1.75877">
        <ele>202</ele>
        <time>2020-09-12T19:28:00.000Z</time>
      </trkpt>
      <trkpt lat="45.26148" lon="1.75874">
        <ele>201</ele>
        <time>2020-09-12T19:28:01.000Z</time>
      </trkpt>
      <trkpt lat="45.26146" lon="1.75869">
        <ele>203</ele>
        <time>2020-09-12T19:28:02.000Z</time>
      </trkpt>
      <trkpt lat="45.26143" lon="1.75865">
        <ele>202</ele>
        <time>2020-09-12T19:28:03.000Z</time>
      </trkpt>
      <trkpt lat="45.2614" lon="1.7586">
        <ele>201</ele>
        <time>2020-09-12T19:28:04.000Z</time>
      </trkpt>
      <trkpt lat="45.26138" lon="1.75855">
        <ele>202</ele>
        <time>2020-09-12T19:28:05.000Z</time>
      </trkpt>
      <trkpt lat="45.26136" lon="1.7585">
        <ele>202</ele>
        <time>2020-09-12T19:28:06.000Z</time>
      </trkpt>
      <trkpt lat="45.26134" lon="1.75845">
        <ele>199</ele>
        <time>2020-09-12T19:28:07.000Z</time>
      </trkpt>
      <trkpt lat="45.26131" lon="1.75841">
        <ele>198</ele>
        <time>2020-09-12T19:28:08.000Z</time>
      </trkpt>
      <trkpt lat="45.26128" lon="1.75836">
        <ele>197</ele>
        <time>2020-09-12T19:28:09.000Z</time>
      </trkpt>
      <trkpt lat="45.26125" lon="1.75832">
        <ele>197</ele>
        <time>2020-09-12T19:28:10.000Z</time>
      </trkpt>
      <trkpt lat="45.26122" lon="1.75827">
        <ele>196</ele>
        <time>2020-09-12T19:28:11.000Z</time>
      </trkpt>
      <trkpt lat="45.2612" lon="1.75823">
        <ele>197</ele>
        <time>2020-09-12T19:28:12.000Z</time>
      </trkpt>
      <trkpt lat="45.26117" lon="1.75818">
        <ele>198</ele>
        <time>2020-09-12T19:28:13.000Z</time>
      </trkpt>
      <trkpt lat="45.26114" lon="1.75813">
        <ele>198</ele>
        <time>2020-09-12T19:28:14.000Z</time>
      </trkpt>
      <trkpt lat="45.26111" lon="1.75809">
        <ele>199</ele>
        <time>2020-09-12T19:28:15.000Z</time>
      </trkpt>
      <trkpt lat="45.26108" lon="1.75806">
        <ele>201</ele>
        <time>2020-09-12T19:28:16.000Z</time>
      </trkpt>
      <trkpt lat="45.26106" lon="1.75804">
        <ele>204</ele>
        <time>2020-09-12T19:28:17.000Z</time>
      </trkpt>
      <trkpt lat="45.26103" lon="1.75802">
        <ele>206</ele>
        <time>2020-09-12T19:28:18.000Z</time>
      </trkpt>
      <trkpt lat="45.26099" lon="1.75801">
        <ele>209</ele>
        <time>2020-09-12T19:28:19.000Z</time>
      </trkpt>
      <trkpt lat="45.26096" lon="1.75801">
        <ele>208</ele>
        <time>2020-09-12T19:28:20.000Z</time>
      </trkpt>
      <trkpt lat="45.26092" lon="1.75801">
        <ele>209</ele>
        <time>2020-09-12T19:28:21.000Z</time>
      </trkpt>
      <trkpt lat="45.2609" lon="1.758">
        <ele>211</ele>
        <time>2020-09-12T19:28:22.000Z</time>
      </trkpt>
      <trkpt lat="45.26087" lon="1.75799">
        <ele>212</ele>
        <time>2020-09-12T19:28:23.000Z</time>
      </trkpt>
      <trkpt lat="45.26083" lon="1.75799">
        <ele>213</ele>
        <time>2020-09-12T19:28:24.000Z</time>
      </trkpt>
      <trkpt lat="45.2608" lon="1.75799">
        <ele>214</ele>
        <time>2020-09-12T19:28:25.000Z</time>
      </trkpt>
      <trkpt lat="45.26076" lon="1.75799">
        <ele>214</ele>
        <time>2020-09-12T19:28:26.000Z</time>
      </trkpt>
      <trkpt lat="45.26073" lon="1.75801">
        <ele>213</ele>
        <time>2020-09-12T19:28:27.000Z</time>
      </trkpt>
      <trkpt lat="45.26071" lon="1.75806">
        <ele>208</ele>
        <time>2020-09-12T19:28:28.000Z</time>
      </trkpt>
      <trkpt lat="45.2607" lon="1.75813">
        <ele>208</ele>
        <time>2020-09-12T19:28:29.000Z</time>
      </trkpt>
      <trkpt lat="45.26069" lon="1.75821">
        <ele>207</ele>
        <time>2020-09-12T19:28:30.000Z</time>
      </trkpt>
      <trkpt lat="45.26068" lon="1.75827">
        <ele>208</ele>
        <time>2020-09-12T19:28:31.000Z</time>
      </trkpt>
      <trkpt lat="45.26068" lon="1.75832">
        <ele>206</ele>
        <time>2020-09-12T19:28:32.000Z</time>
      </trkpt>
      <trkpt lat="45.26067" lon="1.75838">
        <ele>206</ele>
        <time>2020-09-12T19:28:33.000Z</time>
      </trkpt>
      <trkpt lat="45.26068" lon="1.75844">
        <ele>205</ele>
        <time>2020-09-12T19:28:34.000Z</time>
      </trkpt>
      <trkpt lat="45.26068" lon="1.75849">
        <ele>205</ele>
        <time>2020-09-12T19:28:35.000Z</time>
      </trkpt>
      <trkpt lat="45.26069" lon="1.75855">
        <ele>206</ele>
        <time>2020-09-12T19:28:36.000Z</time>
      </trkpt>
      <trkpt lat="45.2607" lon="1.7586">
        <ele>204</ele>
        <time>2020-09-12T19:28:37.000Z</time>
      </trkpt>
      <trkpt lat="45.26071" lon="1.75866">
        <ele>204</ele>
        <time>2020-09-12T19:28:38.000Z</time>
      </trkpt>
      <trkpt lat="45.26073" lon="1.75871">
        <ele>204</ele>
        <time>2020-09-12T19:28:39.000Z</time>
      </trkpt>
      <trkpt lat="45.26075" lon="1.75876">
        <ele>205</ele>
        <time>2020-09-12T19:28:40.000Z</time>
      </trkpt>
      <trkpt lat="45.26077" lon="1.75881">
        <ele>204</ele>
        <time>2020-09-12T19:28:41.000Z</time>
      </trkpt>
      <trkpt lat="45.26079" lon="1.75886">
        <ele>203</ele>
        <time>2020-09-12T19:28:42.000Z</time>
      </trkpt>
      <trkpt lat="45.2608" lon="1.75892">
        <ele>203</ele>
        <time>2020-09-12T19:28:43.000Z</time>
      </trkpt>
      <trkpt lat="45.26081" lon="1.75898">
        <ele>203</ele>
        <time>2020-09-12T19:28:44.000Z</time>
      </trkpt>
      <trkpt lat="45.26083" lon="1.75903">
        <ele>203</ele>
        <time>2020-09-12T19:28:45.000Z</time>
      </trkpt>
      <trkpt lat="45.26084" lon="1.75909">
        <ele>204</ele>
        <time>2020-09-12T19:28:46.000Z</time>
      </trkpt>
      <trkpt lat="45.26085" lon="1.75915">
        <ele>203</ele>
        <time>2020-09-12T19:28:47.000Z</time>
      </trkpt>
      <trkpt lat="45.26088" lon="1.7592">
        <ele>203</ele>
        <time>2020-09-12T19:28:48.000Z</time>
      </trkpt>
      <trkpt lat="45.2609" lon="1.75925">
        <ele>204</ele>
        <time>2020-09-12T19:28:49.000Z</time>
      </trkpt>
      <trkpt lat="45.26092" lon="1.75931">
        <ele>205</ele>
        <time>2020-09-12T19:28:50.000Z</time>
      </trkpt>
      <trkpt lat="45.26094" lon="1.75936">
        <ele>204</ele>
        <time>2020-09-12T19:28:51.000Z</time>
      </trkpt>
      <trkpt lat="45.26096" lon="1.7594">
        <ele>203</ele>
        <time>2020-09-12T19:28:52.000Z</time>
      </trkpt>
      <trkpt lat="45.26099" lon="1.75945">
        <ele>204</ele>
        <time>2020-09-12T19:28:53.000Z</time>
      </trkpt>
      <trkpt lat="45.26102" lon="1.75949">
        <ele>203</ele>
        <time>2020-09-12T19:28:54.000Z</time>
      </trkpt>
      <trkpt lat="45.26105" lon="1.75954">
        <ele>203</ele>
        <time>2020-09-12T19:28:55.000Z</time>
      </trkpt>
      <trkpt lat="45.26108" lon="1.75958">
        <ele>202</ele>
        <time>2020-09-12T19:28:56.000Z</time>
      </trkpt>
      <trkpt lat="45.2611" lon="1.75962">
        <ele>200</ele>
        <time>2020-09-12T19:28:57.000Z</time>
      </trkpt>
      <trkpt lat="45.26112" lon="1.75966">
        <ele>199</ele>
        <time>2020-09-12T19:28:58.000Z</time>
      </trkpt>
      <trkpt lat="45.26115" lon="1.75969">
        <ele>197</ele>
        <time>2020-09-12T19:28:59.000Z</time>
      </trkpt>
      <trkpt lat="45.26119" lon="1.75972">
        <ele>195</ele>
        <time>2020-09-12T19:29:00.000Z</time>
      </trkpt>
      <trkpt lat="45.26123" lon="1.75975">
        <ele>194</ele>
        <time>2020-09-12T19:29:01.000Z</time>
      </trkpt>
      <trkpt lat="45.26126" lon="1.75978">
        <ele>193</ele>
        <time>2020-09-12T19:29:02.000Z</time>
      </trkpt>
      <trkpt lat="45.26129" lon="1.75982">
        <ele>192</ele>
        <time>2020-09-12T19:29:03.000Z</time>
      </trkpt>
      <trkpt lat="45.26132" lon="1.75986">
        <ele>191</ele>
        <time>2020-09-12T19:29:04.000Z</time>
      </trkpt>
      <trkpt lat="45.26136" lon="1.75989">
        <ele>191</ele>
        <time>2020-09-12T19:29:05.000Z</time>
      </trkpt>
      <trkpt lat="45.26139" lon="1.75993">
        <ele>193</ele>
        <time>2020-09-12T19:29:06.000Z</time>
      </trkpt>
      <trkpt lat="45.26143" lon="1.75996">
        <ele>194</ele>
        <time>2020-09-12T19:29:07.000Z</time>
      </trkpt>
      <trkpt lat="45.26146" lon="1.75998">
        <ele>196</ele>
        <time>2020-09-12T19:29:08.000Z</time>
      </trkpt>
      <trkpt lat="45.26149" lon="1.76001">
        <ele>197</ele>
        <time>2020-09-12T19:29:09.000Z</time>
      </trkpt>
      <trkpt lat="45.26151" lon="1.76003">
        <ele>198</ele>
        <time>2020-09-12T19:29:10.000Z</time>
      </trkpt>
      <trkpt lat="45.26154" lon="1.76005">
        <ele>199</ele>
        <time>2020-09-12T19:29:11.000Z</time>
      </trkpt>
      <trkpt lat="45.26155" lon="1.76008">
        <ele>199</ele>
        <time>2020-09-12T19:29:12.000Z</time>
      </trkpt>
      <trkpt lat="45.26158" lon="1.76011">
        <ele>200</ele>
        <time>2020-09-12T19:29:13.000Z</time>
      </trkpt>
      <trkpt lat="45.26161" lon="1.76014">
        <ele>202</ele>
        <time>2020-09-12T19:29:14.000Z</time>
      </trkpt>
      <trkpt lat="45.26165" lon="1.76018">
        <ele>203</ele>
        <time>2020-09-12T19:29:15.000Z</time>
      </trkpt>
      <trkpt lat="45.26168" lon="1.76022">
        <ele>202</ele>
        <time>2020-09-12T19:29:16.000Z</time>
      </trkpt>
      <trkpt lat="45.26172" lon="1.76026">
        <ele>203</ele>
        <time>2020-09-12T19:29:17.000Z</time>
      </trkpt>
      <trkpt lat="45.26175" lon="1.7603">
        <ele>204</ele>
        <time>2020-09-12T19:29:18.000Z</time>
      </trkpt>
      <trkpt lat="45.26179" lon="1.76034">
        <ele>203</ele>
        <time>2020-09-12T19:29:19.000Z</time>
      </trkpt>
      <trkpt lat="45.26182" lon="1.76039">
        <ele>202</ele>
        <time>2020-09-12T19:29:20.000Z</time>
      </trkpt>
      <trkpt lat="45.26185" lon="1.76043">
        <ele>202</ele>
        <time>2020-09-12T19:29:21.000Z</time>
      </trkpt>
      <trkpt lat="45.26188" lon="1.76046">
        <ele>203</ele>
        <time>2020-09-12T19:29:22.000Z</time>
      </trkpt>
      <trkpt lat="45.26192" lon="1.7605">
        <ele>204</ele>
        <time>2020-09-12T19:29:23.000Z</time>
      </trkpt>
      <trkpt lat="45.26196" lon="1.76053">
        <ele>203</ele>
        <time>2020-09-12T19:29:24.000Z</time>
      </trkpt>
      <trkpt lat="45.262" lon="1.76056">
        <ele>202</ele>
        <time>2020-09-12T19:29:25.000Z</time>
      </trkpt>
      <trkpt lat="45.26204" lon="1.7606">
        <ele>204</ele>
        <time>2020-09-12T19:29:26.000Z</time>
      </trkpt>
      <trkpt lat="45.26207" lon="1.76064">
        <ele>203</ele>
        <time>2020-09-12T19:29:27.000Z</time>
      </trkpt>
      <trkpt lat="45.2621" lon="1.76067">
        <ele>203</ele>
        <time>2020-09-12T19:29:28.000Z</time>
      </trkpt>
      <trkpt lat="45.26214" lon="1.7607">
        <ele>202</ele>
        <time>2020-09-12T19:29:29.000Z</time>
      </trkpt>
      <trkpt lat="45.26216" lon="1.76074">
        <ele>202</ele>
        <time>2020-09-12T19:29:30.000Z</time>
      </trkpt>
      <trkpt lat="45.26219" lon="1.76078">
        <ele>202</ele>
        <time>2020-09-12T19:29:31.000Z</time>
      </trkpt>
      <trkpt lat="45.26223" lon="1.76082">
        <ele>203</ele>
        <time>2020-09-12T19:29:32.000Z</time>
      </trkpt>
      <trkpt lat="45.26226" lon="1.76086">
        <ele>203</ele>
        <time>2020-09-12T19:29:33.000Z</time>
      </trkpt>
      <trkpt lat="45.2623" lon="1.7609">
        <ele>204</ele>
        <time>2020-09-12T19:29:34.000Z</time>
      </trkpt>
      <trkpt lat="45.26233" lon="1.76094">
        <ele>204</ele>
        <time>2020-09-12T19:29:35.000Z</time>
      </trkpt>
      <trkpt lat="45.26236" lon="1.76099">
        <ele>205</ele>
        <time>2020-09-12T19:29:36.000Z</time>
      </trkpt>
      <trkpt lat="45.26239" lon="1.76104">
        <ele>205</ele>
        <time>2020-09-12T19:29:37.000Z</time>
      </trkpt>
      <trkpt lat="45.26241" lon="1.76109">
        <ele>205</ele>
        <time>2020-09-12T19:29:38.000Z</time>
      </trkpt>
      <trkpt lat="45.26243" lon="1.76115">
        <ele>204</ele>
        <time>2020-09-12T19:29:39.000Z</time>
      </trkpt>
      <trkpt lat="45.26246" lon="1.76122">
        <ele>201</ele>
        <time>2020-09-12T19:29:40.000Z</time>
      </trkpt>
      <trkpt lat="45.26248" lon="1.76128">
        <ele>201</ele>
        <time>2020-09-12T19:29:41.000Z</time>
      </trkpt>
      <trkpt lat="45.26251" lon="1.76134">
        <ele>200</ele>
        <time>2020-09-12T19:29:42.000Z</time>
      </trkpt>
      <trkpt lat="45.26254" lon="1.7614">
        <ele>199</ele>
        <time>2020-09-12T19:29:43.000Z</time>
      </trkpt>
      <trkpt lat="45.26257" lon="1.76145">
        <ele>199</ele>
        <time>2020-09-12T19:29:44.000Z</time>
      </trkpt>
      <trkpt lat="45.26259" lon="1.76151">
        <ele>199</ele>
        <time>2020-09-12T19:29:45.000Z</time>
      </trkpt>
      <trkpt lat="45.26262" lon="1.76157">
        <ele>200</ele>
        <time>2020-09-12T19:29:46.000Z</time>
      </trkpt>
      <trkpt lat="45.26264" lon="1.76162">
        <ele>202</ele>
        <time>2020-09-12T19:29:47.000Z</time>
      </trkpt>
      <trkpt lat="45.26266" lon="1.76168">
        <ele>202</ele>
        <time>2020-09-12T19:29:48.000Z</time>
      </trkpt>
      <trkpt lat="45.26268" lon="1.76173">
        <ele>202</ele>
        <time>2020-09-12T19:29:49.000Z</time>
      </trkpt>
      <trkpt lat="45.2627" lon="1.76179">
        <ele>202</ele>
        <time>2020-09-12T19:29:50.000Z</time>
      </trkpt>
      <trkpt lat="45.26272" lon="1.76184">
        <ele>202</ele>
        <time>2020-09-12T19:29:51.000Z</time>
      </trkpt>
      <trkpt lat="45.26274" lon="1.7619">
        <ele>200</ele>
        <time>2020-09-12T19:29:52.000Z</time>
      </trkpt>
      <trkpt lat="45.26277" lon="1.76196">
        <ele>199</ele>
        <time>2020-09-12T19:29:53.000Z</time>
      </trkpt>
      <trkpt lat="45.26279" lon="1.76202">
        <ele>199</ele>
        <time>2020-09-12T19:29:54.000Z</time>
      </trkpt>
      <trkpt lat="45.26281" lon="1.76208">
        <ele>200</ele>
        <time>2020-09-12T19:29:55.000Z</time>
      </trkpt>
      <trkpt lat="45.26284" lon="1.76214">
        <ele>199</ele>
        <time>2020-09-12T19:29:56.000Z</time>
      </trkpt>
      <trkpt lat="45.26286" lon="1.76219">
        <ele>198</ele>
        <time>2020-09-12T19:29:57.000Z</time>
      </trkpt>
      <trkpt lat="45.26288" lon="1.76225">
        <ele>197</ele>
        <time>2020-09-12T19:29:58.000Z</time>
      </trkpt>
      <trkpt lat="45.2629" lon="1.76231">
        <ele>196</ele>
        <time>2020-09-12T19:29:59.000Z</time>
      </trkpt>
      <trkpt lat="45.26293" lon="1.76236">
        <ele>197</ele>
        <time>2020-09-12T19:30:00.000Z</time>
      </trkpt>
      <trkpt lat="45.26295" lon="1.76242">
        <ele>198</ele>
        <time>2020-09-12T19:30:01.000Z</time>
      </trkpt>
      <trkpt lat="45.26297" lon="1.76248">
        <ele>200</ele>
        <time>2020-09-12T19:30:02.000Z</time>
      </trkpt>
      <trkpt lat="45.263" lon="1.76253">
        <ele>199</ele>
        <time>2020-09-12T19:30:03.000Z</time>
      </trkpt>
      <trkpt lat="45.26302" lon="1.76259">
        <ele>201</ele>
        <time>2020-09-12T19:30:04.000Z</time>
      </trkpt>
      <trkpt lat="45.26305" lon="1.76265">
        <ele>200</ele>
        <time>2020-09-12T19:30:05.000Z</time>
      </trkpt>
      <trkpt lat="45.26308" lon="1.7627">
        <ele>200</ele>
        <time>2020-09-12T19:30:06.000Z</time>
      </trkpt>
      <trkpt lat="45.2631" lon="1.76276">
        <ele>201</ele>
        <time>2020-09-12T19:30:07.000Z</time>
      </trkpt>
      <trkpt lat="45.26313" lon="1.76281">
        <ele>201</ele>
        <time>2020-09-12T19:30:08.000Z</time>
      </trkpt>
      <trkpt lat="45.26314" lon="1.76287">
        <ele>202</ele>
        <time>2020-09-12T19:30:09.000Z</time>
      </trkpt>
      <trkpt lat="45.26315" lon="1.76293">
        <ele>202</ele>
        <time>2020-09-12T19:30:10.000Z</time>
      </trkpt>
      <trkpt lat="45.26317" lon="1.76298">
        <ele>203</ele>
        <time>2020-09-12T19:30:11.000Z</time>
      </trkpt>
      <trkpt lat="45.26318" lon="1.76304">
        <ele>202</ele>
        <time>2020-09-12T19:30:12.000Z</time>
      </trkpt>
      <trkpt lat="45.2632" lon="1.76309">
        <ele>201</ele>
        <time>2020-09-12T19:30:13.000Z</time>
      </trkpt>
      <trkpt lat="45.26322" lon="1.76315">
        <ele>201</ele>
        <time>2020-09-12T19:30:14.000Z</time>
      </trkpt>
      <trkpt lat="45.26323" lon="1.76321">
        <ele>200</ele>
        <time>2020-09-12T19:30:15.000Z</time>
      </trkpt>
      <trkpt lat="45.26324" lon="1.76326">
        <ele>200</ele>
        <time>2020-09-12T19:30:16.000Z</time>
      </trkpt>
      <trkpt lat="45.26326" lon="1.76332">
        <ele>200</ele>
        <time>2020-09-12T19:30:17.000Z</time>
      </trkpt>
      <trkpt lat="45.26327" lon="1.76338">
        <ele>200</ele>
        <time>2020-09-12T19:30:18.000Z</time>
      </trkpt>
      <trkpt lat="45.26329" lon="1.76343">
        <ele>201</ele>
        <time>2020-09-12T19:30:19.000Z</time>
      </trkpt>
      <trkpt lat="45.2633" lon="1.76349">
        <ele>201</ele>
        <time>2020-09-12T19:30:20.000Z</time>
      </trkpt>
      <trkpt lat="45.26332" lon="1.76355">
        <ele>202</ele>
        <time>2020-09-12T19:30:21.000Z</time>
      </trkpt>
      <trkpt lat="45.26333" lon="1.76361">
        <ele>201</ele>
        <time>2020-09-12T19:30:22.000Z</time>
      </trkpt>
      <trkpt lat="45.26335" lon="1.76367">
        <ele>201</ele>
        <time>2020-09-12T19:30:23.000Z</time>
      </trkpt>
      <trkpt lat="45.26336" lon="1.76373">
        <ele>201</ele>
        <time>2020-09-12T19:30:24.000Z</time>
      </trkpt>
      <trkpt lat="45.26338" lon="1.76379">
        <ele>201</ele>
        <time>2020-09-12T19:30:25.000Z</time>
      </trkpt>
      <trkpt lat="45.26339" lon="1.76384">
        <ele>202</ele>
        <time>2020-09-12T19:30:26.000Z</time>
      </trkpt>
      <trkpt lat="45.26341" lon="1.7639">
        <ele>202</ele>
        <time>2020-09-12T19:30:27.000Z</time>
      </trkpt>
      <trkpt lat="45.26342" lon="1.76396">
        <ele>203</ele>
        <time>2020-09-12T19:30:28.000Z</time>
      </trkpt>
      <trkpt lat="45.26344" lon="1.76402">
        <ele>204</ele>
        <time>2020-09-12T19:30:29.000Z</time>
      </trkpt>
      <trkpt lat="45.26345" lon="1.76408">
        <ele>204</ele>
        <time>2020-09-12T19:30:30.000Z</time>
      </trkpt>
      <trkpt lat="45.26346" lon="1.76414">
        <ele>205</ele>
        <time>2020-09-12T19:30:31.000Z</time>
      </trkpt>
      <trkpt lat="45.26347" lon="1.7642">
        <ele>204</ele>
        <time>2020-09-12T19:30:32.000Z</time>
      </trkpt>
      <trkpt lat="45.26348" lon="1.76426">
        <ele>204</ele>
        <time>2020-09-12T19:30:33.000Z</time>
      </trkpt>
      <trkpt lat="45.2635" lon="1.76432">
        <ele>203</ele>
        <time>2020-09-12T19:30:34.000Z</time>
      </trkpt>
      <trkpt lat="45.26351" lon="1.76438">
        <ele>203</ele>
        <time>2020-09-12T19:30:35.000Z</time>
      </trkpt>
      <trkpt lat="45.26352" lon="1.76444">
        <ele>204</ele>
        <time>2020-09-12T19:30:36.000Z</time>
      </trkpt>
      <trkpt lat="45.26354" lon="1.7645">
        <ele>203</ele>
        <time>2020-09-12T19:30:37.000Z</time>
      </trkpt>
      <trkpt lat="45.26355" lon="1.76457">
        <ele>204</ele>
        <time>2020-09-12T19:30:38.000Z</time>
      </trkpt>
      <trkpt lat="45.26357" lon="1.76463">
        <ele>203</ele>
        <time>2020-09-12T19:30:39.000Z</time>
      </trkpt>
      <trkpt lat="45.26359" lon="1.76468">
        <ele>203</ele>
        <time>2020-09-12T19:30:40.000Z</time>
      </trkpt>
      <trkpt lat="45.26361" lon="1.76474">
        <ele>203</ele>
        <time>2020-09-12T19:30:41.000Z</time>
      </trkpt>
      <trkpt lat="45.26363" lon="1.7648">
        <ele>203</ele>
        <time>2020-09-12T19:30:42.000Z</time>
      </trkpt>
      <trkpt lat="45.26365" lon="1.76486">
        <ele>204</ele>
        <time>2020-09-12T19:30:43.000Z</time>
      </trkpt>
      <trkpt lat="45.26366" lon="1.76491">
        <ele>204</ele>
        <time>2020-09-12T19:30:44.000Z</time>
      </trkpt>
      <trkpt lat="45.26367" lon="1.76498">
        <ele>204</ele>
        <time>2020-09-12T19:30:45.000Z</time>
      </trkpt>
      <trkpt lat="45.26367" lon="1.76504">
        <ele>204</ele>
        <time>2020-09-12T19:30:46.000Z</time>
      </trkpt>
      <trkpt lat="45.26368" lon="1.7651">
        <ele>203</ele>
        <time>2020-09-12T19:30:47.000Z</time>
      </trkpt>
      <trkpt lat="45.26369" lon="1.76517">
        <ele>204</ele>
        <time>2020-09-12T19:30:48.000Z</time>
      </trkpt>
      <trkpt lat="45.2637" lon="1.76523">
        <ele>204</ele>
        <time>2020-09-12T19:30:49.000Z</time>
      </trkpt>
      <trkpt lat="45.2637" lon="1.76529">
        <ele>204</ele>
        <time>2020-09-12T19:30:50.000Z</time>
      </trkpt>
      <trkpt lat="45.26372" lon="1.76536">
        <ele>203</ele>
        <time>2020-09-12T19:30:51.000Z</time>
      </trkpt>
      <trkpt lat="45.26373" lon="1.76542">
        <ele>202</ele>
        <time>2020-09-12T19:30:52.000Z</time>
      </trkpt>
      <trkpt lat="45.26375" lon="1.76549">
        <ele>202</ele>
        <time>2020-09-12T19:30:53.000Z</time>
      </trkpt>
      <trkpt lat="45.26375" lon="1.76555">
        <ele>203</ele>
        <time>2020-09-12T19:30:54.000Z</time>
      </trkpt>
      <trkpt lat="45.26374" lon="1.76561">
        <ele>203</ele>
        <time>2020-09-12T19:30:55.000Z</time>
      </trkpt>
      <trkpt lat="45.26374" lon="1.76567">
        <ele>203</ele>
        <time>2020-09-12T19:30:56.000Z</time>
      </trkpt>
      <trkpt lat="45.26374" lon="1.76573">
        <ele>203</ele>
        <time>2020-09-12T19:30:57.000Z</time>
      </trkpt>
      <trkpt lat="45.26374" lon="1.7658">
        <ele>202</ele>
        <time>2020-09-12T19:30:58.000Z</time>
      </trkpt>
      <trkpt lat="45.26373" lon="1.76586">
        <ele>203</ele>
        <time>2020-09-12T19:30:59.000Z</time>
      </trkpt>
      <trkpt lat="45.26373" lon="1.76592">
        <ele>202</ele>
        <time>2020-09-12T19:31:00.000Z</time>
      </trkpt>
      <trkpt lat="45.26373" lon="1.76598">
        <ele>201</ele>
        <time>2020-09-12T19:31:01.000Z</time>
      </trkpt>
      <trkpt lat="45.26373" lon="1.76604">
        <ele>201</ele>
        <time>2020-09-12T19:31:02.000Z</time>
      </trkpt>
      <trkpt lat="45.26373" lon="1.76609">
        <ele>201</ele>
        <time>2020-09-12T19:31:03.000Z</time>
      </trkpt>
      <trkpt lat="45.26373" lon="1.76615">
        <ele>200</ele>
        <time>2020-09-12T19:31:04.000Z</time>
      </trkpt>
      <trkpt lat="45.26372" lon="1.76621">
        <ele>200</ele>
        <time>2020-09-12T19:31:05.000Z</time>
      </trkpt>
      <trkpt lat="45.26372" lon="1.76627">
        <ele>201</ele>
        <time>2020-09-12T19:31:06.000Z</time>
      </trkpt>
      <trkpt lat="45.26371" lon="1.76633">
        <ele>202</ele>
        <time>2020-09-12T19:31:07.000Z</time>
      </trkpt>
      <trkpt lat="45.2637" lon="1.76639">
        <ele>202</ele>
        <time>2020-09-12T19:31:08.000Z</time>
      </trkpt>
      <trkpt lat="45.26369" lon="1.76645">
        <ele>205</ele>
        <time>2020-09-12T19:31:09.000Z</time>
      </trkpt>
      <trkpt lat="45.26369" lon="1.7665">
        <ele>204</ele>
        <time>2020-09-12T19:31:10.000Z</time>
      </trkpt>
      <trkpt lat="45.26368" lon="1.76656">
        <ele>205</ele>
        <time>2020-09-12T19:31:11.000Z</time>
      </trkpt>
      <trkpt lat="45.26366" lon="1.76661">
        <ele>206</ele>
        <time>2020-09-12T19:31:12.000Z</time>
      </trkpt>
      <trkpt lat="45.26365" lon="1.76667">
        <ele>206</ele>
        <time>2020-09-12T19:31:13.000Z</time>
      </trkpt>
      <trkpt lat="45.26363" lon="1.76672">
        <ele>206</ele>
        <time>2020-09-12T19:31:14.000Z</time>
      </trkpt>
      <trkpt lat="45.26362" lon="1.76677">
        <ele>205</ele>
        <time>2020-09-12T19:31:15.000Z</time>
      </trkpt>
      <trkpt lat="45.2636" lon="1.76682">
        <ele>204</ele>
        <time>2020-09-12T19:31:16.000Z</time>
      </trkpt>
      <trkpt lat="45.26357" lon="1.76688">
        <ele>205</ele>
        <time>2020-09-12T19:31:17.000Z</time>
      </trkpt>
      <trkpt lat="45.26355" lon="1.76694">
        <ele>205</ele>
        <time>2020-09-12T19:31:18.000Z</time>
      </trkpt>
      <trkpt lat="45.26354" lon="1.767">
        <ele>205</ele>
        <time>2020-09-12T19:31:19.000Z</time>
      </trkpt>
      <trkpt lat="45.26352" lon="1.76706">
        <ele>205</ele>
        <time>2020-09-12T19:31:20.000Z</time>
      </trkpt>
      <trkpt lat="45.26351" lon="1.76711">
        <ele>206</ele>
        <time>2020-09-12T19:31:21.000Z</time>
      </trkpt>
      <trkpt lat="45.26349" lon="1.76717">
        <ele>206</ele>
        <time>2020-09-12T19:31:22.000Z</time>
      </trkpt>
      <trkpt lat="45.26348" lon="1.76723">
        <ele>205</ele>
        <time>2020-09-12T19:31:23.000Z</time>
      </trkpt>
      <trkpt lat="45.26347" lon="1.76729">
        <ele>205</ele>
        <time>2020-09-12T19:31:24.000Z</time>
      </trkpt>
      <trkpt lat="45.26345" lon="1.76735">
        <ele>204</ele>
        <time>2020-09-12T19:31:25.000Z</time>
      </trkpt>
      <trkpt lat="45.26343" lon="1.76741">
        <ele>203</ele>
        <time>2020-09-12T19:31:26.000Z</time>
      </trkpt>
      <trkpt lat="45.26342" lon="1.76747">
        <ele>204</ele>
        <time>2020-09-12T19:31:27.000Z</time>
      </trkpt>
      <trkpt lat="45.26341" lon="1.76753">
        <ele>204</ele>
        <time>2020-09-12T19:31:28.000Z</time>
      </trkpt>
      <trkpt lat="45.26339" lon="1.7676">
        <ele>203</ele>
        <time>2020-09-12T19:31:29.000Z</time>
      </trkpt>
      <trkpt lat="45.26339" lon="1.76766">
        <ele>201</ele>
        <time>2020-09-12T19:31:30.000Z</time>
      </trkpt>
      <trkpt lat="45.26338" lon="1.76772">
        <ele>201</ele>
        <time>2020-09-12T19:31:31.000Z</time>
      </trkpt>
      <trkpt lat="45.26338" lon="1.76778">
        <ele>201</ele>
        <time>2020-09-12T19:31:32.000Z</time>
      </trkpt>
      <trkpt lat="45.26337" lon="1.76784">
        <ele>200</ele>
        <time>2020-09-12T19:31:33.000Z</time>
      </trkpt>
      <trkpt lat="45.26337" lon="1.7679">
        <ele>200</ele>
        <time>2020-09-12T19:31:34.000Z</time>
      </trkpt>
      <trkpt lat="45.26336" lon="1.76797">
        <ele>200</ele>
        <time>2020-09-12T19:31:35.000Z</time>
      </trkpt>
      <trkpt lat="45.26335" lon="1.76803">
        <ele>199</ele>
        <time>2020-09-12T19:31:36.000Z</time>
      </trkpt>
      <trkpt lat="45.26335" lon="1.76809">
        <ele>198</ele>
        <time>2020-09-12T19:31:37.000Z</time>
      </trkpt>
      <trkpt lat="45.26334" lon="1.76815">
        <ele>198</ele>
        <time>2020-09-12T19:31:38.000Z</time>
      </trkpt>
      <trkpt lat="45.26333" lon="1.76821">
        <ele>197</ele>
        <time>2020-09-12T19:31:39.000Z</time>
      </trkpt>
      <trkpt lat="45.26333" lon="1.76826">
        <ele>197</ele>
        <time>2020-09-12T19:31:40.000Z</time>
      </trkpt>
      <trkpt lat="45.26333" lon="1.76833">
        <ele>197</ele>
        <time>2020-09-12T19:31:41.000Z</time>
      </trkpt>
      <trkpt lat="45.26333" lon="1.76838">
        <ele>196</ele>
        <time>2020-09-12T19:31:42.000Z</time>
      </trkpt>
      <trkpt lat="45.26333" lon="1.76845">
        <ele>197</ele>
        <time>2020-09-12T19:31:43.000Z</time>
      </trkpt>
      <trkpt lat="45.26333" lon="1.76851">
        <ele>196</ele>
        <time>2020-09-12T19:31:44.000Z</time>
      </trkpt>
      <trkpt lat="45.26333" lon="1.76857">
        <ele>196</ele>
        <time>2020-09-12T19:31:45.000Z</time>
      </trkpt>
      <trkpt lat="45.26335" lon="1.76862">
        <ele>196</ele>
        <time>2020-09-12T19:31:46.000Z</time>
      </trkpt>
      <trkpt lat="45.26336" lon="1.76868">
        <ele>197</ele>
        <time>2020-09-12T19:31:47.000Z</time>
      </trkpt>
      <trkpt lat="45.26338" lon="1.76873">
        <ele>196</ele>
        <time>2020-09-12T19:31:48.000Z</time>
      </trkpt>
      <trkpt lat="45.2634" lon="1.76879">
        <ele>196</ele>
        <time>2020-09-12T19:31:49.000Z</time>
      </trkpt>
      <trkpt lat="45.26341" lon="1.76884">
        <ele>196</ele>
        <time>2020-09-12T19:31:50.000Z</time>
      </trkpt>
      <trkpt lat="45.26342" lon="1.7689">
        <ele>195</ele>
        <time>2020-09-12T19:31:51.000Z</time>
      </trkpt>
      <trkpt lat="45.26344" lon="1.76895">
        <ele>196</ele>
        <time>2020-09-12T19:31:52.000Z</time>
      </trkpt>
      <trkpt lat="45.26346" lon="1.769">
        <ele>197</ele>
        <time>2020-09-12T19:31:53.000Z</time>
      </trkpt>
      <trkpt lat="45.26348" lon="1.76905">
        <ele>197</ele>
        <time>2020-09-12T19:31:54.000Z</time>
      </trkpt>
      <trkpt lat="45.2635" lon="1.7691">
        <ele>197</ele>
        <time>2020-09-12T19:31:55.000Z</time>
      </trkpt>
      <trkpt lat="45.26353" lon="1.76915">
        <ele>196</ele>
        <time>2020-09-12T19:31:56.000Z</time>
      </trkpt>
      <trkpt lat="45.26355" lon="1.7692">
        <ele>196</ele>
        <time>2020-09-12T19:31:57.000Z</time>
      </trkpt>
      <trkpt lat="45.26358" lon="1.76925">
        <ele>195</ele>
        <time>2020-09-12T19:31:58.000Z</time>
      </trkpt>
      <trkpt lat="45.2636" lon="1.76929">
        <ele>195</ele>
        <time>2020-09-12T19:31:59.000Z</time>
      </trkpt>
      <trkpt lat="45.26363" lon="1.76934">
        <ele>195</ele>
        <time>2020-09-12T19:32:00.000Z</time>
      </trkpt>
      <trkpt lat="45.26366" lon="1.76938">
        <ele>195</ele>
        <time>2020-09-12T19:32:01.000Z</time>
      </trkpt>
      <trkpt lat="45.26369" lon="1.76942">
        <ele>195</ele>
        <time>2020-09-12T19:32:02.000Z</time>
      </trkpt>
      <trkpt lat="45.26372" lon="1.76945">
        <ele>197</ele>
        <time>2020-09-12T19:32:03.000Z</time>
      </trkpt>
      <trkpt lat="45.26375" lon="1.76948">
        <ele>198</ele>
        <time>2020-09-12T19:32:04.000Z</time>
      </trkpt>
      <trkpt lat="45.26377" lon="1.76951">
        <ele>198</ele>
        <time>2020-09-12T19:32:05.000Z</time>
      </trkpt>
      <trkpt lat="45.2638" lon="1.76954">
        <ele>199</ele>
        <time>2020-09-12T19:32:06.000Z</time>
      </trkpt>
      <trkpt lat="45.26383" lon="1.76957">
        <ele>199</ele>
        <time>2020-09-12T19:32:07.000Z</time>
      </trkpt>
      <trkpt lat="45.26386" lon="1.7696">
        <ele>200</ele>
        <time>2020-09-12T19:32:08.000Z</time>
      </trkpt>
      <trkpt lat="45.2639" lon="1.76962">
        <ele>202</ele>
        <time>2020-09-12T19:32:09.000Z</time>
      </trkpt>
      <trkpt lat="45.26393" lon="1.76964">
        <ele>203</ele>
        <time>2020-09-12T19:32:10.000Z</time>
      </trkpt>
      <trkpt lat="45.26397" lon="1.76967">
        <ele>205</ele>
        <time>2020-09-12T19:32:11.000Z</time>
      </trkpt>
      <trkpt lat="45.26401" lon="1.76969">
        <ele>207</ele>
        <time>2020-09-12T19:32:12.000Z</time>
      </trkpt>
      <trkpt lat="45.26404" lon="1.76971">
        <ele>209</ele>
        <time>2020-09-12T19:32:13.000Z</time>
      </trkpt>
      <trkpt lat="45.26407" lon="1.76974">
        <ele>210</ele>
        <time>2020-09-12T19:32:14.000Z</time>
      </trkpt>
      <trkpt lat="45.2641" lon="1.76976">
        <ele>212</ele>
        <time>2020-09-12T19:32:15.000Z</time>
      </trkpt>
      <trkpt lat="45.26413" lon="1.76978">
        <ele>213</ele>
        <time>2020-09-12T19:32:16.000Z</time>
      </trkpt>
      <trkpt lat="45.26416" lon="1.7698">
        <ele>214</ele>
        <time>2020-09-12T19:32:17.000Z</time>
      </trkpt>
      <trkpt lat="45.2642" lon="1.76983">
        <ele>215</ele>
        <time>2020-09-12T19:32:18.000Z</time>
      </trkpt>
      <trkpt lat="45.26423" lon="1.76985">
        <ele>215</ele>
        <time>2020-09-12T19:32:19.000Z</time>
      </trkpt>
      <trkpt lat="45.26427" lon="1.76987">
        <ele>218</ele>
        <time>2020-09-12T19:32:20.000Z</time>
      </trkpt>
      <trkpt lat="45.26431" lon="1.76988">
        <ele>220</ele>
        <time>2020-09-12T19:32:21.000Z</time>
      </trkpt>
      <trkpt lat="45.26435" lon="1.76989">
        <ele>223</ele>
        <time>2020-09-12T19:32:22.000Z</time>
      </trkpt>
      <trkpt lat="45.26439" lon="1.7699">
        <ele>224</ele>
        <time>2020-09-12T19:32:23.000Z</time>
      </trkpt>
      <trkpt lat="45.26443" lon="1.7699">
        <ele>227</ele>
        <time>2020-09-12T19:32:24.000Z</time>
      </trkpt>
      <trkpt lat="45.26447" lon="1.7699">
        <ele>227</ele>
        <time>2020-09-12T19:32:25.000Z</time>
      </trkpt>
      <trkpt lat="45.26451" lon="1.76989">
        <ele>229</ele>
        <time>2020-09-12T19:32:26.000Z</time>
      </trkpt>
      <trkpt lat="45.26454" lon="1.76987">
        <ele>231</ele>
        <time>2020-09-12T19:32:27.000Z</time>
      </trkpt>
      <trkpt lat="45.26458" lon="1.76987">
        <ele>234</ele>
        <time>2020-09-12T19:32:28.000Z</time>
      </trkpt>
      <trkpt lat="45.26461" lon="1.76987">
        <ele>236</ele>
        <time>2020-09-12T19:32:29.000Z</time>
      </trkpt>
      <trkpt lat="45.26465" lon="1.76988">
        <ele>238</ele>
        <time>2020-09-12T19:32:30.000Z</time>
      </trkpt>
      <trkpt lat="45.26468" lon="1.76988">
        <ele>241</ele>
        <time>2020-09-12T19:32:31.000Z</time>
      </trkpt>
      <trkpt lat="45.26473" lon="1.76988">
        <ele>243</ele>
        <time>2020-09-12T19:32:32.000Z</time>
      </trkpt>
      <trkpt lat="45.26477" lon="1.76988">
        <ele>244</ele>
        <time>2020-09-12T19:32:33.000Z</time>
      </trkpt>
      <trkpt lat="45.26482" lon="1.76989">
        <ele>246</ele>
        <time>2020-09-12T19:32:34.000Z</time>
      </trkpt>
      <trkpt lat="45.26486" lon="1.7699">
        <ele>247</ele>
        <time>2020-09-12T19:32:35.000Z</time>
      </trkpt>
      <trkpt lat="45.2649" lon="1.76992">
        <ele>248</ele>
        <time>2020-09-12T19:32:36.000Z</time>
      </trkpt>
      <trkpt lat="45.26495" lon="1.76993">
        <ele>249</ele>
        <time>2020-09-12T19:32:37.000Z</time>
      </trkpt>
      <trkpt lat="45.26499" lon="1.76995">
        <ele>250</ele>
        <time>2020-09-12T19:32:38.000Z</time>
      </trkpt>
      <trkpt lat="45.26504" lon="1.76996">
        <ele>249</ele>
        <time>2020-09-12T19:32:39.000Z</time>
      </trkpt>
      <trkpt lat="45.26509" lon="1.76998">
        <ele>249</ele>
        <time>2020-09-12T19:32:40.000Z</time>
      </trkpt>
      <trkpt lat="45.26513" lon="1.77">
        <ele>248</ele>
        <time>2020-09-12T19:32:41.000Z</time>
      </trkpt>
      <trkpt lat="45.26518" lon="1.77002">
        <ele>249</ele>
        <time>2020-09-12T19:32:42.000Z</time>
      </trkpt>
      <trkpt lat="45.26522" lon="1.77005">
        <ele>249</ele>
        <time>2020-09-12T19:32:43.000Z</time>
      </trkpt>
      <trkpt lat="45.26526" lon="1.77007">
        <ele>249</ele>
        <time>2020-09-12T19:32:44.000Z</time>
      </trkpt>
      <trkpt lat="45.26531" lon="1.7701">
        <ele>248</ele>
        <time>2020-09-12T19:32:45.000Z</time>
      </trkpt>
      <trkpt lat="45.26536" lon="1.77012">
        <ele>247</ele>
        <time>2020-09-12T19:32:46.000Z</time>
      </trkpt>
      <trkpt lat="45.2654" lon="1.77015">
        <ele>246</ele>
        <time>2020-09-12T19:32:47.000Z</time>
      </trkpt>
      <trkpt lat="45.26545" lon="1.77019">
        <ele>242</ele>
        <time>2020-09-12T19:32:48.000Z</time>
      </trkpt>
      <trkpt lat="45.26549" lon="1.77023">
        <ele>238</ele>
        <time>2020-09-12T19:32:49.000Z</time>
      </trkpt>
      <trkpt lat="45.26554" lon="1.77028">
        <ele>236</ele>
        <time>2020-09-12T19:32:50.000Z</time>
      </trkpt>
      <trkpt lat="45.26558" lon="1.77033">
        <ele>235</ele>
        <time>2020-09-12T19:32:51.000Z</time>
      </trkpt>
      <trkpt lat="45.26561" lon="1.77036">
        <ele>235</ele>
        <time>2020-09-12T19:32:52.000Z</time>
      </trkpt>
      <trkpt lat="45.26565" lon="1.7704">
        <ele>235</ele>
        <time>2020-09-12T19:32:53.000Z</time>
      </trkpt>
      <trkpt lat="45.26569" lon="1.77043">
        <ele>235</ele>
        <time>2020-09-12T19:32:54.000Z</time>
      </trkpt>
      <trkpt lat="45.26573" lon="1.77047">
        <ele>233</ele>
        <time>2020-09-12T19:32:55.000Z</time>
      </trkpt>
      <trkpt lat="45.26577" lon="1.7705">
        <ele>232</ele>
        <time>2020-09-12T19:32:56.000Z</time>
      </trkpt>
      <trkpt lat="45.26581" lon="1.77053">
        <ele>232</ele>
        <time>2020-09-12T19:32:57.000Z</time>
      </trkpt>
      <trkpt lat="45.26584" lon="1.77057">
        <ele>232</ele>
        <time>2020-09-12T19:32:58.000Z</time>
      </trkpt>
      <trkpt lat="45.26588" lon="1.7706">
        <ele>232</ele>
        <time>2020-09-12T19:32:59.000Z</time>
      </trkpt>
      <trkpt lat="45.26591" lon="1.77065">
        <ele>231</ele>
        <time>2020-09-12T19:33:00.000Z</time>
      </trkpt>
      <trkpt lat="45.26595" lon="1.77069">
        <ele>229</ele>
        <time>2020-09-12T19:33:01.000Z</time>
      </trkpt>
      <trkpt lat="45.26599" lon="1.77074">
        <ele>228</ele>
        <time>2020-09-12T19:33:02.000Z</time>
      </trkpt>
      <trkpt lat="45.26603" lon="1.77078">
        <ele>228</ele>
        <time>2020-09-12T19:33:03.000Z</time>
      </trkpt>
      <trkpt lat="45.26607" lon="1.77083">
        <ele>223</ele>
        <time>2020-09-12T19:33:04.000Z</time>
      </trkpt>
      <trkpt lat="45.26611" lon="1.77088">
        <ele>221</ele>
        <time>2020-09-12T19:33:05.000Z</time>
      </trkpt>
      <trkpt lat="45.26615" lon="1.77094">
        <ele>218</ele>
        <time>2020-09-12T19:33:06.000Z</time>
      </trkpt>
      <trkpt lat="45.2662" lon="1.77099">
        <ele>215</ele>
        <time>2020-09-12T19:33:07.000Z</time>
      </trkpt>
      <trkpt lat="45.26623" lon="1.77104">
        <ele>213</ele>
        <time>2020-09-12T19:33:08.000Z</time>
      </trkpt>
      <trkpt lat="45.26627" lon="1.77109">
        <ele>212</ele>
        <time>2020-09-12T19:33:09.000Z</time>
      </trkpt>
      <trkpt lat="45.2663" lon="1.77113">
        <ele>211</ele>
        <time>2020-09-12T19:33:10.000Z</time>
      </trkpt>
      <trkpt lat="45.26633" lon="1.77118">
        <ele>211</ele>
        <time>2020-09-12T19:33:11.000Z</time>
      </trkpt>
      <trkpt lat="45.26636" lon="1.77122">
        <ele>210</ele>
        <time>2020-09-12T19:33:12.000Z</time>
      </trkpt>
      <trkpt lat="45.2664" lon="1.77126">
        <ele>209</ele>
        <time>2020-09-12T19:33:13.000Z</time>
      </trkpt>
      <trkpt lat="45.26643" lon="1.7713">
        <ele>210</ele>
        <time>2020-09-12T19:33:14.000Z</time>
      </trkpt>
      <trkpt lat="45.26647" lon="1.77134">
        <ele>209</ele>
        <time>2020-09-12T19:33:15.000Z</time>
      </trkpt>
      <trkpt lat="45.26651" lon="1.77138">
        <ele>208</ele>
        <time>2020-09-12T19:33:16.000Z</time>
      </trkpt>
      <trkpt lat="45.26655" lon="1.77141">
        <ele>208</ele>
        <time>2020-09-12T19:33:17.000Z</time>
      </trkpt>
      <trkpt lat="45.26658" lon="1.77145">
        <ele>208</ele>
        <time>2020-09-12T19:33:18.000Z</time>
      </trkpt>
      <trkpt lat="45.26662" lon="1.77149">
        <ele>207</ele>
        <time>2020-09-12T19:33:19.000Z</time>
      </trkpt>
      <trkpt lat="45.26666" lon="1.77152">
        <ele>208</ele>
        <time>2020-09-12T19:33:20.000Z</time>
      </trkpt>
      <trkpt lat="45.26669" lon="1.77156">
        <ele>207</ele>
        <time>2020-09-12T19:33:21.000Z</time>
      </trkpt>
      <trkpt lat="45.26672" lon="1.77159">
        <ele>207</ele>
        <time>2020-09-12T19:33:22.000Z</time>
      </trkpt>
      <trkpt lat="45.26676" lon="1.77163">
        <ele>207</ele>
        <time>2020-09-12T19:33:23.000Z</time>
      </trkpt>
      <trkpt lat="45.26679" lon="1.77165">
        <ele>208</ele>
        <time>2020-09-12T19:33:24.000Z</time>
      </trkpt>
      <trkpt lat="45.26683" lon="1.77168">
        <ele>208</ele>
        <time>2020-09-12T19:33:25.000Z</time>
      </trkpt>
      <trkpt lat="45.26687" lon="1.7717">
        <ele>210</ele>
        <time>2020-09-12T19:33:26.000Z</time>
      </trkpt>
      <trkpt lat="45.26691" lon="1.77172">
        <ele>210</ele>
        <time>2020-09-12T19:33:27.000Z</time>
      </trkpt>
      <trkpt lat="45.26695" lon="1.77174">
        <ele>210</ele>
        <time>2020-09-12T19:33:28.000Z</time>
      </trkpt>
      <trkpt lat="45.26699" lon="1.77176">
        <ele>210</ele>
        <time>2020-09-12T19:33:29.000Z</time>
      </trkpt>
      <trkpt lat="45.26703" lon="1.77178">
        <ele>211</ele>
        <time>2020-09-12T19:33:30.000Z</time>
      </trkpt>
      <trkpt lat="45.26707" lon="1.77181">
        <ele>213</ele>
        <time>2020-09-12T19:33:31.000Z</time>
      </trkpt>
      <trkpt lat="45.2671" lon="1.77183">
        <ele>212</ele>
        <time>2020-09-12T19:33:32.000Z</time>
      </trkpt>
      <trkpt lat="45.26715" lon="1.77186">
        <ele>213</ele>
        <time>2020-09-12T19:33:33.000Z</time>
      </trkpt>
      <trkpt lat="45.26719" lon="1.77188">
        <ele>214</ele>
        <time>2020-09-12T19:33:34.000Z</time>
      </trkpt>
      <trkpt lat="45.26723" lon="1.7719">
        <ele>216</ele>
        <time>2020-09-12T19:33:35.000Z</time>
      </trkpt>
      <trkpt lat="45.26727" lon="1.77192">
        <ele>217</ele>
        <time>2020-09-12T19:33:36.000Z</time>
      </trkpt>
      <trkpt lat="45.2673" lon="1.77194">
        <ele>219</ele>
        <time>2020-09-12T19:33:37.000Z</time>
      </trkpt>
      <trkpt lat="45.26734" lon="1.77196">
        <ele>220</ele>
        <time>2020-09-12T19:33:38.000Z</time>
      </trkpt>
      <trkpt lat="45.26737" lon="1.77198">
        <ele>220</ele>
        <time>2020-09-12T19:33:39.000Z</time>
      </trkpt>
      <trkpt lat="45.26741" lon="1.772">
        <ele>220</ele>
        <time>2020-09-12T19:33:40.000Z</time>
      </trkpt>
      <trkpt lat="45.26745" lon="1.77203">
        <ele>220</ele>
        <time>2020-09-12T19:33:41.000Z</time>
      </trkpt>
      <trkpt lat="45.26749" lon="1.77206">
        <ele>219</ele>
        <time>2020-09-12T19:33:42.000Z</time>
      </trkpt>
      <trkpt lat="45.26754" lon="1.77209">
        <ele>219</ele>
        <time>2020-09-12T19:33:43.000Z</time>
      </trkpt>
      <trkpt lat="45.26758" lon="1.77212">
        <ele>218</ele>
        <time>2020-09-12T19:33:44.000Z</time>
      </trkpt>
      <trkpt lat="45.26762" lon="1.77214">
        <ele>218</ele>
        <time>2020-09-12T19:33:45.000Z</time>
      </trkpt>
      <trkpt lat="45.26767" lon="1.77216">
        <ele>219</ele>
        <time>2020-09-12T19:33:46.000Z</time>
      </trkpt>
      <trkpt lat="45.26771" lon="1.77218">
        <ele>218</ele>
        <time>2020-09-12T19:33:47.000Z</time>
      </trkpt>
      <trkpt lat="45.26775" lon="1.77221">
        <ele>216</ele>
        <time>2020-09-12T19:33:48.000Z</time>
      </trkpt>
      <trkpt lat="45.26779" lon="1.77224">
        <ele>214</ele>
        <time>2020-09-12T19:33:49.000Z</time>
      </trkpt>
      <trkpt lat="45.26784" lon="1.77227">
        <ele>212</ele>
        <time>2020-09-12T19:33:50.000Z</time>
      </trkpt>
      <trkpt lat="45.26788" lon="1.7723">
        <ele>210</ele>
        <time>2020-09-12T19:33:51.000Z</time>
      </trkpt>
      <trkpt lat="45.26793" lon="1.77233">
        <ele>210</ele>
        <time>2020-09-12T19:33:52.000Z</time>
      </trkpt>
      <trkpt lat="45.26797" lon="1.77235">
        <ele>209</ele>
        <time>2020-09-12T19:33:53.000Z</time>
      </trkpt>
      <trkpt lat="45.26802" lon="1.77236">
        <ele>209</ele>
        <time>2020-09-12T19:33:54.000Z</time>
      </trkpt>
      <trkpt lat="45.26807" lon="1.77238">
        <ele>209</ele>
        <time>2020-09-12T19:33:55.000Z</time>
      </trkpt>
      <trkpt lat="45.26811" lon="1.77239">
        <ele>209</ele>
        <time>2020-09-12T19:33:56.000Z</time>
      </trkpt>
      <trkpt lat="45.26816" lon="1.77241">
        <ele>209</ele>
        <time>2020-09-12T19:33:57.000Z</time>
      </trkpt>
      <trkpt lat="45.26821" lon="1.77243">
        <ele>208</ele>
        <time>2020-09-12T19:33:58.000Z</time>
      </trkpt>
      <trkpt lat="45.26825" lon="1.77245">
        <ele>209</ele>
        <time>2020-09-12T19:33:59.000Z</time>
      </trkpt>
      <trkpt lat="45.2683" lon="1.77247">
        <ele>209</ele>
        <time>2020-09-12T19:34:00.000Z</time>
      </trkpt>
      <trkpt lat="45.26834" lon="1.77248">
        <ele>210</ele>
        <time>2020-09-12T19:34:01.000Z</time>
      </trkpt>
      <trkpt lat="45.26838" lon="1.7725">
        <ele>210</ele>
        <time>2020-09-12T19:34:02.000Z</time>
      </trkpt>
      <trkpt lat="45.26842" lon="1.77253">
        <ele>210</ele>
        <time>2020-09-12T19:34:03.000Z</time>
      </trkpt>
      <trkpt lat="45.26847" lon="1.77255">
        <ele>210</ele>
        <time>2020-09-12T19:34:04.000Z</time>
      </trkpt>
      <trkpt lat="45.26851" lon="1.77258">
        <ele>209</ele>
        <time>2020-09-12T19:34:05.000Z</time>
      </trkpt>
      <trkpt lat="45.26855" lon="1.77261">
        <ele>210</ele>
        <time>2020-09-12T19:34:06.000Z</time>
      </trkpt>
      <trkpt lat="45.26858" lon="1.77264">
        <ele>210</ele>
        <time>2020-09-12T19:34:07.000Z</time>
      </trkpt>
      <trkpt lat="45.26862" lon="1.77268">
        <ele>211</ele>
        <time>2020-09-12T19:34:08.000Z</time>
      </trkpt>
      <trkpt lat="45.26865" lon="1.77272">
        <ele>211</ele>
        <time>2020-09-12T19:34:09.000Z</time>
      </trkpt>
      <trkpt lat="45.26869" lon="1.77276">
        <ele>211</ele>
        <time>2020-09-12T19:34:10.000Z</time>
      </trkpt>
      <trkpt lat="45.26871" lon="1.77281">
        <ele>211</ele>
        <time>2020-09-12T19:34:11.000Z</time>
      </trkpt>
      <trkpt lat="45.26874" lon="1.77286">
        <ele>211</ele>
        <time>2020-09-12T19:34:12.000Z</time>
      </trkpt>
      <trkpt lat="45.26877" lon="1.77291">
        <ele>210</ele>
        <time>2020-09-12T19:34:13.000Z</time>
      </trkpt>
      <trkpt lat="45.2688" lon="1.77296">
        <ele>209</ele>
        <time>2020-09-12T19:34:14.000Z</time>
      </trkpt>
      <trkpt lat="45.26884" lon="1.77302">
        <ele>208</ele>
        <time>2020-09-12T19:34:15.000Z</time>
      </trkpt>
      <trkpt lat="45.26887" lon="1.77307">
        <ele>206</ele>
        <time>2020-09-12T19:34:16.000Z</time>
      </trkpt>
      <trkpt lat="45.2689" lon="1.77312">
        <ele>206</ele>
        <time>2020-09-12T19:34:17.000Z</time>
      </trkpt>
      <trkpt lat="45.26894" lon="1.77317">
        <ele>205</ele>
        <time>2020-09-12T19:34:18.000Z</time>
      </trkpt>
      <trkpt lat="45.26897" lon="1.77322">
        <ele>205</ele>
        <time>2020-09-12T19:34:19.000Z</time>
      </trkpt>
      <trkpt lat="45.26901" lon="1.77327">
        <ele>206</ele>
        <time>2020-09-12T19:34:20.000Z</time>
      </trkpt>
      <trkpt lat="45.26904" lon="1.77332">
        <ele>205</ele>
        <time>2020-09-12T19:34:21.000Z</time>
      </trkpt>
      <trkpt lat="45.26908" lon="1.77336">
        <ele>205</ele>
        <time>2020-09-12T19:34:22.000Z</time>
      </trkpt>
      <trkpt lat="45.26911" lon="1.77341">
        <ele>204</ele>
        <time>2020-09-12T19:34:23.000Z</time>
      </trkpt>
      <trkpt lat="45.26914" lon="1.77346">
        <ele>204</ele>
        <time>2020-09-12T19:34:24.000Z</time>
      </trkpt>
      <trkpt lat="45.26917" lon="1.77351">
        <ele>203</ele>
        <time>2020-09-12T19:34:25.000Z</time>
      </trkpt>
      <trkpt lat="45.2692" lon="1.77355">
        <ele>203</ele>
        <time>2020-09-12T19:34:26.000Z</time>
      </trkpt>
      <trkpt lat="45.26923" lon="1.7736">
        <ele>204</ele>
        <time>2020-09-12T19:34:27.000Z</time>
      </trkpt>
      <trkpt lat="45.26926" lon="1.77365">
        <ele>205</ele>
        <time>2020-09-12T19:34:28.000Z</time>
      </trkpt>
      <trkpt lat="45.26929" lon="1.77369">
        <ele>205</ele>
        <time>2020-09-12T19:34:29.000Z</time>
      </trkpt>
      <trkpt lat="45.26932" lon="1.77374">
        <ele>205</ele>
        <time>2020-09-12T19:34:30.000Z</time>
      </trkpt>
      <trkpt lat="45.26934" lon="1.77379">
        <ele>207</ele>
        <time>2020-09-12T19:34:31.000Z</time>
      </trkpt>
      <trkpt lat="45.26938" lon="1.77385">
        <ele>209</ele>
        <time>2020-09-12T19:34:32.000Z</time>
      </trkpt>
      <trkpt lat="45.26941" lon="1.7739">
        <ele>208</ele>
        <time>2020-09-12T19:34:33.000Z</time>
      </trkpt>
      <trkpt lat="45.26944" lon="1.77395">
        <ele>208</ele>
        <time>2020-09-12T19:34:34.000Z</time>
      </trkpt>
      <trkpt lat="45.26948" lon="1.774">
        <ele>209</ele>
        <time>2020-09-12T19:34:35.000Z</time>
      </trkpt>
      <trkpt lat="45.2695" lon="1.77403">
        <ele>210</ele>
        <time>2020-09-12T19:34:36.000Z</time>
      </trkpt>
      <trkpt lat="45.26953" lon="1.77402">
        <ele>205</ele>
        <time>2020-09-12T19:34:37.000Z</time>
      </trkpt>
      <trkpt lat="45.26956" lon="1.77398">
        <ele>203</ele>
        <time>2020-09-12T19:34:38.000Z</time>
      </trkpt>
      <trkpt lat="45.26961" lon="1.77392">
        <ele>202</ele>
        <time>2020-09-12T19:34:39.000Z</time>
      </trkpt>
      <trkpt lat="45.26965" lon="1.77389">
        <ele>201</ele>
        <time>2020-09-12T19:34:40.000Z</time>
      </trkpt>
      <trkpt lat="45.26968" lon="1.77385">
        <ele>200</ele>
        <time>2020-09-12T19:34:41.000Z</time>
      </trkpt>
      <trkpt lat="45.26971" lon="1.77382">
        <ele>199</ele>
        <time>2020-09-12T19:34:42.000Z</time>
      </trkpt>
      <trkpt lat="45.26974" lon="1.77379">
        <ele>198</ele>
        <time>2020-09-12T19:34:43.000Z</time>
      </trkpt>
      <trkpt lat="45.26977" lon="1.77376">
        <ele>198</ele>
        <time>2020-09-12T19:34:44.000Z</time>
      </trkpt>
      <trkpt lat="45.26978" lon="1.77372">
        <ele>198</ele>
        <time>2020-09-12T19:34:45.000Z</time>
      </trkpt>
      <trkpt lat="45.26979" lon="1.77368">
        <ele>198</ele>
        <time>2020-09-12T19:34:46.000Z</time>
      </trkpt>
      <trkpt lat="45.26979" lon="1.77363">
        <ele>196</ele>
        <time>2020-09-12T19:34:47.000Z</time>
      </trkpt>
      <trkpt lat="45.26978" lon="1.77359">
        <ele>196</ele>
        <time>2020-09-12T19:34:48.000Z</time>
      </trkpt>
      <trkpt lat="45.26977" lon="1.77354">
        <ele>197</ele>
        <time>2020-09-12T19:34:49.000Z</time>
      </trkpt>
      <trkpt lat="45.26975" lon="1.7735">
        <ele>196</ele>
        <time>2020-09-12T19:34:50.000Z</time>
      </trkpt>
      <trkpt lat="45.26973" lon="1.77346">
        <ele>195</ele>
        <time>2020-09-12T19:34:51.000Z</time>
      </trkpt>
      <trkpt lat="45.26969" lon="1.77341">
        <ele>196</ele>
        <time>2020-09-12T19:34:52.000Z</time>
      </trkpt>
      <trkpt lat="45.26966" lon="1.77337">
        <ele>197</ele>
        <time>2020-09-12T19:34:53.000Z</time>
      </trkpt>
      <trkpt lat="45.26962" lon="1.77333">
        <ele>198</ele>
        <time>2020-09-12T19:34:54.000Z</time>
      </trkpt>
      <trkpt lat="45.26958" lon="1.77328">
        <ele>199</ele>
        <time>2020-09-12T19:34:55.000Z</time>
      </trkpt>
      <trkpt lat="45.26955" lon="1.77324">
        <ele>199</ele>
        <time>2020-09-12T19:34:56.000Z</time>
      </trkpt>
      <trkpt lat="45.26951" lon="1.77319">
        <ele>200</ele>
        <time>2020-09-12T19:34:57.000Z</time>
      </trkpt>
      <trkpt lat="45.26947" lon="1.77315">
        <ele>202</ele>
        <time>2020-09-12T19:34:58.000Z</time>
      </trkpt>
      <trkpt lat="45.26943" lon="1.7731">
        <ele>203</ele>
        <time>2020-09-12T19:34:59.000Z</time>
      </trkpt>
      <trkpt lat="45.26939" lon="1.77306">
        <ele>204</ele>
        <time>2020-09-12T19:35:00.000Z</time>
      </trkpt>
      <trkpt lat="45.26936" lon="1.77301">
        <ele>204</ele>
        <time>2020-09-12T19:35:01.000Z</time>
      </trkpt>
      <trkpt lat="45.26932" lon="1.77295">
        <ele>205</ele>
        <time>2020-09-12T19:35:02.000Z</time>
      </trkpt>
      <trkpt lat="45.26928" lon="1.77289">
        <ele>208</ele>
        <time>2020-09-12T19:35:03.000Z</time>
      </trkpt>
      <trkpt lat="45.26924" lon="1.77284">
        <ele>209</ele>
        <time>2020-09-12T19:35:04.000Z</time>
      </trkpt>
      <trkpt lat="45.2692" lon="1.77278">
        <ele>209</ele>
        <time>2020-09-12T19:35:05.000Z</time>
      </trkpt>
      <trkpt lat="45.26916" lon="1.77273">
        <ele>210</ele>
        <time>2020-09-12T19:35:06.000Z</time>
      </trkpt>
      <trkpt lat="45.26912" lon="1.77269">
        <ele>210</ele>
        <time>2020-09-12T19:35:07.000Z</time>
      </trkpt>
      <trkpt lat="45.26908" lon="1.77265">
        <ele>211</ele>
        <time>2020-09-12T19:35:08.000Z</time>
      </trkpt>
      <trkpt lat="45.26904" lon="1.77261">
        <ele>212</ele>
        <time>2020-09-12T19:35:09.000Z</time>
      </trkpt>
      <trkpt lat="45.269" lon="1.77258">
        <ele>212</ele>
        <time>2020-09-12T19:35:10.000Z</time>
      </trkpt>
      <trkpt lat="45.26897" lon="1.77254">
        <ele>213</ele>
        <time>2020-09-12T19:35:11.000Z</time>
      </trkpt>
      <trkpt lat="45.26894" lon="1.7725">
        <ele>214</ele>
        <time>2020-09-12T19:35:12.000Z</time>
      </trkpt>
      <trkpt lat="45.2689" lon="1.77246">
        <ele>214</ele>
        <time>2020-09-12T19:35:13.000Z</time>
      </trkpt>
      <trkpt lat="45.26886" lon="1.77243">
        <ele>214</ele>
        <time>2020-09-12T19:35:14.000Z</time>
      </trkpt>
      <trkpt lat="45.26882" lon="1.77239">
        <ele>215</ele>
        <time>2020-09-12T19:35:15.000Z</time>
      </trkpt>
      <trkpt lat="45.26877" lon="1.77237">
        <ele>215</ele>
        <time>2020-09-12T19:35:16.000Z</time>
      </trkpt>
      <trkpt lat="45.26872" lon="1.77234">
        <ele>216</ele>
        <time>2020-09-12T19:35:17.000Z</time>
      </trkpt>
      <trkpt lat="45.26868" lon="1.77232">
        <ele>216</ele>
        <time>2020-09-12T19:35:18.000Z</time>
      </trkpt>
      <trkpt lat="45.26863" lon="1.77229">
        <ele>217</ele>
        <time>2020-09-12T19:35:19.000Z</time>
      </trkpt>
      <trkpt lat="45.26858" lon="1.77227">
        <ele>218</ele>
        <time>2020-09-12T19:35:20.000Z</time>
      </trkpt>
      <trkpt lat="45.26853" lon="1.77224">
        <ele>217</ele>
        <time>2020-09-12T19:35:21.000Z</time>
      </trkpt>
      <trkpt lat="45.26848" lon="1.77222">
        <ele>218</ele>
        <time>2020-09-12T19:35:22.000Z</time>
      </trkpt>
      <trkpt lat="45.26844" lon="1.77218">
        <ele>217</ele>
        <time>2020-09-12T19:35:23.000Z</time>
      </trkpt>
      <trkpt lat="45.2684" lon="1.77215">
        <ele>217</ele>
        <time>2020-09-12T19:35:24.000Z</time>
      </trkpt>
      <trkpt lat="45.26837" lon="1.77211">
        <ele>215</ele>
        <time>2020-09-12T19:35:25.000Z</time>
      </trkpt>
      <trkpt lat="45.26834" lon="1.77207">
        <ele>214</ele>
        <time>2020-09-12T19:35:26.000Z</time>
      </trkpt>
      <trkpt lat="45.2683" lon="1.77205">
        <ele>214</ele>
        <time>2020-09-12T19:35:27.000Z</time>
      </trkpt>
      <trkpt lat="45.26826" lon="1.77202">
        <ele>213</ele>
        <time>2020-09-12T19:35:28.000Z</time>
      </trkpt>
      <trkpt lat="45.26822" lon="1.77199">
        <ele>212</ele>
        <time>2020-09-12T19:35:29.000Z</time>
      </trkpt>
      <trkpt lat="45.26819" lon="1.77196">
        <ele>211</ele>
        <time>2020-09-12T19:35:30.000Z</time>
      </trkpt>
      <trkpt lat="45.26815" lon="1.77194">
        <ele>211</ele>
        <time>2020-09-12T19:35:31.000Z</time>
      </trkpt>
      <trkpt lat="45.26812" lon="1.77192">
        <ele>210</ele>
        <time>2020-09-12T19:35:32.000Z</time>
      </trkpt>
      <trkpt lat="45.26807" lon="1.7719">
        <ele>210</ele>
        <time>2020-09-12T19:35:33.000Z</time>
      </trkpt>
      <trkpt lat="45.26803" lon="1.77188">
        <ele>210</ele>
        <time>2020-09-12T19:35:34.000Z</time>
      </trkpt>
      <trkpt lat="45.26799" lon="1.77186">
        <ele>210</ele>
        <time>2020-09-12T19:35:35.000Z</time>
      </trkpt>
      <trkpt lat="45.26797" lon="1.77186">
        <ele>210</ele>
        <time>2020-09-12T19:35:36.000Z</time>
      </trkpt>
      <trkpt lat="45.26795" lon="1.77186">
        <ele>211</ele>
        <time>2020-09-12T19:35:37.000Z</time>
      </trkpt>
    </trkseg>
  </trk>
</gpx>